GFSNGP_prec_cthk_000.txt.gz
RH
95 97 98 85 79 83 89 78 73 66 79 68 64 50 47 44 45 46 47 49 49 48 48 51 54 57 58 59 57 57 61 65 70 72 68 67 68 58 46 43 36 38 36 36
98 93 88 90 90 90 90 94 86 90 87 69 56 49 47 48 46 46 48 50 51 51 51 52 55 57 57 57 59 61 64 69 72 70 70 70 67 49 41 39 38 37 38 39
98 93 90 94 85 88 94 95 94 95 77 59 53 53 54 53 50 43 42 45 48 51 55 58 60 60 60 59 59 65 70 71 71 71 73 69 53 43 42 36 36 40 41 36
99 97 90 71 82 87 91 91 92 76 63 58 57 60 58 58 56 53 49 42 41 46 52 54 54 55 57 63 67 70 72 72 74 73 66 51 45 39 37 37 41 41 36 33
89 84 73 66 71 79 76 79 77 68 64 62 61 59 60 59 58 58 57 54 54 51 52 54 56 59 63 68 71 73 75 74 69 63 51 41 39 38 38 39 39 35 33 31
86 82 73 61 60 62 64 70 64 62 61 63 61 61 63 61 61 62 61 59 61 63 62 64 64 67 71 74 75 69 66 64 51 43 41 41 39 38 39 37 33 31 32 32
83 85 72 63 59 61 65 61 54 57 58 59 59 58 60 62 62 61 62 63 64 65 67 68 70 70 66 62 60 59 50 43 41 43 41 40 39 38 34 32 31 33 32 29
78 84 82 65 58 58 59 55 56 55 57 60 61 60 60 59 59 61 62 63 65 64 64 61 61 61 61 59 49 43 41 43 44 43 42 40 36 32 31 33 34 32 28 26
74 73 67 66 64 63 60 59 59 59 60 59 61 61 62 62 63 62 60 58 58 59 60 60 57 51 46 43 42 44 47 48 45 45 40 34 31 32 34 35 32 29 27 26
73 66 67 66 65 62 63 64 63 61 61 62 63 64 64 64 63 62 62 61 61 60 54 47 43 39 40 45 49 48 46 48 45 39 34 32 34 36 36 33 30 28 27 27
75 71 68 67 65 64 63 67 67 68 70 69 67 67 66 65 63 61 59 56 49 46 42 37 36 41 47 49 47 48 49 44 38 34 33 36 37 36 34 31 29 29 28 29
76 68 67 64 64 64 62 66 67 68 71 72 69 67 65 65 63 57 51 45 41 36 34 38 43 47 48 48 50 47 42 36 34 35 38 39 37 36 32 28 26 26 26 29
71 69 65 62 65 64 65 68 69 69 66 66 60 59 64 64 61 53 44 36 33 37 41 44 45 47 48 48 44 39 36 36 37 40 40 38 36 32 28 27 26 25 25 26
70 72 71 67 67 70 71 74 74 68 66 62 61 65 65 60 52 44 37 36 41 43 42 44 49 47 47 41 39 36 37 39 41 42 40 37 32 29 28 27 26 25 26 26
68 68 69 70 68 68 71 68 62 60 61 61 63 62 57 48 39 37 37 40 41 41 47 46 46 44 40 38 37 39 40 43 45 42 38 33 30 28 27 27 26 25 24 23
71 65 59 58 64 64 62 60 61 62 63 61 56 51 45 41 38 38 40 41 45 46 43 44 41 39 40 40 41 42 44 46 44 39 33 31 30 28 28 26 25 24 21 21
54 57 59 61 61 62 63 62 59 55 56 58 56 51 44 37 36 41 43 47 44 42 42 41 42 43 43 43 44 46 47 44 39 33 32 31 29 28 27 26 23 19 20 24
52 54 55 57 59 59 59 60 60 58 55 52 47 40 38 40 41 45 45 41 41 42 44 45 46 45 45 46 47 47 45 38 33 32 31 30 29 27 24 21 19 20 24 27
54 55 57 59 61 64 62 59 56 53 50 48 43 44 45 45 45 43 41 41 45 48 48 47 46 46 47 48 48 43 38 34 33 31 30 29 26 22 19 18 21 25 28 31
62 62 63 66 66 64 59 59 61 58 53 45 43 43 45 44 43 41 43 49 50 49 48 48 48 48 49 47 41 38 35 33 31 30 28 25 19 18 19 22 26 29 31 33
67 67 67 69 69 67 67 67 60 48 44 45 45 44 42 42 41 45 51 51 50 49 49 49 50 49 44 41 37 36 32 30 30 28 22 18 18 19 22 25 27 30 33 33
69 72 73 72 71 69 66 58 49 46 45 44 42 42 42 42 48 52 52 52 51 50 51 51 47 42 40 37 34 31 31 30 26 20 17 19 20 22 26 29 30 32 34 34
67 70 71 71 69 66 59 51 45 44 45 46 45 44 45 51 54 54 54 52 52 52 49 45 41 38 36 33 31 31 29 25 19 18 20 22 24 29 31 33 35 35 34 36
65 66 64 66 63 57 47 45 48 48 47 46 47 50 55 57 57 55 53 53 50 47 43 40 37 35 34 33 31 27 22 19 19 22 24 28 32 34 36 39 40 36 37 38
61 63 64 60 52 45 45 47 48 49 50 52 54 57 58 58 57 55 52 50 46 42 39 37 36 35 33 30 26 21 19 21 25 26 30 34 37 39 40 42 43 40 39 43
67 66 61 54 49 48 50 52 53 54 54 56 58 59 61 59 56 53 50 46 42 40 38 37 35 33 29 25 20 21 25 28 29 32 36 39 41 42 43 43 42 39 40 43
67 65 61 56 54 54 54 54 54 55 58 60 63 64 60 57 53 49 46 43 40 39 38 36 32 29 24 21 23 27 29 30 33 36 39 42 43 40 38 40 39 39 44 46

GFSNGP_prec_cthk_003.txt.gz
RH
94 93 98 86 76 64 61 51 63 60 75 72 74 70 69 67 65 58 54 54 53 52 53 52 52 50 53 57 62 64 65 64 64 68 72 75 77 78 74 72 60 43 39 39
98 97 96 83 77 74 66 62 68 78 74 68 69 68 62 56 58 57 54 55 54 55 55 56 57 57 62 64 66 66 65 65 68 71 74 77 80 78 77 62 46 39 35 38
95 96 88 86 74 76 71 73 77 85 71 73 69 59 53 51 53 53 55 55 55 56 57 57 58 60 64 66 64 63 64 68 70 74 80 81 80 77 63 46 37 36 38 37
98 99 97 86 81 80 81 85 84 83 82 80 69 68 65 63 52 48 50 54 57 59 62 64 64 65 66 66 65 67 68 70 76 80 82 82 71 58 41 36 37 36 36 40
99 94 83 87 94 95 94 93 87 89 83 79 72 70 72 68 64 60 56 54 50 53 56 59 62 64 65 65 66 69 74 76 80 82 73 63 49 39 37 38 36 37 39 36
88 90 76 70 82 84 88 87 80 78 76 72 68 70 72 67 64 62 64 63 62 62 61 64 65 67 69 70 72 73 76 79 73 65 56 44 38 40 39 36 37 37 35 35
84 85 76 67 67 72 87 69 67 70 68 68 69 71 68 65 64 66 67 66 66 67 68 71 71 72 74 76 76 73 72 68 59 47 41 43 43 39 37 36 36 36 35 32
79 83 80 68 65 68 63 59 59 64 66 70 70 69 66 65 64 64 64 66 68 69 72 74 74 73 70 67 65 63 55 47 43 45 45 43 40 37 35 36 37 35 31 29
70 72 67 69 66 63 61 59 61 62 62 64 68 68 69 67 66 65 65 67 69 70 69 69 66 63 61 59 50 44 44 48 48 45 44 41 37 36 37 37 35 32 29 25
70 67 71 70 68 63 62 62 63 65 66 66 66 67 67 67 68 68 67 65 63 62 61 61 59 51 45 42 43 47 49 47 47 45 39 36 37 39 38 36 32 29 26 25
75 72 71 69 68 64 66 67 67 67 66 67 68 70 69 67 64 62 61 60 58 54 48 44 42 39 40 46 49 48 48 49 43 38 37 39 40 39 37 34 29 27 26 28
79 72 69 67 67 64 64 66 69 69 73 75 75 69 65 65 64 64 63 59 51 46 43 38 38 43 48 48 47 49 47 41 38 38 40 42 41 39 34 29 27 26 27 26
73 72 72 69 67 65 64 67 67 69 74 73 71 69 67 66 65 64 61 55 46 39 38 42 47 48 45 48 50 44 40 39 40 43 44 43 39 32 28 28 27 26 25 24
69 68 70 69 68 66 65 69 70 72 72 68 67 64 60 63 66 61 54 44 40 37 43 46 44 46 49 46 42 40 40 42 44 46 43 38 33 30 28 26 25 23 22 20
69 73 69 72 71 68 67 72 74 76 69 65 64 61 64 61 55 47 40 38 40 44 45 43 48 47 43 42 42 43 44 45 46 43 39 34 30 29 27 26 24 21 18 17
71 73 68 71 73 72 68 70 68 63 62 61 63 62 56 47 41 39 41 41 42 41 45 47 45 41 43 44 44 44 45 46 44 41 34 30 29 27 26 24 20 17 18 20
76 77 75 67 64 66 67 65 63 63 64 62 58 56 52 43 38 40 39 40 42 46 44 43 42 46 46 45 44 45 46 46 40 33 31 29 27 26 24 19 17 18 20 22
57 57 59 60 62 64 64 64 62 59 60 58 51 48 39 34 38 40 41 43 43 43 42 46 48 46 45 46 46 47 45 38 34 31 29 27 27 24 18 17 18 19 20 24
55 55 56 58 60 62 62 60 61 60 55 50 44 38 38 44 45 44 43 43 44 45 48 48 47 47 46 47 48 43 37 34 31 29 28 26 22 17 16 18 19 21 25 28
57 58 58 60 62 64 64 63 61 57 53 49 45 44 43 42 44 44 44 44 47 49 49 48 48 47 48 47 40 37 34 32 30 29 26 21 17 17 18 20 22 26 29 31
61 64 64 63 65 67 67 65 62 60 56 47 42 43 44 43 45 45 45 49 51 51 50 49 48 48 44 39 36 34 31 30 29 25 20 18 18 19 20 24 28 31 33 34
66 68 69 69 69 70 68 68 65 57 47 44 45 44 44 46 45 46 50 53 54 52 49 49 47 42 39 36 34 32 31 28 23 20 18 19 21 23 27 30 33 35 37 35
63 67 69 71 72 71 70 68 60 49 45 45 46 46 46 46 48 54 56 55 52 50 49 45 42 40 36 34 33 30 26 23 19 18 21 24 26 30 33 36 38 39 39 35
63 66 69 69 69 68 67 61 53 47 48 48 48 47 48 52 56 58 56 54 51 48 45 42 39 36 35 33 30 26 22 19 20 23 26 28 32 35 38 39 39 40 39 40
60 62 65 63 62 63 59 51 47 49 48 48 49 52 56 58 59 58 55 50 48 45 41 38 36 35 33 29 25 21 19 22 25 26 28 31 36 39 39 37 36 37 38 43
62 66 63 63 62 56 48 46 48 49 51 53 55 57 59 62 59 54 52 48 44 41 39 37 36 32 29 26 21 20 23 25 26 28 31 36 38 38 35 35 37 38 44 44
67 68 71 66 59 53 51 52 53 54 56 57 58 61 63 60 56 52 48 45 42 41 38 36 33 30 25 20 21 25 25 26 28 31 35 36 36 39 39 38 37 42 44 49

GFSNGP_prec_cthk_006.txt.gz
RH
96 93 98 98 97 83 82 71 71 46 58 60 65 75 83 75 72 74 70 68 66 66 66 65 62 60 57 56 56 58 59 60 63 67 68 68 71 73 77 81 80 78 66 51
97 98 96 90 85 80 71 65 66 64 65 64 77 79 82 76 72 72 70 68 68 67 64 61 60 59 57 54 54 56 61 65 68 69 69 71 76 78 82 83 80 64 48 38
94 96 89 81 73 74 72 71 66 74 68 75 86 88 83 76 73 72 70 68 65 63 59 58 57 56 55 55 58 61 66 68 67 69 73 76 79 82 83 76 62 45 37 36
96 98 98 92 85 78 70 73 71 66 76 79 79 78 74 65 65 65 64 64 63 59 59 59 59 60 59 60 63 65 65 69 73 76 78 79 82 81 71 59 42 37 37 34
98 98 89 88 93 82 79 77 75 75 73 74 76 76 69 63 58 59 61 63 62 64 66 65 63 62 62 64 66 70 74 76 76 77 81 81 77 69 53 39 39 36 35 40
94 96 80 78 91 88 85 91 74 74 73 76 75 76 71 67 61 59 59 61 61 60 58 59 62 66 69 71 73 74 76 77 80 80 76 72 60 42 40 40 35 38 40 38
86 84 78 69 74 79 82 73 70 71 69 73 75 74 70 68 70 67 66 68 69 69 69 71 72 73 74 74 76 77 76 76 73 69 61 46 42 43 38 37 40 40 37 34
81 83 73 66 70 74 65 61 67 72 71 69 67 67 69 71 72 72 75 76 75 76 76 77 78 80 80 79 78 74 70 67 58 48 44 44 42 39 39 40 39 36 33 31
75 71 68 65 64 61 57 58 59 64 69 67 64 68 72 77 78 77 76 75 75 75 77 79 79 78 77 70 66 63 51 46 45 45 44 43 40 39 39 38 36 34 31 29
71 66 69 70 67 62 61 60 61 61 63 62 66 71 76 80 78 74 73 75 77 78 77 76 72 66 60 52 46 44 44 46 45 45 42 40 39 39 39 37 35 32 30 29
73 70 70 72 72 66 64 64 64 65 67 68 70 73 75 74 75 75 75 75 74 70 64 60 52 47 45 42 44 46 46 45 46 42 39 39 41 41 40 36 31 31 29 26
77 73 72 72 71 69 69 69 70 70 72 74 75 75 76 76 74 71 69 68 67 63 55 50 44 40 42 47 47 44 46 45 40 39 41 43 44 42 36 32 30 28 26 25
76 74 74 73 72 71 70 71 70 71 75 78 82 82 73 69 69 70 69 66 62 55 46 40 40 45 47 45 43 47 42 40 41 43 46 45 42 36 32 31 28 26 24 21
73 72 74 76 75 73 70 70 71 73 75 75 73 71 68 65 65 64 65 61 52 45 40 42 45 45 42 45 44 41 42 43 45 47 46 42 35 31 30 28 26 23 18 16
70 71 71 70 71 73 73 71 71 74 74 73 70 69 67 65 64 61 53 45 41 41 43 43 42 41 45 43 42 44 44 46 47 47 42 34 31 30 28 26 23 19 16 16
68 69 71 73 74 77 76 71 71 77 76 70 66 64 64 61 53 48 45 42 41 40 39 40 43 44 42 44 44 45 47 47 47 41 34 31 30 28 26 23 19 16 17 18
75 76 77 73 74 78 77 72 71 69 66 63 64 63 60 57 48 41 41 40 38 40 43 44 44 43 46 45 46 46 47 46 40 34 32 30 28 26 23 18 17 17 18 20
74 75 74 72 68 64 67 68 66 64 63 63 65 59 51 42 35 39 40 42 45 44 44 44 45 47 46 46 46 46 45 39 34 32 30 29 26 22 18 17 17 19 20 23
58 58 59 60 62 64 66 67 68 66 64 60 52 49 40 36 40 44 45 44 44 45 44 47 48 48 47 47 46 44 38 34 32 30 29 25 20 17 16 17 20 22 25 27
58 59 59 61 63 63 63 64 63 64 60 58 52 42 42 46 43 45 46 45 44 46 49 50 50 48 47 47 42 37 34 31 30 28 23 20 17 17 20 23 25 27 30 31
62 61 60 64 67 67 67 68 68 67 63 55 47 44 42 45 48 45 45 46 48 51 52 51 49 48 47 41 37 33 31 30 27 23 19 18 19 22 25 26 29 32 33 33
65 66 67 69 71 71 73 75 73 69 62 52 48 43 45 47 45 46 48 50 53 55 52 50 49 45 40 36 33 32 30 27 23 19 20 22 24 26 28 31 33 34 34 35
69 72 72 74 75 76 78 76 72 67 58 51 45 47 49 47 49 50 52 56 56 52 51 48 44 40 36 34 33 30 27 22 20 21 24 26 27 28 32 34 34 32 32 34
67 68 71 72 72 75 75 73 70 65 55 51 50 48 48 50 50 53 59 56 53 51 47 43 39 37 36 34 31 26 21 21 22 24 25 26 28 32 34 34 33 32 34 38
64 64 65 67 69 69 68 68 64 54 48 47 49 51 51 51 57 60 57 54 50 46 43 40 38 37 34 31 25 21 21 23 24 24 25 28 31 32 35 36 35 35 37 43
61 62 67 67 66 64 62 58 49 47 48 49 51 53 56 60 60 60 55 51 47 44 41 40 37 35 31 25 22 22 23 23 23 24 27 30 31 33 36 38 36 36 40 47
66 64 68 68 66 63 57 50 47 49 53 55 57 59 60 60 60 58 53 49 45 43 40 37 34 30 24 22 23 23 23 23 25 27 29 31 32 35 37 35 36 39 43 54

GFSNGP_prec_cthk_009.txt.gz
RH
91 91 96 98 93 91 91 81 79 57 60 56 57 59 68 69 72 70 64 65 62 64 68 70 75 82 82 82 78 74 70 69 68 67 66 63 66 71 73 74 78 81 84 80
92 94 96 94 88 80 78 76 73 71 68 63 67 68 73 91 82 75 75 79 77 76 78 77 78 81 81 79 75 70 68 65 65 67 64 66 71 71 74 80 83 85 78 65
87 89 98 97 86 84 80 76 78 87 77 80 84 92 96 91 85 79 80 81 80 83 85 82 79 77 73 69 66 64 64 63 63 64 68 70 72 77 81 84 86 74 63 44
94 98 98 97 91 85 78 71 73 74 75 82 85 91 88 87 82 80 79 79 79 78 76 74 71 68 65 63 60 60 61 64 66 68 71 76 80 83 86 83 70 57 39 35
98 98 95 81 87 87 78 78 75 81 83 83 84 86 81 79 79 77 78 79 78 76 73 70 69 65 63 62 63 65 66 68 72 77 80 82 83 85 74 64 46 38 36 40
98 97 97 78 89 84 84 85 78 76 75 78 81 83 78 76 76 77 75 74 74 74 73 71 70 69 66 65 67 70 73 78 81 82 83 83 76 68 52 41 38 38 43 41
91 94 85 78 82 85 81 80 75 75 73 78 82 81 75 74 71 72 74 76 76 73 69 67 66 66 70 74 78 80 80 82 81 80 77 70 53 42 41 37 41 43 39 34
80 84 80 75 78 80 72 72 73 75 75 80 80 81 81 80 79 79 78 79 80 78 77 75 75 77 79 80 81 81 81 80 74 66 50 42 42 40 39 43 42 38 35 32
71 68 66 70 70 68 65 65 67 74 76 76 72 74 79 79 79 80 79 80 81 79 79 78 81 83 83 82 81 77 69 58 46 42 43 43 39 42 44 41 38 35 33 31
70 64 65 68 69 65 63 62 62 67 73 72 68 72 77 79 78 76 76 77 78 79 80 81 82 83 79 70 60 52 46 43 46 45 41 40 43 44 42 40 36 33 30 29
71 68 66 66 69 65 65 65 66 68 70 70 73 76 77 79 77 77 78 78 80 81 81 80 75 68 57 52 45 43 47 45 43 41 41 43 45 44 42 36 32 29 29 26
74 69 69 68 70 67 68 68 67 68 71 74 75 75 77 75 75 77 77 77 77 79 73 67 60 52 45 43 46 46 43 43 41 41 45 47 46 42 37 31 30 29 26 22
73 74 70 72 72 70 70 70 68 69 70 75 79 82 79 77 74 72 70 75 73 66 62 56 44 43 46 47 44 43 44 41 43 46 47 46 43 36 31 31 28 26 22 17
72 74 75 74 74 72 72 72 70 69 71 74 79 81 82 76 75 74 70 67 65 58 49 43 44 47 45 42 44 43 42 45 46 46 46 42 34 31 30 28 25 21 17 15
70 70 73 75 77 77 77 75 72 72 75 75 73 73 71 70 67 67 64 58 50 45 43 44 44 43 42 44 43 44 46 45 46 46 40 33 31 29 27 25 21 17 15 14
70 70 70 73 76 78 78 78 76 75 71 73 75 71 67 64 64 57 50 48 45 43 42 42 43 45 44 44 45 46 46 47 46 38 33 31 29 27 25 20 17 15 15 17
76 77 74 76 78 78 77 78 74 72 78 72 66 63 64 59 56 53 48 44 43 42 44 45 45 43 45 47 46 47 47 44 37 33 31 28 27 24 19 16 15 16 18 20
79 81 80 80 79 78 82 73 71 70 65 63 65 67 62 53 47 42 42 43 45 47 45 45 43 46 48 47 48 47 43 37 33 30 29 27 23 19 16 16 18 21 22 24
69 78 78 78 73 69 67 67 69 70 71 69 66 57 50 46 42 42 45 46 46 47 45 44 48 48 48 49 47 42 37 33 30 29 27 22 18 16 18 21 23 24 25 27
63 62 63 65 65 65 65 64 66 68 68 66 58 54 48 45 44 44 45 48 47 45 46 48 48 51 50 48 41 36 32 31 29 26 21 17 18 20 22 24 25 27 29 30
62 63 63 65 68 70 69 70 70 69 66 62 57 50 46 46 43 48 49 47 46 48 50 51 52 51 48 41 35 33 32 29 26 21 18 19 21 22 23 26 28 30 30 28
65 65 66 67 68 70 71 71 71 72 70 67 59 50 47 44 45 50 50 48 49 52 54 53 51 46 40 36 34 33 29 25 20 19 21 22 22 23 26 28 30 31 29 28
70 71 71 72 74 75 75 77 79 75 71 64 55 52 48 49 52 51 49 51 55 57 55 51 45 40 37 36 33 28 23 19 19 21 21 22 23 26 27 29 31 30 30 32
65 68 71 73 74 74 75 77 76 72 68 61 56 51 50 50 49 50 52 58 59 56 50 44 40 38 37 33 29 23 19 20 21 21 22 24 26 27 29 30 33 32 32 38
64 68 70 71 72 71 72 78 71 68 62 55 51 49 48 50 52 54 59 60 56 49 45 42 39 37 33 29 23 20 21 22 21 22 23 26 27 28 29 32 32 32 37 41
64 63 64 66 66 66 71 67 65 60 50 47 47 50 53 55 57 61 60 57 51 47 44 40 37 34 29 23 22 22 22 21 22 24 26 27 28 29 30 32 32 36 41 47
68 65 65 65 70 75 70 67 60 52 50 49 52 56 58 60 60 59 59 54 48 46 43 39 36 30 25 24 23 22 22 24 25 26 27 29 30 31 31 32 35 38 46 52

GFSNGP_prec_cthk_012.txt.gz
RH
81 82 87 92 90 92 87 74 80 53 68 61 72 64 58 51 51 53 62 63 56 54 59 64 66 72 78 84 89 92 87 81 73 69 70 70 71 73 74 74 78 86 80 81
89 88 89 95 92 85 85 80 73 73 76 74 81 75 68 69 79 76 68 62 58 58 64 68 76 78 81 89 96 91 90 79 71 78 74 72 72 73 76 78 87 81 86 85
87 82 85 93 94 87 86 79 79 84 75 82 93 96 96 94 83 76 69 65 62 64 67 77 85 88 92 94 95 93 86 76 82 75 70 71 73 76 78 84 86 89 83 68
93 90 95 92 87 86 82 81 80 80 78 86 89 93 90 85 81 76 78 75 72 73 80 86 90 92 95 94 93 87 84 78 72 70 69 73 77 78 85 90 89 77 65 53
98 98 85 87 89 92 88 83 81 80 80 83 88 91 86 90 90 92 92 90 89 92 94 94 94 93 91 87 82 76 71 69 69 71 75 77 83 89 91 84 70 61 42 38
96 97 94 87 83 88 88 81 81 82 81 82 84 82 86 86 86 86 88 87 85 86 85 83 80 77 75 73 72 72 73 73 74 78 84 89 90 86 74 67 48 36 41 41
89 91 83 82 81 85 81 77 74 77 76 74 77 78 81 80 81 85 85 85 83 81 79 77 77 77 76 76 75 76 79 83 85 88 88 85 76 69 49 37 40 42 42 38
78 78 80 74 77 77 75 73 74 80 84 80 79 77 78 82 84 85 84 82 81 77 76 74 74 74 76 80 83 85 85 86 86 84 77 64 47 39 39 41 43 41 38 35
69 65 63 69 72 72 72 73 75 75 78 79 82 82 83 82 84 85 86 86 87 86 84 82 82 85 88 88 89 88 86 80 69 55 45 42 40 40 42 43 42 38 36 34
69 65 68 67 69 68 67 68 69 77 80 76 72 78 82 83 82 83 85 86 84 84 84 84 85 87 88 89 83 71 61 52 46 43 43 38 41 44 44 42 38 35 34 30
69 66 67 66 69 70 68 69 72 76 75 72 73 76 79 82 82 82 82 83 85 87 87 88 89 88 82 70 60 53 47 45 44 39 39 43 44 46 42 38 34 31 29 26
67 67 67 66 70 72 70 71 72 73 74 77 80 80 81 80 80 82 84 87 88 88 87 86 81 71 61 54 46 46 45 42 37 41 43 46 45 42 38 32 30 28 25 22
68 69 71 70 71 73 71 72 70 71 75 77 80 81 85 83 82 83 84 83 83 84 80 70 65 58 46 46 47 44 39 39 42 45 48 45 42 36 31 30 28 25 21 17
69 72 75 74 75 75 73 72 72 72 74 78 80 84 86 83 80 79 79 79 74 68 66 61 51 46 46 44 41 39 41 43 47 46 45 41 34 31 29 27 24 20 17 15
72 74 73 76 77 79 77 77 77 76 76 79 80 79 81 78 77 73 69 65 62 57 50 46 46 44 43 42 41 42 44 47 46 45 40 34 31 28 27 24 20 16 14 14
70 72 72 72 76 79 80 80 79 79 78 79 77 73 73 69 65 63 61 56 51 48 46 44 45 45 42 41 43 47 46 46 46 39 34 31 28 26 23 19 16 16 17 19
73 73 73 74 74 77 79 78 79 79 73 74 76 69 64 64 63 57 54 51 48 45 46 47 45 42 42 45 47 46 48 46 39 35 31 28 26 22 18 16 17 19 20 21
76 78 77 76 75 77 79 80 83 77 78 72 67 67 66 61 54 51 48 46 46 46 45 46 43 43 46 47 48 50 45 39 34 31 29 25 21 17 17 18 20 21 22 23
74 82 83 82 82 80 81 81 72 70 70 70 68 66 60 54 50 49 46 46 44 46 47 44 44 47 48 51 50 44 38 34 31 29 25 19 16 18 19 20 21 23 25 26
67 74 79 82 81 76 72 69 66 66 66 67 68 62 55 50 49 45 45 45 49 48 46 46 48 50 52 50 44 38 34 32 29 24 19 17 19 20 20 21 23 25 27 26
64 65 67 69 69 67 67 68 69 69 72 71 64 56 53 50 47 46 45 48 49 48 48 49 53 54 50 44 38 35 33 30 25 19 18 20 20 20 21 23 24 26 27 26
65 66 66 67 69 70 70 71 70 72 73 69 67 61 54 50 49 49 48 52 51 49 51 55 55 49 44 39 36 33 30 25 20 20 20 20 20 21 23 24 25 28 28 28
72 70 70 70 70 70 71 74 75 75 77 74 68 60 53 52 50 51 52 50 49 52 57 56 49 44 41 37 34 31 25 21 21 21 20 20 22 24 25 25 27 29 29 31
68 72 73 75 75 75 75 75 77 79 74 68 66 58 54 51 50 51 49 50 53 59 57 51 46 43 38 36 33 26 24 23 22 21 21 23 24 25 26 27 28 30 31 36
60 64 70 72 75 75 74 73 74 77 71 66 60 53 52 50 50 50 53 55 59 58 53 49 45 41 39 34 27 25 24 23 22 22 23 25 26 26 28 29 30 31 36 39
64 64 67 69 73 72 70 70 76 73 67 61 53 49 47 49 53 57 57 58 57 55 51 47 42 38 32 27 26 25 23 22 22 24 26 27 28 29 30 30 31 37 39 44
67 69 71 69 69 68 67 74 75 68 64 55 53 51 53 56 59 58 58 57 56 52 48 44 39 32 28 26 25 24 23 24 25 27 28 30 30 31 31 30 34 38 44 50

GFSNGP_prec_cthk_015.txt.gz
RH
75 76 82 87 87 88 96 92 90 60 73 64 74 79 86 79 66 54 54 58 60 63 73 73 75 73 75 76 77 80 83 82 83 87 84 85 77 75 68 72 74 78 79 81
86 80 84 87 82 85 88 86 85 87 87 84 83 82 79 77 69 61 61 60 62 69 72 72 73 71 77 81 83 89 85 84 94 83 87 80 73 70 78 78 79 78 82 84
85 77 79 87 90 90 87 86 88 93 90 85 89 92 89 87 88 80 74 68 65 69 66 65 74 76 77 80 85 92 89 94 88 82 74 68 76 83 79 78 78 80 83 89
95 85 90 83 85 88 88 85 85 86 84 84 85 90 89 88 87 80 72 70 68 64 61 72 80 85 86 85 85 86 88 89 84 82 76 86 83 76 79 78 80 84 89 77
97 87 76 84 82 86 87 83 80 88 89 82 85 91 89 87 83 79 75 70 66 66 73 78 86 91 89 90 96 96 91 84 83 89 81 74 73 77 80 83 91 84 68 59
97 97 89 84 80 79 82 80 77 79 84 83 84 86 95 96 92 85 77 75 73 73 78 87 93 95 95 95 97 94 92 85 72 71 73 76 78 85 92 87 72 62 45 40
93 95 84 77 77 77 80 74 78 81 77 79 81 84 86 89 92 96 97 97 95 96 98 97 96 95 91 84 78 75 73 71 73 76 80 85 89 87 74 62 44 40 40 39
81 89 84 70 72 78 76 75 76 78 82 76 78 80 82 87 91 91 89 85 85 83 80 78 78 77 75 72 70 72 74 77 81 85 87 84 72 59 44 41 41 40 40 39
69 69 67 69 70 70 72 70 72 79 83 83 84 86 84 89 88 89 86 84 82 81 79 77 75 74 73 73 77 81 85 86 86 79 64 54 43 40 40 40 41 41 38 37
71 65 69 70 68 68 69 68 70 75 78 79 77 79 81 84 87 87 88 87 86 84 82 80 80 81 84 86 87 87 84 70 61 50 44 40 38 39 42 43 41 36 36 32
67 66 65 68 68 68 69 70 73 80 81 76 78 80 83 87 84 86 86 85 86 86 86 86 86 88 89 88 83 70 60 50 44 42 37 37 42 45 44 39 35 32 29 27
66 67 67 67 68 69 70 71 72 73 73 76 81 84 83 84 84 85 86 87 88 90 90 90 90 90 83 72 61 50 44 43 39 36 40 44 46 44 39 34 31 28 25 21
66 66 68 71 71 70 73 72 71 70 74 75 76 80 86 85 83 85 86 88 90 90 91 92 84 74 66 53 47 45 41 37 39 43 46 47 43 38 33 31 28 25 21 17
68 69 71 75 76 75 78 75 74 74 74 74 77 80 84 88 87 87 87 87 88 89 82 73 66 54 48 45 43 41 39 41 43 48 47 43 37 33 30 27 24 20 16 14
69 70 73 76 80 80 80 78 78 79 79 79 79 80 81 85 86 85 85 81 72 69 64 51 46 46 45 45 40 40 41 46 48 46 42 37 33 30 27 23 19 15 15 17
71 72 74 77 79 82 82 82 83 82 82 80 78 79 78 82 76 70 69 67 60 51 49 48 47 47 44 40 41 43 47 48 46 41 36 33 30 27 22 18 15 16 18 20
77 77 75 77 78 79 81 82 82 82 80 81 77 75 73 69 67 66 59 53 52 49 49 49 45 42 41 42 44 48 48 47 41 36 32 30 26 22 18 17 18 18 20 23
80 79 78 77 77 76 79 82 83 82 82 78 77 71 68 69 64 56 53 50 49 49 47 44 44 43 43 46 47 49 47 41 36 33 31 27 22 19 19 19 20 21 23 23
73 81 84 85 84 81 81 84 84 80 76 72 68 70 67 62 56 52 50 49 48 45 46 47 45 45 46 49 51 46 41 36 34 31 27 22 20 20 20 20 21 23 24 24
72 79 87 87 85 83 85 85 84 72 74 72 70 66 65 59 52 51 49 48 46 48 49 47 47 47 51 52 47 41 37 35 31 28 23 22 21 21 20 20 23 24 24 24
69 73 79 85 88 86 79 76 73 70 70 69 71 68 60 55 53 50 49 48 48 47 50 49 48 52 53 47 42 39 36 33 30 25 23 22 21 20 20 22 24 24 24 25
72 72 72 74 76 77 76 76 73 71 72 75 73 67 61 57 54 51 50 50 50 52 49 48 53 54 49 44 41 38 36 31 25 23 22 20 20 21 22 24 24 24 26 26
77 76 74 73 74 75 75 71 70 73 75 77 74 70 65 58 53 52 51 52 52 50 49 52 55 51 47 43 39 35 29 24 23 22 20 20 21 22 24 25 25 26 28 27
71 76 78 77 77 77 76 75 75 77 79 78 75 70 63 57 54 53 53 51 50 51 53 55 53 49 45 40 36 29 25 23 22 21 21 22 24 25 26 27 28 29 29 32
65 67 67 70 73 76 78 78 79 78 76 75 74 68 60 52 49 49 49 49 54 54 54 53 51 46 42 38 30 26 24 22 21 22 24 25 26 28 29 30 31 30 33 36
67 67 69 70 69 71 75 76 75 75 77 78 70 63 55 50 47 49 52 56 55 55 54 53 49 44 39 31 27 24 23 22 22 24 24 26 28 29 31 32 31 33 36 40
67 68 71 74 75 73 72 72 70 70 82 73 64 58 53 50 53 55 57 56 57 55 55 52 47 40 33 28 26 24 22 23 23 24 26 28 30 31 32 31 33 35 38 45

GFSNGP_prec_cthk_021.txt.gz
RH
63 65 70 71 75 78 82 80 89 68 77 73 81 87 87 78 79 80 78 74 81 72 66 61 56 51 61 72 75 72 80 95 85 80 79 79 88 85 84 89 92 88 86 81
77 73 78 85 81 80 82 83 85 84 82 81 87 90 89 73 76 78 76 71 70 67 64 71 70 75 87 89 97 98 94 98 78 76 81 85 81 87 93 90 85 84 85 82
88 81 83 89 83 82 84 86 85 90 82 83 86 92 94 78 78 78 74 73 71 70 68 77 80 88 98 93 95 92 87 82 78 80 81 95 84 93 94 90 84 84 88 86
95 88 89 82 79 82 84 82 83 82 78 81 83 95 96 80 72 74 70 66 70 69 73 82 94 98 99 97 98 93 85 84 87 87 97 91 90 95 97 92 95 94 92 90
96 96 81 79 83 85 82 77 76 75 77 82 80 92 96 85 72 70 69 70 73 75 82 89 95 97 97 95 92 96 94 86 88 88 88 97 98 98 96 95 94 88 85 85
92 97 92 78 79 78 79 82 72 73 76 79 81 90 94 94 76 71 70 73 75 79 85 87 87 89 88 94 98 97 91 97 98 98 99 97 96 96 87 82 83 85 84 73
89 94 82 74 76 78 85 71 71 72 74 77 81 87 93 97 95 87 83 77 75 80 83 89 94 94 92 92 93 91 93 98 97 97 97 93 89 81 82 88 80 61 46 38
86 89 83 69 72 76 70 68 69 70 73 80 80 83 87 93 94 97 97 94 93 91 96 97 97 98 98 99 96 96 97 96 94 90 83 82 86 84 67 50 41 39 34 33
75 71 66 67 68 69 68 66 67 69 73 78 79 82 85 84 89 91 93 96 97 97 96 95 96 96 96 96 94 91 82 80 82 85 86 77 58 43 38 37 34 34 37 39
76 66 70 69 70 70 66 65 65 70 73 78 79 80 82 83 83 86 88 90 92 92 92 91 90 86 85 84 81 83 87 84 76 65 51 41 38 36 34 34 38 40 38 33
77 73 71 71 69 66 67 67 68 72 76 79 80 80 84 86 84 83 86 88 89 87 86 88 87 86 89 90 87 83 75 62 48 42 38 36 35 36 40 41 39 35 32 28
78 77 76 74 70 68 69 70 70 73 78 77 74 79 82 86 90 87 88 88 87 88 89 90 89 89 90 85 76 64 50 45 40 37 35 37 41 42 40 37 33 30 27 22
73 72 70 69 68 70 73 72 73 76 75 74 77 81 81 84 89 87 88 88 90 93 91 93 93 92 81 70 55 48 43 37 36 39 41 43 42 39 35 32 29 26 23 22
76 74 74 74 73 73 74 76 76 79 80 79 79 80 81 83 86 90 90 88 93 90 89 89 85 74 59 49 46 40 38 40 41 43 45 41 37 35 32 29 25 22 22 23
80 79 78 76 75 75 74 81 82 84 81 82 83 83 81 82 86 90 91 94 92 90 87 80 65 52 49 46 42 40 41 42 44 45 41 38 35 32 30 25 23 23 23 22
82 82 79 77 76 75 76 81 83 88 83 85 86 84 84 85 86 90 91 91 88 80 69 57 51 48 46 42 42 43 42 46 45 42 39 36 33 30 26 24 23 22 21 21
82 82 81 79 77 76 77 80 84 91 90 94 88 85 86 88 85 83 82 76 70 62 54 50 49 46 43 44 44 44 47 45 43 39 36 34 31 26 23 23 21 20 19 20
83 83 87 87 85 83 82 82 82 88 95 89 86 87 88 85 80 75 72 68 59 52 50 49 46 45 46 46 45 48 46 44 40 37 35 31 26 23 23 20 18 17 18 20
86 83 84 84 86 87 87 85 83 86 89 92 88 84 83 78 73 71 63 54 51 48 48 48 47 46 46 46 47 48 46 43 40 36 32 27 25 22 19 17 17 18 20 21
91 90 89 89 88 91 91 91 86 87 95 90 83 80 78 78 73 63 54 52 50 49 49 49 48 47 47 47 47 48 46 42 37 34 28 25 21 18 16 17 19 20 22 23
94 93 88 91 95 97 96 92 89 93 96 87 81 77 75 73 69 59 55 52 51 50 50 49 49 50 47 46 48 48 44 39 34 29 25 20 18 18 18 19 21 22 23 24
95 88 86 90 96 97 97 95 95 97 91 85 81 78 78 79 69 61 59 56 52 51 51 50 50 47 46 47 49 47 41 36 30 25 21 19 19 18 19 20 21 23 24 25
87 90 88 88 88 90 93 95 95 93 90 84 81 80 81 75 68 65 60 55 53 54 52 51 51 48 48 50 50 44 38 32 27 23 21 19 18 19 19 20 22 24 25 25
73 73 78 85 86 87 88 89 89 89 89 82 80 82 81 76 74 67 60 55 52 50 51 50 50 49 51 52 49 41 36 30 26 23 21 19 20 20 20 21 23 25 25 28
69 70 71 73 75 78 80 83 84 86 85 85 81 82 84 84 75 67 62 55 50 50 52 52 51 52 54 53 45 40 34 29 26 22 20 20 20 20 20 23 25 25 27 29
69 68 68 70 72 73 76 78 81 81 78 81 86 83 88 90 75 66 61 56 52 54 57 54 53 55 55 50 43 37 32 27 24 21 20 19 19 19 19 22 24 25 28 34
65 65 68 71 73 72 72 74 75 78 79 76 78 82 85 92 78 69 62 58 57 59 59 56 56 57 54 48 40 36 29 26 23 21 22 23 23 23 24 27 27 28 33 40

GFSNGP_prec_cthk_024.txt.gz
RH
64 63 67 69 71 75 79 73 80 67 72 66 69 72 77 82 69 65 70 69 66 65 73 86 84 70 60 54 49 50 51 75 69 68 82 86 93 88 79 78 81 82 84 99
69 67 71 77 77 79 77 75 75 72 72 69 74 78 81 80 70 68 71 67 66 65 66 65 65 66 66 63 61 61 69 81 83 82 93 88 95 82 77 82 84 91 96 86
77 76 81 84 80 80 77 77 78 83 72 72 76 77 83 84 70 70 70 68 69 70 74 75 79 81 83 82 72 69 76 83 85 88 90 92 82 84 85 89 97 92 94 96
89 86 88 78 76 79 78 76 77 76 73 73 76 80 86 87 73 68 68 68 68 69 75 83 89 95 97 98 93 88 95 98 98 98 93 88 90 95 95 95 93 93 97 97
90 92 81 76 81 83 82 75 71 74 73 71 75 80 88 91 84 73 71 71 75 79 92 94 97 98 98 98 98 98 98 98 97 94 90 90 96 93 98 96 98 97 98 99
92 95 93 79 81 78 79 86 69 71 72 74 76 80 86 89 90 83 76 74 78 82 85 86 91 94 95 93 92 94 90 90 92 97 95 98 98 97 97 97 98 96 91 87
90 91 83 74 78 80 84 73 69 69 71 73 78 81 85 87 87 90 87 88 83 89 92 91 92 90 95 96 98 98 98 99 98 97 96 98 98 98 96 90 86 79 63 44
94 87 88 74 78 79 72 70 68 69 70 75 79 81 85 85 86 88 91 94 95 95 97 97 95 95 96 98 96 93 94 98 98 98 97 93 88 84 82 67 44 38 36 33
82 75 66 69 69 68 71 68 67 67 70 75 80 80 83 87 86 88 89 90 92 96 96 95 97 97 97 98 97 95 93 87 82 82 82 80 63 46 38 36 35 34 37 38
84 71 70 70 70 70 70 67 68 68 72 76 80 82 83 87 86 88 91 91 91 92 93 93 93 93 95 93 89 84 82 77 70 60 49 41 38 36 35 37 38 37 35 32
82 76 73 73 70 69 67 67 68 71 75 79 83 81 80 86 87 88 89 91 92 93 93 91 89 86 87 84 79 73 62 53 48 43 38 36 37 38 39 38 35 33 31 29
73 73 74 74 75 71 68 68 69 71 76 80 79 78 80 83 87 88 86 87 87 90 87 85 85 89 85 75 63 52 48 43 38 36 38 39 40 39 37 35 32 30 28 25
73 74 71 71 74 71 67 71 73 72 75 78 78 80 81 81 85 88 88 86 90 90 90 88 89 83 70 55 49 46 41 37 38 39 40 41 40 37 35 33 31 28 24 23
79 77 77 76 74 73 72 73 76 74 77 82 81 81 80 81 84 86 89 87 92 89 91 91 82 67 54 49 44 40 39 40 41 42 43 40 38 36 33 30 27 24 23 22
85 83 80 79 77 77 75 76 75 78 81 84 84 84 82 83 85 86 87 89 92 90 87 76 64 53 48 44 42 41 42 43 44 44 41 38 36 33 31 28 24 23 22 20
82 84 84 81 80 80 77 76 76 79 84 91 88 85 85 85 83 85 88 95 92 87 74 62 53 48 45 43 43 44 44 46 44 42 39 37 35 33 29 25 24 21 17 15
79 77 80 82 82 81 79 77 77 79 88 91 91 94 89 86 85 86 89 87 80 71 64 54 49 46 44 44 45 45 46 46 43 42 40 38 35 30 26 23 18 16 14 15
89 86 83 84 85 84 82 80 79 81 90 96 97 91 88 87 86 84 79 74 70 63 54 49 47 46 46 46 46 47 47 45 44 43 40 36 30 27 22 17 14 14 15 17
90 90 86 84 87 87 86 88 86 85 90 97 92 87 88 87 83 78 73 68 59 54 51 48 47 47 48 47 48 48 45 46 46 41 37 31 27 21 17 15 16 17 18 19
93 93 90 89 89 87 88 90 91 90 92 95 92 87 87 82 81 78 71 59 55 54 50 48 48 49 50 50 49 44 46 47 44 38 33 28 23 19 18 17 18 18 19 20
98 96 93 94 93 93 96 94 93 92 93 97 94 87 85 83 80 74 62 57 56 53 51 50 50 50 51 51 45 45 49 47 41 35 31 26 23 21 20 18 18 18 19 22
91 94 90 91 93 97 98 98 97 96 97 99 93 90 85 82 84 74 65 60 58 56 53 52 53 51 52 51 46 48 50 45 39 35 31 27 23 21 19 18 17 18 20 21
77 85 88 89 92 95 97 98 98 97 98 98 94 90 83 83 79 69 65 65 59 56 55 54 54 53 52 49 48 51 48 43 39 34 30 26 22 20 18 18 18 19 21 21
73 73 74 77 82 86 88 93 96 97 98 97 94 93 84 86 79 73 73 65 59 56 54 52 51 52 50 50 52 51 48 44 37 32 27 24 21 20 19 18 18 21 23 23
72 72 70 71 73 76 81 83 85 89 90 93 93 87 82 88 83 77 74 66 61 58 55 53 53 54 52 53 52 50 47 41 35 30 25 23 20 19 18 17 18 21 24 24
60 63 68 69 69 71 73 76 78 80 82 85 88 87 85 89 94 85 75 66 63 59 56 55 57 55 55 53 52 51 46 39 36 30 26 25 24 23 22 22 23 26 26 29
46 52 57 61 62 65 69 73 76 78 77 78 76 80 86 90 98 93 78 73 65 61 59 59 58 57 56 53 54 50 42 38 36 30 28 27 25 24 24 24 28 31 33 36

GFSNGP_prec_cthk_027.txt.gz
RH
60 59 60 61 63 67 73 73 80 64 66 62 63 65 69 74 75 63 55 56 58 56 57 58 58 59 77 83 79 73 66 58 52 49 55 66 66 64 66 74 86 97 87 86
64 57 61 68 65 70 74 77 74 73 71 63 65 71 72 76 74 63 59 58 59 55 59 64 73 66 69 72 69 65 54 55 55 51 57 61 64 69 76 78 84 97 89 88
67 66 73 80 74 75 77 73 72 76 68 69 71 70 73 76 77 69 63 64 65 61 64 71 79 83 88 92 85 71 59 53 55 56 64 71 77 80 84 83 86 88 93 82
72 78 87 73 75 77 78 74 73 72 70 71 71 71 76 78 78 74 66 67 71 76 78 86 93 92 96 96 83 77 64 64 71 80 84 94 95 95 88 88 97 95 91 92
79 88 81 74 79 83 82 76 74 72 73 73 72 74 78 77 80 79 77 72 74 78 80 85 91 95 97 96 87 75 80 88 90 97 95 99 97 98 96 94 96 96 98 98
89 91 93 78 82 80 79 85 76 73 72 72 73 77 78 76 77 79 81 84 83 86 87 86 88 93 97 95 94 95 95 98 98 98 97 98 99 92 96 95 99 98 98 99
89 89 80 74 76 83 87 80 74 70 70 70 74 77 79 79 78 78 79 84 87 87 86 88 87 89 95 97 97 96 94 94 95 97 97 96 95 98 96 98 97 97 92 76
88 93 84 74 82 87 80 74 72 68 69 70 72 77 81 82 79 79 81 82 84 87 91 90 91 92 95 95 94 96 98 98 98 98 98 98 98 97 94 85 66 49 40 36
81 81 70 73 78 76 72 71 68 67 68 71 74 78 83 84 83 84 84 85 86 88 89 89 89 93 94 92 95 93 92 92 93 90 86 78 65 49 40 37 36 36 36 36
83 79 79 75 74 72 70 68 67 67 68 72 76 81 84 85 87 88 89 88 89 90 89 90 90 88 88 86 84 80 73 68 61 53 45 40 37 36 37 38 38 36 34 31
78 78 79 77 72 70 70 69 66 66 68 75 79 84 83 84 88 92 89 89 92 92 90 89 89 86 82 76 66 57 53 49 45 40 37 38 39 39 39 37 34 32 30 29
72 73 75 74 75 74 71 70 68 69 68 75 81 81 81 84 87 92 92 91 92 91 88 84 86 84 77 61 52 50 46 42 39 39 40 40 41 39 35 33 31 29 28 25
74 76 73 74 74 72 72 72 68 69 72 74 78 81 83 83 85 88 91 90 91 90 89 86 87 79 59 51 48 44 42 40 40 40 41 41 38 34 32 31 30 28 24 22
77 79 77 73 75 74 73 73 70 71 76 76 79 84 85 85 84 87 87 89 94 91 90 89 81 64 54 48 44 43 41 41 41 42 41 38 35 33 33 31 29 25 22 19
78 80 77 77 76 78 76 75 73 74 75 77 81 84 87 88 87 88 86 89 94 92 93 85 69 57 50 45 43 42 42 42 43 43 40 37 36 35 32 29 25 21 18 14
77 72 75 80 78 79 79 78 77 76 75 78 83 86 90 89 87 85 84 86 93 93 89 74 59 52 46 44 43 44 44 45 45 42 40 38 36 32 29 25 22 17 14 13
73 72 73 76 80 82 82 81 79 78 77 81 87 92 93 92 92 86 88 94 94 87 76 65 56 48 45 44 45 45 46 46 43 41 40 37 34 30 26 23 19 16 16 16
74 84 88 86 81 85 87 85 82 79 78 82 87 91 96 94 89 90 89 89 82 73 68 59 50 47 45 46 46 47 46 44 42 42 40 37 32 28 24 21 19 19 18 16
90 90 89 91 87 86 87 85 84 84 82 85 92 96 96 91 89 89 89 81 72 66 58 52 48 47 47 47 48 48 45 41 42 42 40 35 32 28 25 23 21 20 18 17
91 93 93 93 91 90 88 87 87 86 89 92 96 96 92 90 85 84 81 75 69 61 54 51 49 49 49 49 49 48 43 42 43 43 39 36 32 29 26 23 21 18 17 17
95 97 97 99 98 96 95 91 89 89 89 93 96 97 91 88 82 82 79 71 61 57 55 52 52 51 51 51 50 48 47 44 45 43 40 37 33 28 24 21 19 17 16 16
87 94 95 94 95 95 95 96 96 98 96 96 97 98 91 86 84 82 77 70 63 60 57 55 53 53 54 53 50 48 46 46 46 44 42 37 32 27 23 21 18 17 16 17
78 78 81 87 90 92 96 98 98 98 98 98 98 97 90 89 83 87 76 68 64 63 59 56 55 55 54 53 49 48 48 48 47 45 41 36 32 27 25 22 19 18 17 18
76 75 76 75 76 83 87 92 97 98 98 98 98 97 97 87 84 85 77 71 71 66 61 58 56 55 55 54 52 51 50 49 48 45 40 37 34 30 26 22 18 16 17 20
62 66 69 70 73 75 77 83 85 89 94 97 97 98 98 89 90 87 77 74 72 67 62 59 57 56 57 56 54 53 51 51 49 44 40 37 36 33 29 25 21 19 20 24
46 48 51 55 59 64 70 73 77 82 84 88 94 96 97 92 95 92 88 82 76 71 65 62 62 59 59 57 57 53 53 53 48 43 40 37 36 33 29 26 24 24 26 32
30 32 35 39 44 50 58 62 64 68 74 80 83 87 88 82 88 97 96 90 81 74 69 65 66 62 61 60 57 55 56 52 47 43 41 39 38 34 31 29 29 32 37 42

GFSNGP_prec_cthk_030.txt.gz
RH
58 58 60 59 59 60 63 64 74 66 69 62 59 60 58 61 62 64 63 55 54 53 53 52 56 57 59 66 70 79 82 85 88 82 79 73 66 60 60 65 66 67 71 74
65 58 60 63 61 65 69 72 74 71 69 61 61 60 62 63 68 69 67 62 59 61 62 60 63 68 69 73 80 85 93 89 86 82 73 66 66 68 76 78 76 75 79 79
67 62 63 69 67 68 71 73 71 75 63 61 63 64 63 70 71 72 70 64 64 67 68 69 74 78 79 85 84 79 85 78 70 62 58 61 60 69 82 81 79 77 85 83
70 64 75 66 74 75 80 76 72 68 65 65 67 68 69 72 69 71 74 75 71 73 76 74 74 81 85 88 83 74 74 68 63 60 60 65 66 72 74 81 93 84 85 84
70 71 70 70 79 82 84 78 73 70 69 69 71 71 73 73 70 70 74 76 79 78 78 80 78 82 87 86 83 78 82 79 74 72 69 74 78 81 83 92 90 93 96 91
75 77 84 76 83 82 84 84 77 76 72 70 70 75 75 76 73 71 73 76 75 77 78 79 81 83 89 90 88 88 90 90 93 93 93 95 96 98 98 98 95 95 98 98
74 76 77 71 79 85 91 82 79 77 70 69 72 72 76 79 76 74 74 75 77 77 81 81 81 85 85 89 91 89 92 95 97 98 98 98 98 98 96 97 99 98 97 94
72 78 85 68 81 89 86 81 81 74 69 68 70 72 76 81 77 78 77 78 77 79 82 84 85 88 88 90 92 95 96 97 97 98 98 98 98 97 97 91 75 59 50 42
68 67 67 74 79 84 84 84 80 71 69 69 71 73 78 83 82 80 80 81 80 81 82 83 83 84 85 86 85 85 85 83 80 74 66 58 51 43 39 38 37 37 38 37
70 69 73 77 79 77 82 79 75 70 71 70 74 75 79 84 84 84 84 84 85 85 86 84 83 81 78 72 67 61 56 52 48 45 40 38 38 39 40 40 39 36 33 31
69 71 73 77 80 80 76 74 73 71 70 70 73 77 80 85 84 88 89 86 87 87 87 86 85 80 74 59 54 52 48 43 41 39 39 40 41 41 39 36 33 32 31 30
70 68 72 74 75 80 78 75 74 72 70 72 71 76 81 83 85 88 88 88 91 90 89 84 83 80 65 53 49 47 44 41 40 41 41 42 41 38 35 33 32 31 28 24
70 70 68 70 74 75 74 72 71 72 71 72 71 73 79 83 86 88 89 90 90 89 89 86 87 78 59 51 47 45 43 42 42 43 44 43 39 35 34 33 31 28 24 20
70 69 72 75 75 73 75 75 73 75 73 72 73 77 81 84 87 88 87 87 87 90 90 89 88 71 56 49 46 44 43 43 43 44 43 40 37 36 34 31 28 23 20 17
72 73 73 71 70 71 74 78 78 78 77 73 73 77 81 83 87 88 87 85 89 89 90 93 86 64 55 48 46 43 44 44 44 44 43 40 38 36 33 29 24 21 19 17
68 68 66 65 67 70 73 74 78 80 79 75 75 77 79 84 87 87 87 85 90 91 92 92 79 63 54 47 45 44 45 46 46 44 42 40 38 36 32 27 24 21 19 18
66 60 63 68 69 70 76 78 81 84 81 78 78 80 84 87 91 90 89 86 90 94 94 88 70 62 51 47 45 46 46 47 46 43 42 41 39 35 30 27 25 23 21 20
72 74 72 78 82 83 76 83 86 88 86 83 81 85 87 88 91 91 88 88 95 92 85 75 66 56 49 47 46 47 48 47 45 41 41 42 39 34 31 28 26 23 21 19
83 82 82 85 87 89 87 86 90 90 88 85 83 86 86 90 95 92 89 89 91 85 75 69 61 52 49 47 48 49 49 47 45 44 43 42 39 35 32 29 26 23 21 20
86 90 93 93 93 95 94 92 89 88 87 87 87 92 94 95 94 92 90 89 91 81 72 66 57 52 51 50 50 51 50 48 47 46 44 43 40 37 34 30 27 24 23 21
90 97 98 99 98 99 99 98 96 92 90 87 87 94 99 98 94 92 89 86 81 75 69 63 57 55 53 52 53 54 51 48 47 45 46 44 42 38 34 31 29 27 25 22
83 86 90 92 94 95 96 94 93 90 90 89 90 96 99 97 95 91 87 85 81 73 66 63 60 58 56 56 57 56 51 49 48 46 48 46 42 38 35 32 30 27 26 21
81 81 81 82 82 83 87 90 92 94 96 98 99 99 99 98 96 90 87 85 78 72 69 65 61 59 56 56 56 54 52 51 48 48 50 47 42 39 35 33 30 27 23 19
72 72 73 73 75 79 80 82 89 93 96 98 98 98 98 98 94 90 92 85 78 76 71 69 63 58 57 57 57 55 54 52 49 52 51 46 43 40 37 36 32 30 25 21
54 54 56 57 57 63 68 74 76 82 89 94 96 98 98 98 98 95 92 86 78 75 75 71 64 60 59 60 59 56 56 52 51 54 51 46 44 40 39 36 34 28 24 23
42 38 37 37 39 42 48 54 63 71 75 80 89 94 97 98 97 96 98 92 85 79 77 72 67 64 65 65 60 58 56 54 57 55 48 46 43 43 42 39 36 32 31 33
29 26 24 23 25 28 32 37 44 54 64 70 72 78 87 92 94 96 98 98 93 87 82 77 71 67 66 66 63 62 60 60 60 53 46 47 46 48 48 46 43 42 42 44

GFSNGP_prec_cthk_033.txt.gz
RH
55 53 59 59 59 59 58 55 60 55 61 59 61 61 58 58 59 60 61 59 53 52 52 54 55 54 56 59 61 62 61 62 69 83 85 81 75 84 86 82 77 71 66 67
61 58 61 62 58 58 58 60 64 68 70 66 62 59 60 60 62 60 61 61 60 56 59 59 58 61 65 69 71 68 63 65 67 75 78 80 80 85 84 82 79 75 75 74
66 60 62 63 57 58 62 65 68 79 70 64 62 63 62 62 62 59 61 62 63 65 64 64 65 64 69 72 70 61 61 63 60 59 64 66 67 71 77 83 84 85 84 83
68 64 70 54 67 71 74 74 76 73 69 65 63 63 63 64 64 60 61 64 65 66 68 68 69 70 71 73 69 64 62 66 62 56 55 58 61 65 69 76 87 94 97 89
70 70 59 60 72 78 81 82 79 76 70 67 66 64 66 70 66 64 64 64 64 65 66 70 70 72 74 72 75 73 77 76 75 77 76 68 72 71 69 77 80 89 96 98
71 71 73 63 77 81 83 90 82 78 74 70 65 67 66 71 70 69 68 66 66 67 67 71 72 73 75 75 76 76 82 87 86 89 94 95 97 98 90 90 93 96 92 98
72 71 62 60 80 82 95 88 84 80 76 69 67 67 69 73 74 71 70 70 68 70 71 72 76 77 77 81 81 81 81 85 89 93 94 95 97 97 97 98 98 98 98 98
70 75 69 57 73 86 89 85 85 81 77 70 66 69 72 76 77 74 73 73 73 74 75 76 77 79 81 82 81 79 79 81 84 86 86 88 91 95 93 84 69 56 48 45
66 65 59 61 75 79 84 86 85 82 77 71 67 70 74 79 79 77 77 78 77 78 78 79 78 77 75 69 66 60 57 56 54 52 48 42 39 39 39 39 39 38 37 35
69 62 66 69 71 80 80 84 85 83 79 72 69 71 74 81 82 80 81 82 81 82 82 81 78 75 67 58 55 50 46 43 40 38 38 39 40 40 39 37 35 33 32 31
72 69 70 71 74 78 82 81 80 79 75 70 70 70 75 79 83 82 85 84 83 85 84 84 81 75 64 54 49 46 43 40 39 40 40 41 41 38 36 33 32 32 31 28
73 70 71 70 70 74 76 80 80 75 71 70 70 70 74 78 84 85 86 87 85 86 88 85 83 77 64 54 47 45 42 41 41 42 43 42 39 36 34 34 33 31 27 24
71 71 70 67 69 69 75 75 75 74 72 72 71 71 74 76 81 86 87 89 88 90 86 86 87 80 65 55 46 44 42 43 42 43 44 42 39 37 36 34 31 28 24 21
72 71 69 68 70 71 70 72 74 76 73 73 75 73 75 77 81 84 88 92 90 88 87 88 89 84 65 55 46 44 43 44 44 45 44 42 39 37 35 33 29 26 24 22
72 72 70 70 69 67 64 66 71 74 76 76 78 76 76 77 81 84 85 89 90 88 87 88 90 85 66 56 47 44 44 44 45 45 43 41 39 38 36 32 29 27 25 23
72 68 66 64 62 64 64 64 69 70 73 77 80 80 77 78 80 82 83 89 89 90 91 89 93 83 67 58 47 45 45 45 46 44 43 40 39 39 36 33 31 28 26 24
71 67 63 68 66 67 69 66 70 74 74 77 79 81 81 81 82 82 86 91 90 92 93 92 95 82 67 58 47 46 46 46 46 45 43 41 40 40 38 35 33 30 27 25
71 74 75 73 71 72 76 79 73 75 81 85 86 85 84 86 86 86 89 91 90 93 96 97 92 75 66 56 47 48 48 48 47 47 46 45 42 41 41 38 36 32 29 27
79 79 81 80 79 79 78 83 83 83 89 89 89 87 86 89 89 88 89 92 92 97 98 92 81 69 64 52 48 51 51 52 50 49 47 45 42 44 43 40 36 33 31 29
83 86 90 92 92 91 91 95 96 95 92 91 90 89 87 90 90 90 92 93 93 96 93 88 77 69 61 53 52 55 54 54 53 50 48 44 45 48 44 40 36 33 32 29
83 88 94 97 98 97 97 99 98 97 95 94 93 91 90 92 96 98 95 94 95 94 89 79 74 69 61 56 58 56 57 57 54 51 48 47 50 49 44 40 36 34 31 27
82 84 85 87 88 88 91 94 94 94 92 91 90 89 89 95 98 98 98 97 95 94 85 79 70 65 60 63 59 58 57 55 52 51 49 50 52 48 43 40 37 35 30 27
79 79 78 77 77 78 82 84 89 92 94 95 97 97 98 99 99 99 98 94 94 91 85 75 72 68 66 64 61 58 58 55 54 52 51 52 52 47 43 40 38 36 31 29
72 69 66 66 67 67 68 71 76 81 90 96 96 98 98 98 98 98 96 96 96 89 82 79 75 70 68 63 59 58 58 55 55 53 54 56 53 46 43 41 41 37 33 30
59 55 51 47 44 43 46 50 55 63 73 82 89 95 97 98 98 98 98 98 97 90 83 81 76 76 69 63 62 62 61 58 56 57 59 59 53 46 45 45 44 42 40 37
50 45 41 36 32 29 29 31 34 40 49 57 68 80 88 93 95 97 98 98 97 93 88 81 78 76 71 66 66 66 64 62 59 61 62 60 52 48 48 48 48 47 45 44
42 37 30 25 20 17 16 16 19 26 33 40 51 60 67 80 85 91 95 96 98 97 91 87 82 78 76 72 69 67 65 63 65 64 63 60 53 51 50 48 49 49 50 52

GFSNGP_prec_cthk_036.txt.gz
RH
54 52 57 59 56 54 56 47 47 39 39 39 48 59 60 59 56 55 52 52 54 54 53 54 55 54 52 54 57 60 59 54 51 51 49 51 55 62 67 69 76 78 73 80
58 53 53 57 53 52 52 50 47 46 49 50 61 63 60 57 57 56 53 54 58 59 61 61 59 58 59 59 60 61 52 51 54 54 51 55 57 59 64 70 76 79 86 88
59 55 56 54 48 47 48 49 51 56 56 62 65 64 59 59 61 59 56 56 57 58 57 60 61 61 62 62 62 58 52 54 56 55 55 51 55 55 57 69 77 82 84 84
66 60 62 44 52 54 55 53 55 58 64 68 67 64 61 62 64 61 58 57 57 55 56 57 60 61 62 63 64 64 61 61 58 56 55 59 58 57 58 60 71 79 89 89
67 59 48 46 58 65 70 72 67 71 73 72 67 65 63 65 66 63 62 59 57 55 56 58 60 62 64 66 69 68 69 70 67 66 72 71 70 71 73 70 70 82 95 96
67 68 59 51 60 68 76 81 79 80 78 74 69 65 63 67 67 66 64 62 60 59 59 60 62 64 65 68 69 70 70 72 73 73 75 80 83 88 88 90 90 89 94 98
66 62 52 50 65 73 86 81 82 84 81 74 71 66 66 67 69 68 66 66 65 65 63 63 64 66 69 69 70 68 66 68 69 70 72 75 81 85 88 92 95 97 97 97
70 70 61 48 63 72 80 83 86 87 82 77 74 69 68 70 73 70 69 69 70 70 69 66 65 66 64 62 61 59 57 57 56 56 56 57 59 60 59 56 50 45 43 43
58 57 52 56 57 66 77 85 88 88 86 80 77 73 71 71 74 74 72 73 75 74 74 71 68 68 61 52 50 48 44 41 40 37 36 37 38 39 39 39 37 35 33 31
61 55 57 61 66 67 72 80 84 86 86 83 79 76 72 73 76 77 76 76 78 78 78 77 73 67 61 52 46 42 39 36 36 36 37 38 38 37 35 33 32 31 31 30
60 59 64 64 66 69 70 76 80 80 82 81 78 75 72 72 77 79 78 78 80 81 81 81 79 72 60 53 47 41 39 38 38 39 39 39 37 35 33 32 32 31 29 26
64 65 65 66 67 67 68 71 75 79 78 77 75 74 71 70 75 80 79 81 83 85 84 83 83 81 65 56 49 42 40 40 40 40 41 40 38 36 35 34 32 29 26 24
66 71 70 69 66 64 63 66 72 73 74 76 76 71 71 71 73 78 80 85 85 88 88 85 85 85 74 60 52 45 41 41 42 42 42 41 40 37 36 34 32 29 27 25
67 73 74 70 68 67 65 65 66 69 74 75 74 73 74 73 75 79 83 85 88 90 93 88 87 87 79 66 55 48 42 42 43 44 43 42 41 39 37 36 33 31 30 28
65 69 71 71 68 66 65 63 61 61 69 71 74 75 76 76 78 80 83 87 89 90 92 90 89 90 85 69 60 51 44 44 45 45 44 44 42 39 38 36 36 35 33 31
68 68 67 66 66 63 60 58 60 62 66 67 70 74 78 81 80 81 82 83 86 89 91 91 92 93 89 74 63 55 48 45 47 46 45 45 43 40 39 38 38 38 36 34
70 68 67 69 70 69 67 63 63 62 64 70 71 72 75 78 79 81 82 83 85 91 94 95 94 95 90 79 66 57 49 47 49 48 47 46 46 44 42 40 41 40 37 35
73 74 74 73 72 71 70 69 69 72 67 74 75 77 79 80 82 83 85 86 86 89 95 95 96 96 91 79 65 58 52 49 51 51 50 49 47 44 42 44 44 40 37 34
81 79 76 76 78 79 77 75 74 74 75 77 80 82 83 85 87 88 88 88 87 88 95 99 98 97 90 74 66 57 52 52 55 53 52 52 48 44 45 48 44 40 37 34
85 85 84 86 90 88 86 85 86 89 90 87 91 88 89 89 87 89 91 89 90 91 96 98 98 95 84 71 65 56 55 57 58 56 55 52 47 47 48 48 44 39 36 34
86 86 89 91 94 94 97 96 95 95 94 95 94 93 92 89 88 90 94 94 94 96 98 98 97 92 83 72 65 57 60 62 60 57 54 50 49 50 50 49 43 39 35 34
81 84 82 83 83 82 84 86 89 92 94 92 92 90 90 91 92 92 95 98 99 98 98 97 93 88 78 72 64 61 64 65 61 56 54 50 51 51 53 50 44 40 37 35
80 79 76 75 74 73 72 74 76 78 83 89 91 94 96 95 97 97 98 98 98 98 98 98 92 86 76 70 62 64 70 65 58 55 53 52 54 56 56 51 46 41 39 37
79 75 71 67 63 60 56 54 55 59 64 73 84 91 93 97 98 98 98 98 98 98 98 97 93 83 76 73 71 73 70 61 57 56 55 55 57 59 59 52 48 44 43 41
67 63 58 55 50 42 38 36 36 37 42 48 57 71 84 92 95 96 97 98 98 98 98 96 92 85 82 78 73 73 66 63 60 60 60 59 60 62 61 55 52 48 47 46
57 54 51 46 41 36 29 23 21 22 25 30 37 46 57 67 79 90 94 95 97 98 97 97 97 93 84 80 80 76 69 68 66 64 62 62 63 64 62 58 56 53 51 52
50 46 40 34 27 25 21 18 15 14 16 19 23 29 39 50 62 67 77 87 94 96 97 97 96 89 85 83 80 75 71 73 68 65 69 70 66 67 63 61 59 58 57 56

GFSNGP_prec_cthk_039.txt.gz
RH
51 51 54 56 53 57 62 60 60 51 41 39 40 43 49 57 57 59 57 53 51 50 50 51 51 51 51 51 51 51 52 54 51 48 48 44 44 44 44 48 52 57 67 73
62 52 50 51 50 52 52 50 49 43 41 37 36 44 57 61 63 60 56 51 50 49 50 52 53 54 55 55 55 54 54 52 48 48 48 44 46 47 47 47 51 57 66 71
59 52 52 52 42 43 43 43 44 46 40 42 48 57 65 67 63 59 57 55 51 51 51 51 53 55 57 56 56 56 57 55 50 49 48 46 49 50 51 49 51 52 60 71
66 58 64 47 44 45 43 43 43 43 46 51 59 67 69 66 61 62 60 56 54 52 52 51 52 54 56 58 59 60 60 59 54 50 51 54 56 59 58 58 56 60 66 71
65 59 46 41 45 52 55 58 50 50 55 63 69 73 69 65 64 64 62 59 55 55 53 53 54 55 56 59 62 63 64 63 62 62 63 65 65 66 69 71 71 72 75 81
61 63 55 50 52 55 63 70 68 63 69 76 77 75 71 67 67 66 63 60 58 57 56 57 56 56 57 58 61 62 64 63 59 57 58 62 64 68 75 76 78 79 80 82
62 59 45 42 55 58 70 72 73 78 81 83 81 75 71 68 68 69 66 63 60 61 60 58 58 58 57 56 57 57 57 55 53 50 51 54 56 59 64 67 68 67 65 59
63 64 59 43 55 62 63 70 76 81 83 83 80 75 72 70 69 73 68 64 64 66 65 63 60 57 53 51 50 49 48 47 45 43 42 42 42 41 39 37 35 33 32 31
57 55 50 49 52 58 64 70 78 83 87 88 84 78 75 75 72 74 72 69 68 69 69 67 63 58 52 49 45 44 41 39 37 36 36 36 35 34 33 32 30 29 30 30
55 51 52 54 57 56 59 64 74 82 86 88 88 84 81 78 76 76 76 73 71 72 71 72 68 61 56 51 46 42 39 37 37 37 37 37 35 34 32 30 29 29 28 26
54 53 56 55 57 62 64 65 67 74 81 82 82 83 82 79 77 77 77 76 74 74 74 72 74 71 62 56 50 44 40 37 39 39 38 37 36 34 32 31 30 28 27 25
56 57 56 56 60 63 65 66 66 67 71 76 76 80 81 78 76 74 76 78 77 77 78 76 78 78 74 61 55 48 44 40 40 40 40 39 38 37 36 34 32 31 29 28
58 63 65 64 65 67 66 64 62 63 64 68 74 75 77 76 75 73 75 77 79 80 82 81 81 82 80 73 60 52 47 44 41 41 41 41 41 40 38 37 35 34 33 31
58 62 66 68 69 67 65 63 62 61 61 64 72 73 75 77 76 74 75 78 81 83 84 85 85 84 85 79 65 57 49 48 45 42 42 43 42 41 40 38 37 37 36 35
59 61 65 70 70 68 65 63 62 62 61 61 69 73 73 76 77 76 76 80 85 86 87 88 89 87 89 85 75 62 55 51 50 45 44 44 43 42 42 40 40 39 38 38
63 64 64 64 66 64 65 63 62 60 56 58 64 67 70 73 76 79 80 82 84 86 88 90 90 89 91 92 83 69 60 56 55 49 46 46 45 45 44 43 42 40 40 40
68 65 63 63 65 67 65 65 66 65 61 59 62 67 69 70 72 75 80 81 81 84 87 90 92 94 96 97 87 76 66 60 56 52 48 48 49 49 47 46 43 42 43 40
72 69 70 71 71 70 70 70 68 67 66 68 62 68 73 73 76 77 78 80 81 85 89 90 91 97 98 98 90 79 68 62 57 53 51 53 53 52 50 47 45 46 43 38
77 79 79 78 77 75 75 75 75 75 72 71 70 71 79 80 79 78 80 82 86 89 91 91 94 97 99 98 92 81 70 64 58 56 57 57 56 54 49 48 48 47 43 37
84 87 86 83 81 82 82 84 86 86 84 82 80 81 83 85 85 85 85 88 90 92 91 91 95 97 98 98 90 78 70 63 57 58 62 61 59 52 49 50 50 49 43 38
89 89 88 85 83 81 80 82 85 90 93 93 90 91 93 93 92 92 91 91 94 94 92 93 97 97 98 97 88 77 68 63 58 61 66 64 57 51 50 51 52 52 45 39
88 87 83 80 79 78 75 75 78 81 84 88 94 93 91 91 92 93 93 92 95 98 98 98 98 98 98 96 89 79 73 63 61 67 69 61 54 50 51 52 56 55 48 44
78 80 77 74 74 73 68 65 60 60 63 68 75 85 91 91 93 95 96 97 97 97 98 98 98 98 97 96 88 80 72 65 64 69 69 58 54 53 54 55 59 58 53 50
87 88 78 74 71 67 60 56 54 49 46 49 54 64 73 82 91 92 95 97 98 98 98 98 98 98 97 94 85 77 71 66 68 77 66 58 55 55 58 59 62 62 59 56
80 75 70 66 61 58 54 49 42 33 30 31 35 38 45 58 71 82 89 93 96 98 98 98 98 98 97 94 89 82 74 73 78 77 67 62 60 61 63 64 67 64 63 59
70 64 60 56 53 48 42 34 27 24 22 20 22 25 28 34 48 60 66 78 86 90 94 96 97 97 97 97 94 86 81 79 81 80 74 70 69 68 71 71 69 67 63 61
58 55 51 48 42 37 30 26 21 19 18 17 17 19 21 25 30 40 53 60 67 72 80 89 93 96 97 97 95 92 86 84 84 80 73 69 67 71 74 72 69 67 64 66

GFSNGP_prec_cthk_042.txt.gz
RH
58 57 58 57 59 61 67 62 69 56 56 51 49 44 44 46 51 56 54 53 50 49 47 46 45 47 49 48 50 50 51 50 51 50 46 46 45 44 43 41 42 41 43 44
58 52 53 56 52 52 55 57 56 54 56 51 47 41 41 46 54 60 57 56 53 49 45 45 46 48 49 51 52 53 53 53 51 49 48 48 46 44 44 43 44 43 44 45
63 53 54 59 45 43 45 47 50 55 47 44 41 38 40 48 64 64 63 59 52 47 46 47 47 48 50 52 52 53 53 53 53 51 51 49 47 47 47 47 47 47 47 48
66 59 68 43 43 43 41 41 42 42 42 42 40 43 51 62 69 66 63 57 53 50 48 47 48 50 50 51 51 53 56 56 56 55 56 57 57 55 52 52 55 58 60 62
64 69 51 44 46 48 49 48 42 40 42 43 47 52 61 70 70 66 62 59 54 53 52 50 50 49 50 51 54 55 57 59 60 60 60 60 59 59 58 60 61 61 64 67
65 64 62 56 52 48 53 63 58 52 49 53 59 73 80 77 71 69 65 61 57 56 54 51 51 52 50 50 49 51 52 51 52 52 51 51 52 53 56 56 55 56 56 53
65 64 50 45 47 52 67 67 66 64 61 66 77 82 80 76 72 69 67 63 61 58 55 53 53 52 51 47 45 45 45 46 47 48 48 48 48 48 46 40 34 31 29 28
66 69 64 50 51 60 61 64 68 73 79 83 85 84 82 76 74 70 71 66 63 61 60 58 56 53 50 48 46 43 41 41 42 42 39 37 37 34 31 29 28 27 27 27
57 58 51 51 53 58 60 64 71 77 81 86 88 87 85 79 76 74 74 71 68 65 64 63 59 54 49 47 45 41 38 35 36 36 35 35 35 33 31 29 28 28 27 26
53 51 54 52 54 57 59 62 67 73 80 87 90 91 90 84 79 79 78 75 73 71 68 66 65 59 54 50 47 43 40 37 37 37 37 37 36 34 33 32 30 29 27 26
51 50 53 53 52 55 60 61 63 65 70 78 83 84 85 88 84 81 81 80 77 76 73 70 69 68 64 56 50 46 43 40 39 38 38 38 37 37 36 35 34 31 30 29
54 49 51 53 54 53 58 62 64 65 67 69 71 77 79 81 82 84 82 81 79 78 78 75 73 72 73 66 57 51 47 44 43 41 39 39 39 39 38 36 36 34 32 32
56 54 56 57 61 63 62 63 64 63 62 62 62 63 71 75 76 81 81 80 80 79 79 79 78 77 76 76 71 61 52 48 45 45 43 41 41 41 40 38 38 36 35 35
63 58 60 60 64 66 64 64 63 60 59 59 60 60 64 71 76 79 82 80 79 81 82 82 83 82 82 81 79 72 60 53 49 48 47 45 43 43 42 42 41 41 40 40
71 61 57 60 63 66 68 66 63 61 61 60 60 59 61 70 75 77 81 82 82 82 85 87 86 88 86 86 86 80 72 60 55 52 51 51 49 45 45 45 45 44 44 42
78 68 62 62 63 64 66 66 64 63 61 60 57 54 59 67 71 77 78 82 85 84 85 91 91 92 92 89 90 88 82 70 60 55 56 55 52 49 47 48 48 49 47 44
79 72 66 65 65 64 62 61 61 60 61 63 62 58 58 66 67 69 72 76 80 83 86 90 92 90 92 91 95 97 89 78 69 60 60 57 53 50 51 53 50 51 47 47
86 77 73 70 69 67 66 66 64 64 63 62 63 65 62 63 68 71 72 75 76 78 82 86 88 90 93 92 96 98 94 84 74 64 63 57 56 55 60 55 53 51 49 49
88 82 79 77 75 72 71 71 70 69 70 70 68 69 70 68 72 77 79 77 80 79 83 87 90 93 97 95 97 97 95 86 76 68 65 59 57 59 62 59 53 51 50 50
91 88 85 81 76 73 71 70 71 75 80 82 81 80 78 78 78 81 82 82 81 82 85 90 95 97 96 98 98 98 98 89 78 73 66 60 59 63 67 58 53 51 51 52
92 93 90 87 81 75 72 70 70 73 77 82 86 89 87 87 88 89 89 90 90 92 92 95 98 99 95 98 98 98 97 86 76 70 64 61 62 67 67 56 52 52 53 56
93 93 89 82 75 73 70 68 65 60 62 67 73 82 89 92 93 91 93 94 96 95 95 98 98 98 97 98 98 98 95 86 78 72 65 64 66 70 64 54 52 54 57 60
88 83 81 75 74 73 70 66 64 61 57 50 50 57 63 71 79 90 92 93 96 97 98 98 98 98 98 97 98 98 95 89 84 76 69 71 71 70 63 55 55 58 63 66
88 92 96 85 74 70 67 63 59 55 50 45 42 39 42 49 62 70 82 86 91 96 98 98 98 98 97 98 98 98 94 91 84 74 67 69 74 71 62 59 60 67 73 70
93 87 80 75 70 66 62 58 53 48 39 32 30 29 30 33 36 46 57 65 75 86 92 96 97 98 97 98 97 98 95 89 82 75 72 81 80 74 72 69 70 72 73 69
83 76 69 66 63 59 54 49 43 37 29 24 22 21 21 23 25 28 36 48 57 65 71 78 89 94 96 97 97 97 96 93 89 81 81 88 88 80 75 71 71 72 75 70
75 65 60 56 52 48 45 40 33 29 26 23 20 18 18 19 21 24 29 35 43 50 57 66 70 73 76 81 89 95 96 96 93 89 91 90 82 72 68 75 76 76 72 66

GFSNGP_prec_cthk_045.txt.gz
RH
63 64 66 63 66 74 88 84 88 78 71 62 57 51 46 42 46 51 56 56 55 51 48 47 45 44 45 45 45 45 45 45 46 48 49 47 44 45 43 42 43 42 39 38
62 56 57 59 56 59 61 62 64 65 67 59 55 50 53 51 49 50 56 57 56 53 49 47 46 46 45 46 47 48 48 48 49 48 48 46 47 45 45 47 47 45 43 42
63 55 57 59 50 49 48 49 50 60 49 51 49 50 52 49 45 46 60 62 61 53 50 50 46 45 45 46 48 48 49 47 46 48 47 46 47 48 49 50 47 46 45 46
68 62 68 41 44 44 42 39 43 45 48 52 52 50 45 43 44 56 69 68 63 56 50 49 47 47 46 46 47 48 49 49 49 51 54 56 58 58 56 53 53 54 54 55
63 64 51 46 46 46 49 46 42 40 42 44 44 46 45 43 53 70 71 72 63 55 52 53 49 48 49 48 47 49 49 48 50 50 52 54 54 56 56 55 53 50 49 47
68 64 65 56 53 50 50 60 51 47 42 42 47 50 54 56 73 77 77 72 61 57 55 54 52 49 47 48 46 42 42 42 42 45 47 50 51 49 48 48 45 36 30 28
70 68 52 43 48 50 65 60 62 59 55 50 55 57 66 78 80 78 77 69 62 61 59 56 54 51 48 46 45 42 40 40 41 43 45 46 46 42 36 30 28 25 24 24
73 70 65 50 52 56 56 60 61 61 61 61 62 72 82 82 80 78 75 71 66 64 63 62 58 53 49 46 45 43 41 40 40 39 38 39 36 34 32 30 28 27 26 24
58 59 52 55 53 55 56 60 63 65 70 75 80 84 86 84 83 81 80 77 73 71 69 66 62 57 51 48 44 43 40 37 35 35 35 36 37 36 34 32 32 30 28 26
56 51 53 54 55 56 59 61 66 67 71 77 82 88 89 91 91 86 82 83 79 77 75 71 65 61 56 50 46 43 40 38 37 36 36 37 37 37 37 37 36 34 32 31
53 51 54 52 51 55 57 61 61 63 68 73 77 80 86 89 92 92 87 84 85 82 78 74 70 67 66 61 51 46 44 42 40 40 40 39 38 38 40 39 39 38 37 35
61 56 48 48 50 54 54 58 63 66 67 67 67 70 74 80 83 86 90 89 85 85 82 77 75 72 69 70 64 54 50 47 45 43 42 42 41 41 41 42 41 41 39 38
77 68 58 52 53 56 61 62 62 64 65 66 66 66 65 67 70 75 78 82 86 88 85 82 78 78 76 75 75 70 66 56 50 48 47 47 45 45 45 43 43 43 43 42
85 79 71 62 60 61 62 65 65 64 63 62 62 60 60 60 62 66 73 77 81 84 86 85 82 81 80 79 80 80 75 69 59 55 52 52 51 50 49 48 48 46 45 46
85 85 80 72 68 63 62 63 66 67 65 62 60 59 59 59 60 64 70 75 79 85 87 88 87 86 85 85 84 85 85 78 71 64 59 56 54 52 52 52 50 48 49 52
91 91 88 78 68 66 64 65 70 68 67 65 63 61 58 56 57 64 67 74 79 81 84 87 89 92 92 90 89 89 89 89 81 73 68 62 59 58 55 54 52 50 53 55
97 90 88 84 74 68 67 66 66 66 63 60 59 61 62 58 57 62 65 68 73 79 82 86 91 95 95 96 96 92 90 93 91 83 73 69 62 61 57 55 55 55 59 57
88 88 89 86 79 73 71 69 68 65 63 62 61 59 60 61 59 62 66 66 69 72 75 78 81 87 92 95 95 92 92 96 97 89 82 74 65 63 61 57 56 58 62 59
95 96 95 91 87 80 74 71 70 69 67 68 68 67 66 65 64 63 66 70 74 75 78 80 79 84 87 91 92 93 95 98 98 92 86 77 70 67 63 59 59 65 65 58
99 98 97 93 86 79 73 67 65 66 66 68 70 73 77 78 77 74 75 77 79 79 80 79 80 84 89 92 95 97 98 99 98 97 90 78 75 70 64 62 63 67 63 57
99 98 97 93 86 75 67 64 61 57 55 58 62 68 78 82 84 85 84 86 86 86 86 86 86 90 94 96 97 98 99 98 98 98 90 83 76 69 64 63 66 68 62 58
98 98 98 89 79 71 68 64 62 61 58 54 51 53 59 65 76 82 88 92 90 92 95 96 98 98 98 98 99 99 98 98 98 96 90 80 74 68 65 66 70 68 62 59
93 93 87 81 72 71 70 67 65 62 57 56 51 48 44 48 57 61 70 78 86 90 93 96 97 98 98 98 98 98 98 98 98 97 89 83 78 71 75 77 72 68 62 67
96 94 97 97 90 73 71 70 66 63 58 54 45 39 37 40 41 42 49 58 66 75 84 91 96 97 98 98 98 97 97 97 97 97 94 87 80 75 74 73 73 69 68 75
98 97 93 83 78 77 71 66 62 57 51 46 41 34 30 27 26 27 31 38 43 53 63 71 79 91 96 97 97 97 97 97 97 96 90 85 79 76 84 85 79 80 79 76
89 82 78 72 67 65 63 60 56 50 44 39 33 27 24 22 21 25 27 33 34 40 47 58 65 69 78 87 92 95 96 96 96 95 93 89 83 86 95 90 81 73 76 79
94 87 75 67 63 61 58 54 50 45 41 35 29 27 25 24 21 20 23 26 33 34 41 44 53 62 67 68 72 75 78 79 79 79 83 78 77 84 80 73 67 74 77 75

GFSNGP_prec_cthk_048.txt.gz
RH
71 69 70 70 77 86 89 84 86 71 68 58 59 60 61 59 54 50 51 54 56 55 54 50 47 45 44 44 46 46 45 45 44 44 45 47 48 44 43 43 40 38 40 40
71 68 68 65 63 65 70 76 76 77 75 72 68 66 66 59 57 50 52 54 62 61 58 52 50 48 47 47 47 48 48 48 47 48 48 48 46 45 43 43 42 43 44 43
65 62 60 59 49 51 54 56 58 67 50 57 55 58 60 59 60 55 52 51 61 62 59 53 49 48 48 47 46 47 47 47 46 46 46 45 44 44 45 46 47 47 48 48
72 63 69 42 42 45 46 44 47 45 45 48 52 49 51 55 61 56 49 49 67 67 60 54 52 50 50 48 47 47 48 48 48 47 48 50 50 50 50 50 51 51 50 48
67 68 48 40 48 49 49 45 42 40 40 43 48 55 53 54 51 47 47 59 73 70 62 57 54 51 52 50 48 47 48 49 48 47 46 46 47 50 52 53 49 46 41 34
69 63 65 49 55 49 51 56 50 48 44 41 44 48 50 50 49 53 59 74 77 71 63 59 57 53 54 51 48 41 41 43 42 43 45 46 46 46 47 46 36 29 27 25
72 73 55 43 47 52 62 56 63 59 56 47 44 44 47 50 56 58 74 81 79 71 65 61 58 56 53 50 46 39 38 39 40 40 41 42 43 41 35 31 29 28 28 26
75 77 65 46 50 53 53 58 60 59 60 59 57 54 58 65 76 80 80 82 79 72 68 65 63 60 53 50 47 41 39 39 40 39 37 37 34 32 33 32 32 31 30 28
62 59 51 54 54 52 54 56 60 63 64 59 61 64 68 80 86 85 84 83 82 75 73 72 70 63 57 53 47 43 41 39 37 36 33 33 33 32 34 34 35 35 34 33
56 50 49 51 56 55 55 57 62 63 67 73 77 82 88 93 94 93 88 87 88 85 81 78 74 68 61 55 50 45 42 40 38 36 35 34 33 33 35 36 37 38 38 38
63 47 52 52 52 53 58 60 62 65 67 71 77 83 85 90 93 94 96 95 93 93 88 81 77 73 69 63 57 51 47 44 43 41 39 38 37 37 37 38 39 39 40 41
80 75 63 52 49 51 55 57 60 63 65 68 69 71 75 79 82 87 90 94 95 92 92 89 83 77 74 70 67 61 55 50 48 46 44 42 42 41 42 42 41 42 42 42
72 81 85 68 57 52 56 59 61 63 65 68 68 69 68 67 68 71 76 82 84 90 94 93 88 82 78 76 75 72 68 66 61 53 51 49 48 48 48 49 48 46 45 45
58 71 84 85 70 59 57 61 65 67 67 65 63 62 62 60 60 61 63 66 71 78 83 89 93 93 90 82 80 78 77 74 71 66 59 55 55 54 52 52 51 50 49 48
51 73 80 87 86 72 66 64 64 64 64 65 66 62 59 58 58 59 61 63 66 68 74 83 90 94 94 93 90 85 84 83 81 76 70 64 60 58 57 56 55 54 52 50
76 80 84 90 95 88 73 68 64 64 66 68 67 63 61 59 58 56 56 60 66 69 72 77 84 92 96 97 95 93 92 90 89 86 81 76 69 67 63 61 60 57 54 52
98 94 98 97 94 89 80 72 67 65 67 67 66 64 62 60 61 60 57 60 65 67 71 75 81 86 89 95 98 98 98 97 98 95 91 86 78 72 70 64 61 60 57 54
97 98 95 95 93 90 88 79 72 69 68 65 64 61 58 56 57 57 54 57 65 67 68 70 74 78 82 89 95 97 99 99 96 97 95 92 83 80 76 69 64 62 60 56
95 97 94 94 93 94 92 85 78 74 72 69 66 64 62 61 61 63 62 59 61 66 72 72 74 78 80 84 88 90 92 94 95 94 96 96 90 87 79 72 71 65 61 58
94 94 94 96 96 94 87 79 72 68 64 60 59 58 61 66 69 72 74 74 73 72 73 76 80 83 84 85 88 90 92 94 95 96 98 98 97 91 82 77 74 65 62 61
98 98 98 95 91 84 77 73 66 58 52 49 46 44 45 49 63 73 78 80 80 82 84 85 86 85 85 87 88 91 94 95 96 98 98 98 97 90 88 84 74 70 63 63
97 98 98 97 86 77 73 69 66 64 61 58 53 51 46 46 51 56 63 69 72 81 87 89 93 95 95 95 96 98 98 98 98 98 98 97 97 96 88 81 74 70 63 66
97 98 98 91 81 75 71 68 67 66 62 58 55 51 47 44 42 42 47 55 63 67 74 81 90 94 97 98 98 98 98 98 98 97 97 97 97 88 82 79 74 75 78 78
96 97 98 98 98 87 76 70 66 65 62 58 54 49 43 38 34 32 35 41 48 50 51 60 70 77 89 96 98 97 97 97 97 97 97 97 93 89 86 82 77 79 79 76
97 97 97 96 89 79 80 75 66 64 61 57 52 48 44 38 31 28 28 30 36 36 37 44 47 58 66 79 91 95 97 97 97 97 97 97 96 91 88 82 75 74 82 82
98 92 82 78 78 76 67 64 63 58 56 54 51 46 41 34 28 25 25 25 25 35 39 41 43 45 57 64 71 81 88 95 96 95 93 90 87 81 75 70 75 80 73 63
98 98 97 89 75 68 66 62 59 57 55 53 50 46 41 36 31 28 25 24 25 30 33 34 42 46 48 56 60 66 69 72 77 79 79 78 77 72 69 70 72 68 59 58

GFSNGP_prec_cthk_054.txt.gz
RH
81 80 85 86 85 86 89 79 85 68 69 70 72 71 69 64 64 61 61 57 56 53 52 56 63 65 63 57 52 51 47 46 45 45 46 45 46 47 46 45 46 44 42 40
86 79 83 82 79 80 79 76 75 72 69 67 65 70 72 64 65 63 61 62 59 57 57 58 62 63 66 59 55 54 54 53 49 49 49 50 49 49 50 48 47 46 43 40
74 73 72 74 66 69 70 68 64 67 47 52 53 56 67 66 62 61 62 62 58 59 58 56 60 65 62 56 54 55 55 56 55 50 49 50 50 51 50 47 46 44 42 41
74 70 66 45 44 46 50 47 51 50 45 46 45 44 46 63 66 64 66 63 62 63 62 58 60 69 65 60 57 55 54 52 51 50 49 50 50 49 47 45 45 45 44 44
74 75 56 44 53 53 51 48 50 52 50 47 46 46 42 47 52 56 65 66 66 67 64 58 61 72 71 67 63 58 59 54 53 51 50 50 51 50 48 46 46 46 44 35
79 75 68 46 49 48 52 59 60 60 59 55 52 51 39 38 48 52 55 59 63 68 65 59 60 72 72 68 65 63 58 53 51 50 49 48 48 49 48 46 44 36 25 23
80 75 61 49 48 47 56 53 56 58 59 58 58 52 49 40 41 47 55 57 61 64 64 59 67 76 73 68 64 60 56 52 49 48 48 47 46 46 45 38 26 25 25 25
80 78 73 55 58 59 55 54 53 56 58 56 57 60 53 42 42 45 53 56 56 56 61 71 80 81 75 69 65 62 56 52 50 49 47 45 44 41 30 28 27 27 28 29
69 64 56 58 61 61 60 56 55 55 60 58 59 58 60 60 54 53 54 58 62 66 68 79 90 84 78 74 69 64 58 53 50 49 46 44 39 31 29 29 29 30 32 32
64 55 56 56 60 65 65 63 61 59 58 63 65 67 64 64 65 65 69 74 80 85 84 83 85 83 82 79 73 67 63 57 51 51 48 42 37 35 34 32 32 33 35 36
69 65 63 63 63 59 55 60 61 64 63 60 64 70 76 80 81 84 88 93 94 95 93 93 93 89 88 84 79 71 64 59 54 52 50 46 42 40 39 38 38 38 39 39
61 57 52 48 56 71 71 66 58 60 63 65 66 67 71 78 82 84 87 91 95 95 96 97 98 97 96 90 83 80 75 65 56 53 51 49 47 46 46 45 44 44 44 45
52 46 39 33 32 34 56 66 72 64 62 63 66 70 71 73 71 70 72 74 76 78 85 90 94 97 98 97 91 85 82 76 67 61 56 52 49 50 50 50 49 49 50 50
59 51 44 40 33 30 28 44 71 76 73 66 65 66 68 70 70 69 67 66 65 66 67 71 78 86 94 97 96 93 90 85 81 76 71 68 64 60 57 55 54 54 54 55
64 64 62 55 45 35 32 34 60 79 84 76 67 65 66 67 66 64 64 63 61 60 61 64 66 70 73 79 88 94 95 95 93 89 84 81 78 76 75 72 67 64 63 61
69 68 67 66 66 61 50 44 71 86 84 87 75 67 64 64 64 65 64 60 58 57 57 58 60 66 69 70 73 78 85 91 96 97 95 90 89 87 83 81 78 75 73 70
77 74 76 80 77 87 75 59 93 98 88 94 86 75 67 66 66 65 63 62 62 61 58 57 58 62 67 70 73 75 78 81 86 92 96 98 96 94 90 90 87 82 81 76
88 84 82 84 90 92 92 90 98 98 98 97 91 81 75 70 69 68 67 64 60 58 54 53 54 57 64 68 70 73 75 76 78 81 84 90 95 98 98 98 93 90 89 83
92 94 90 91 92 96 96 98 98 98 99 96 92 87 83 77 70 66 63 62 62 61 59 56 55 58 61 64 66 69 71 74 77 80 83 85 87 90 95 96 96 97 94 90
95 96 95 92 93 94 98 98 96 93 91 87 82 77 71 66 58 50 50 57 62 66 66 67 66 65 67 69 70 71 74 76 78 81 83 85 88 90 92 93 95 97 97 97
95 96 97 97 94 93 87 81 78 83 76 67 67 65 62 59 55 51 49 47 46 54 65 68 69 71 72 74 72 75 81 85 87 88 88 88 90 91 93 94 96 98 98 97
94 96 97 98 98 92 89 90 88 74 70 70 69 67 65 61 56 50 45 43 43 43 46 47 50 53 60 65 67 72 76 82 92 95 96 96 97 96 97 98 98 97 97 97
83 95 97 98 98 97 90 79 76 70 68 74 76 71 67 61 56 51 47 41 38 38 41 40 41 44 45 48 55 58 64 71 78 91 94 96 97 97 97 98 97 97 97 96
62 86 97 98 98 98 98 96 89 78 73 75 74 71 68 66 57 50 44 40 36 33 32 37 37 37 39 43 42 44 48 55 60 68 85 91 94 97 97 97 97 97 97 95
56 74 92 97 98 98 98 97 92 94 83 72 69 68 68 65 60 54 50 46 42 38 34 32 35 36 34 38 39 44 52 55 61 66 69 81 88 96 97 97 97 97 95 95
46 65 84 97 98 98 94 94 93 80 73 73 70 66 63 61 60 57 53 50 47 44 36 34 35 35 34 36 38 42 45 49 55 60 67 72 79 91 96 97 97 93 85 78
48 59 73 91 98 98 96 87 83 83 82 71 62 61 61 60 58 57 56 54 50 46 41 35 33 32 32 35 39 42 46 49 53 57 60 65 69 75 75 72 70 68 66 63

GFSNGP_prec_cthk_057.txt.gz
RH
73 72 74 74 75 80 80 75 76 59 68 64 62 65 66 66 63 62 61 57 54 54 53 53 53 55 60 63 62 60 55 52 50 52 51 51 50 51 51 47 45 45 44 42
83 77 78 78 78 81 78 76 77 74 68 58 53 53 56 63 67 65 63 61 60 59 56 54 55 58 61 63 66 63 57 57 57 55 56 52 50 50 50 51 50 49 47 44
80 77 71 68 66 69 73 74 73 75 57 52 50 47 48 52 58 68 63 64 64 62 58 60 61 59 60 65 65 60 62 62 60 59 59 60 61 61 60 61 56 50 47 45
74 66 71 50 49 50 52 50 54 54 51 53 51 48 44 44 46 57 68 66 67 65 62 65 66 63 61 63 67 65 62 61 59 58 58 59 58 59 56 54 51 49 47 46
74 76 62 54 61 61 58 56 58 60 60 61 59 53 43 45 41 45 58 63 65 64 65 67 68 66 65 69 69 66 66 66 63 58 57 57 60 55 53 53 53 51 49 45
81 81 75 58 61 56 55 64 63 65 66 66 63 61 52 48 41 42 49 57 56 61 72 73 72 69 65 66 72 71 70 70 65 62 63 59 57 55 55 55 53 50 40 27
83 83 70 60 60 58 63 60 61 62 63 65 61 57 57 54 48 40 47 51 54 60 66 70 72 71 69 66 70 73 73 70 67 63 59 56 55 56 55 52 46 31 26 25
83 84 80 67 69 71 71 65 61 59 59 62 62 57 58 60 51 43 43 47 54 61 63 65 68 69 66 72 77 76 73 71 68 65 61 60 56 53 57 42 30 28 28 28
72 71 65 69 69 71 70 67 65 64 61 63 64 64 60 60 62 56 50 52 55 59 62 62 62 69 76 83 80 78 73 70 68 65 62 58 55 54 37 33 32 31 31 31
66 58 61 62 63 62 62 63 63 64 65 64 64 64 66 67 69 68 68 65 64 67 69 74 74 73 81 90 85 81 76 72 68 66 63 59 54 44 38 37 35 34 34 34
59 57 52 55 56 56 55 59 57 58 58 62 65 66 67 74 82 78 76 77 82 87 89 92 91 88 88 89 85 83 78 74 70 67 62 57 51 46 45 44 42 40 40 39
68 69 68 60 55 50 42 40 51 62 60 60 60 65 70 71 75 81 82 86 91 94 95 96 96 97 97 97 96 87 83 78 72 67 63 59 54 53 51 50 48 46 45 46
80 71 64 58 53 54 51 43 32 41 50 57 66 65 65 72 72 74 75 76 77 77 78 81 84 90 96 98 98 98 91 83 81 76 69 63 58 55 53 53 52 51 50 50
82 72 66 65 61 59 56 51 43 31 35 52 61 73 70 69 72 73 74 72 70 68 68 68 70 74 81 89 96 98 97 94 88 85 79 77 77 73 69 64 60 58 56 56
78 75 71 67 65 62 59 55 49 44 36 49 64 69 75 76 69 70 69 66 65 66 64 62 63 66 70 73 77 84 91 93 93 93 90 85 83 81 79 78 78 77 75 71
76 76 75 74 71 68 64 59 56 52 48 49 75 76 74 85 75 68 65 65 66 65 61 59 59 60 62 66 69 72 76 79 84 87 89 92 93 91 89 86 86 82 82 80
78 75 75 75 76 73 74 75 75 68 65 70 90 89 83 84 84 70 66 64 65 65 63 61 60 58 59 60 64 70 73 76 78 80 82 84 89 92 96 97 97 92 91 88
81 82 80 79 82 79 81 82 85 92 90 92 98 99 91 92 87 77 70 69 67 66 66 64 62 59 58 59 62 66 69 72 73 74 76 78 80 82 84 90 94 97 98 97
58 74 83 85 88 88 85 86 93 93 98 98 98 98 98 98 92 86 79 70 69 68 65 62 60 58 56 57 59 63 65 66 67 68 71 74 76 80 82 85 87 90 93 94
27 46 67 85 89 91 92 92 89 92 95 92 93 91 86 80 78 75 69 61 58 59 64 66 67 66 65 65 67 67 69 71 71 74 76 78 80 81 83 85 87 89 92 94
23 28 45 65 88 92 94 94 88 81 90 79 74 72 70 68 64 61 60 57 55 53 50 52 60 65 68 71 71 72 71 70 70 72 74 82 85 88 91 92 91 92 93 94
33 32 36 49 71 92 95 96 95 91 81 79 74 70 69 68 64 60 58 53 49 49 48 48 48 47 48 49 48 52 55 57 58 63 71 75 83 90 95 98 97 97 98 97
36 40 43 44 57 82 97 96 94 88 86 86 86 91 81 69 62 59 56 52 48 44 41 40 43 43 43 43 43 44 46 51 51 53 58 61 64 76 86 93 95 97 97 97
42 46 51 53 51 72 91 97 97 97 94 77 78 84 83 80 75 67 58 53 49 46 42 39 38 38 40 39 37 37 38 39 45 49 55 60 66 70 76 82 89 97 97 97
56 54 58 61 58 67 87 96 97 97 97 96 92 80 77 75 75 72 61 56 52 49 45 40 40 41 38 36 35 36 37 43 45 46 50 55 61 67 71 78 83 96 97 97
64 68 66 63 58 63 86 94 97 97 96 86 85 85 75 68 62 62 66 61 59 55 52 48 44 37 36 34 35 37 41 42 46 47 51 54 56 60 65 70 81 86 88 86
48 54 66 70 67 67 86 96 97 97 94 96 90 77 73 68 63 60 58 59 59 59 56 52 47 43 39 35 35 40 44 45 45 48 49 53 56 57 59 62 67 69 69 68

GFSNGP_prec_cthk_060.txt.gz
RH
65 66 67 66 63 63 67 59 68 59 59 58 61 63 58 52 51 54 56 56 56 50 51 49 48 48 49 51 53 54 54 55 55 54 52 50 48 51 53 51 52 53 54 54
74 67 66 68 64 64 63 63 66 68 61 66 59 54 52 52 52 53 59 60 59 59 56 53 53 53 54 56 58 59 59 60 57 56 56 57 57 56 58 57 53 53 54 51
76 71 68 68 64 65 66 68 67 68 61 62 56 53 48 45 44 46 52 59 63 62 61 60 58 57 57 56 58 61 63 61 58 60 62 59 59 60 60 62 64 63 61 57
80 72 70 54 53 54 55 55 56 57 57 60 61 59 54 52 47 42 40 48 62 64 61 62 62 61 62 62 62 64 66 64 63 63 63 64 63 62 63 68 70 68 65 60
67 63 55 56 57 58 59 63 60 60 58 57 56 53 51 52 48 43 41 41 56 62 64 64 64 65 68 68 68 69 72 70 67 67 66 64 62 61 66 70 70 63 56 55
65 64 60 57 60 60 59 66 64 64 62 61 62 59 52 53 54 49 42 42 47 55 62 62 66 70 74 73 70 73 72 72 75 71 69 68 67 66 64 66 65 65 62 54
77 76 64 60 64 64 67 70 66 64 63 62 61 67 61 52 55 54 48 43 47 51 57 60 61 69 76 77 75 73 68 68 73 72 74 73 71 70 70 67 66 61 53 36
75 77 76 72 74 72 72 67 64 63 62 61 62 64 63 59 56 61 52 46 48 53 57 61 67 70 72 71 75 74 71 70 74 74 76 73 69 67 67 65 62 49 36 34
71 71 71 73 74 76 69 64 61 61 63 62 60 61 63 66 62 64 65 54 51 55 57 60 66 68 69 69 72 70 75 88 81 76 76 75 73 69 67 62 46 41 39 35
66 64 65 62 61 59 60 59 58 58 57 59 57 58 63 64 72 72 69 72 70 65 64 67 68 69 69 70 75 81 84 79 78 76 75 75 72 68 64 50 43 40 39 38
55 51 48 54 57 56 55 50 47 45 47 52 57 56 59 64 70 77 83 78 75 77 76 79 81 82 86 89 83 83 89 87 82 79 76 75 71 68 59 50 47 46 44 43
59 60 62 62 64 68 63 60 58 56 48 40 50 52 58 63 65 72 79 85 88 90 92 96 95 96 96 96 95 94 95 89 83 81 76 73 70 66 57 54 52 52 51 50
80 77 72 70 70 69 65 62 58 53 48 42 35 41 50 61 64 67 72 78 85 84 85 86 85 85 87 92 98 98 97 96 93 82 77 74 70 66 60 58 56 54 53 54
82 81 77 75 71 68 63 60 57 55 51 47 41 37 47 55 59 68 70 73 78 78 77 74 73 73 76 80 85 92 98 98 98 94 83 78 73 68 64 63 62 60 61 61
78 78 75 72 74 72 68 65 61 57 53 49 46 44 49 59 63 63 69 75 72 72 72 71 71 70 69 71 76 80 84 94 97 98 96 91 87 88 90 88 85 83 78 75
70 74 76 75 73 73 71 70 67 64 62 54 53 49 49 63 70 68 69 75 76 70 69 69 68 66 65 66 68 71 75 79 80 84 87 89 89 88 85 85 87 87 86 90
41 43 50 61 71 77 77 78 77 73 69 62 61 57 54 62 82 79 76 77 78 72 67 68 70 66 64 63 64 66 69 73 76 78 79 80 80 82 86 89 91 93 95 97
26 29 32 39 46 58 74 81 83 83 78 76 83 89 86 90 98 93 85 82 81 77 69 69 69 68 67 67 67 67 68 70 73 72 74 74 75 75 76 78 79 81 84 87
28 28 27 32 38 44 55 73 86 87 86 84 88 91 92 95 98 99 93 89 87 82 75 74 73 71 69 66 63 62 62 64 66 66 67 68 68 69 69 70 72 74 77 81
33 33 31 33 38 43 47 57 79 86 85 84 85 88 95 95 92 86 89 87 83 81 75 72 73 71 69 66 65 65 66 66 69 70 71 73 75 74 75 76 78 81 83 84
39 40 42 42 42 47 49 53 63 89 89 84 85 74 72 82 82 75 76 76 72 67 66 61 59 67 72 71 71 71 73 73 75 73 71 69 68 66 69 75 80 85 90 93
44 46 48 52 52 52 53 55 61 78 96 89 84 79 73 69 65 72 68 65 62 59 61 58 54 53 53 56 55 55 56 53 51 53 53 54 55 59 63 61 69 78 82 88
43 44 45 50 56 59 61 62 63 74 93 93 91 92 96 91 79 75 68 64 58 53 50 48 48 50 48 47 48 48 47 47 46 46 46 45 49 54 57 62 66 73 79 82
38 43 51 59 64 67 69 69 68 76 92 98 92 84 96 94 92 84 70 61 55 52 51 49 49 50 49 48 45 43 41 39 38 39 41 44 45 48 51 55 62 70 74 78
37 39 52 68 79 79 77 76 74 79 92 98 98 97 92 93 92 90 85 67 63 58 55 53 49 50 46 42 39 38 38 38 39 43 45 46 46 50 53 56 60 64 70 74
50 51 51 54 62 79 84 81 79 82 94 97 96 96 95 84 78 75 76 80 64 59 56 54 53 50 46 42 38 38 41 42 42 44 48 48 48 51 54 55 58 61 64 69
70 72 65 54 50 60 79 82 81 87 96 98 97 96 88 85 79 72 68 67 71 71 69 64 59 54 50 47 42 39 41 44 46 47 47 48 50 51 54 57 57 57 58 60

GFSNGP_prec_cthk_063.txt.gz
RH
72 70 70 70 69 69 73 64 68 56 57 56 52 52 50 47 45 46 44 46 50 52 51 49 49 49 48 48 46 45 44 46 47 47 49 49 49 50 51 51 49 50 51 52
78 68 66 66 61 62 63 62 63 58 58 56 55 54 52 50 51 49 45 44 48 54 56 55 55 54 51 48 49 51 51 53 52 52 53 51 52 51 52 55 58 58 58 58
77 67 64 60 57 58 59 60 60 62 58 55 56 56 59 60 57 52 49 46 43 51 55 58 60 60 55 54 55 56 56 55 56 57 55 56 55 56 58 60 61 61 63 64
79 68 72 56 49 48 50 52 52 54 58 61 64 62 59 58 55 51 48 46 42 40 49 54 62 61 61 60 60 58 58 57 57 60 60 59 60 59 60 61 63 67 66 69
78 69 59 60 56 56 57 67 61 60 58 58 59 56 61 60 55 48 48 47 44 42 42 54 60 62 64 64 66 67 65 64 66 67 67 69 68 66 64 63 66 69 71 72
62 65 59 63 56 54 54 65 62 60 58 59 58 56 55 55 53 49 50 51 47 43 42 53 59 65 64 68 68 71 72 69 69 69 69 71 73 70 69 69 70 69 69 70
71 68 61 57 57 58 62 69 66 62 59 58 56 54 51 54 54 55 52 54 51 45 46 49 56 61 68 68 68 70 77 76 75 73 69 68 70 71 73 72 71 70 68 68
70 74 70 63 66 66 69 64 62 58 56 53 52 52 50 50 56 59 56 55 56 51 48 49 54 63 67 67 70 73 75 73 75 75 69 69 74 78 77 77 74 75 72 67
67 65 62 58 60 62 63 65 64 57 53 50 49 50 50 49 53 59 68 63 62 57 53 54 57 60 68 71 73 75 73 69 73 73 74 74 78 79 80 73 70 69 63 44
63 59 58 56 56 54 52 52 51 52 51 49 47 45 43 48 52 60 62 71 67 68 64 62 61 63 65 66 70 72 71 70 74 79 87 88 79 80 80 80 73 66 48 43
60 57 54 50 52 53 54 55 55 54 52 52 51 48 40 42 54 59 64 66 76 74 74 75 77 75 74 77 79 79 80 81 82 84 86 81 84 80 82 76 69 54 46 45
66 68 70 69 69 68 66 65 63 62 61 58 56 53 50 40 45 55 63 67 71 78 85 84 81 84 88 95 92 95 97 95 89 91 96 92 86 86 81 75 63 54 52 51
77 82 84 83 82 79 76 74 71 69 66 60 57 53 47 41 35 47 57 62 67 75 80 86 85 86 86 87 86 90 97 97 96 96 97 92 83 78 78 73 65 61 58 57
77 74 75 76 78 79 79 77 74 71 66 62 58 55 50 47 38 45 55 59 62 68 70 78 78 77 75 74 74 78 83 88 98 98 98 98 90 78 72 69 64 61 61 61
70 73 71 66 65 69 73 73 72 71 70 68 66 62 56 50 47 46 54 61 63 63 67 75 76 74 74 72 72 74 76 80 83 92 96 98 96 91 82 80 77 75 76 76
38 34 34 35 36 39 46 54 63 70 73 74 73 71 63 56 49 47 51 61 68 67 66 71 75 72 71 70 70 70 71 74 78 80 86 94 98 97 94 90 91 97 97 98
22 23 25 25 27 28 30 36 44 50 62 76 80 79 75 70 65 59 53 57 69 72 74 74 76 75 71 70 69 67 68 70 73 76 78 80 81 82 83 83 84 84 84 84
29 31 32 32 31 30 30 31 36 42 46 55 78 87 86 81 79 73 67 62 73 83 79 83 79 78 74 71 70 70 70 70 71 72 75 76 77 77 77 77 78 77 78 78
32 34 35 36 37 38 39 39 39 40 46 50 50 81 93 91 88 88 85 86 92 97 92 90 82 78 77 72 72 73 73 74 73 72 71 72 71 69 69 69 69 71 72 73
38 38 39 40 40 41 46 48 48 50 50 52 54 57 90 86 90 96 97 96 94 94 94 93 88 84 83 76 75 74 74 71 69 68 68 69 70 71 73 76 77 74 74 77
42 42 41 38 38 40 44 48 52 56 58 59 60 55 84 88 79 83 93 88 87 91 88 85 80 76 75 77 78 75 73 73 73 73 75 76 78 79 79 75 68 63 66 65
39 35 34 33 34 34 41 48 52 54 60 64 65 63 76 94 87 76 80 86 78 74 79 76 71 65 61 59 61 63 70 73 74 74 72 67 60 55 53 53 53 55 59 60
31 32 31 29 31 38 47 58 64 71 72 71 70 70 80 97 97 96 81 73 79 65 64 65 62 58 57 57 54 56 57 58 57 52 49 48 48 47 44 42 47 49 52 57
33 34 33 32 38 42 52 73 84 91 89 82 77 77 88 95 97 97 97 89 77 74 65 59 54 55 57 57 56 55 56 54 51 48 45 41 40 43 45 47 49 52 54 57
40 41 41 44 51 51 49 63 90 95 94 87 81 86 95 97 97 97 98 97 80 73 67 61 55 53 53 52 52 52 47 44 42 41 42 43 46 46 46 48 51 53 54 57
41 50 51 65 76 69 56 55 72 93 94 89 87 93 97 97 97 93 92 95 87 65 62 60 61 56 53 51 50 46 45 44 44 45 44 45 48 49 50 51 53 55 56 57
43 59 60 74 85 86 78 64 59 75 88 91 94 97 97 97 97 88 80 81 85 85 67 62 58 58 56 54 50 45 43 45 46 47 46 45 45 48 51 52 52 54 55 58

GFSNGP_prec_cthk_066.txt.gz
RH
79 78 79 73 76 76 81 75 79 69 63 57 54 54 51 49 46 43 40 39 40 38 37 44 43 43 44 44 44 45 46 47 48 46 46 46 47 50 48 47 49 50 51 53
80 70 66 67 67 69 71 71 66 63 58 57 56 54 51 53 51 49 46 47 46 42 40 44 50 52 52 52 53 55 53 51 50 50 52 51 51 51 49 48 50 52 54 52
78 67 63 65 59 59 60 60 61 64 61 56 57 56 57 54 54 51 50 48 47 46 42 42 48 51 52 55 56 57 56 55 55 55 53 54 55 54 53 53 54 56 57 58
86 72 77 58 52 53 54 56 57 56 58 59 58 56 54 55 56 55 50 47 47 48 45 42 42 47 50 53 57 58 58 58 56 56 55 57 57 59 61 62 62 60 60 62
88 81 66 66 59 55 56 63 58 57 56 57 57 54 61 59 59 59 54 50 48 48 49 44 42 43 48 53 58 61 63 63 64 66 64 64 64 64 65 66 65 65 67 68
67 71 65 65 59 55 57 70 62 60 58 58 56 59 56 52 51 51 53 53 49 47 50 48 43 42 49 55 59 65 67 67 70 70 69 68 68 68 68 67 69 73 71 72
69 71 63 60 58 55 62 65 64 64 63 61 59 57 54 52 50 49 53 55 57 53 53 52 47 46 50 58 61 66 71 70 70 71 71 71 72 73 70 67 70 76 75 76
73 79 76 68 69 71 72 71 70 69 65 61 56 52 48 47 46 45 45 53 59 60 55 57 55 52 50 53 59 66 71 71 71 72 73 70 74 76 70 67 74 83 81 81
72 72 65 64 63 63 60 61 61 61 63 62 56 52 48 46 45 41 43 49 57 63 62 60 61 57 55 58 64 67 70 72 73 74 73 68 72 75 75 77 81 85 77 77
71 66 69 68 63 62 58 56 53 52 53 54 56 55 53 53 51 47 41 51 60 63 68 69 67 67 65 66 67 67 67 68 69 70 70 72 79 83 80 86 85 87 76 73
67 67 67 65 62 60 59 60 60 62 60 59 58 57 54 51 51 49 43 48 64 67 67 74 78 73 75 76 78 75 75 76 76 77 78 75 76 84 88 81 87 86 86 71
70 69 67 67 71 73 73 73 72 72 70 69 65 62 63 61 57 54 52 44 53 65 70 70 78 84 84 82 80 87 96 96 93 93 95 94 87 87 87 88 86 86 79 62
63 67 74 79 79 78 77 77 77 76 75 73 71 68 66 62 61 58 58 48 51 62 66 70 69 80 89 87 87 86 87 86 88 94 97 96 91 90 95 95 87 83 74 63
66 70 73 71 68 64 62 62 64 70 72 73 73 74 72 67 60 57 54 50 46 54 62 65 70 70 78 87 83 81 80 78 77 83 87 95 97 97 98 92 84 83 77 70
52 50 47 40 33 29 27 27 30 34 39 46 58 68 72 71 70 64 56 50 49 49 59 64 67 68 70 75 80 78 78 76 77 78 79 83 91 95 97 92 85 77 70 66
31 23 21 21 22 23 24 25 26 28 27 28 31 35 42 57 69 72 72 67 60 54 52 59 67 67 69 69 82 79 76 78 75 75 75 78 84 91 95 96 95 90 87 84
22 22 24 26 29 30 31 31 33 34 34 34 34 34 34 34 42 58 73 76 73 69 64 54 63 74 72 70 76 80 78 78 75 72 73 74 76 80 84 89 94 95 92 89
32 34 33 33 34 34 33 34 36 36 37 39 41 42 41 40 39 42 56 75 81 78 67 64 65 72 78 77 80 78 80 80 77 73 73 72 74 75 78 78 78 79 79 78
37 39 40 42 43 41 38 36 36 37 37 39 41 46 49 50 47 47 42 56 83 87 82 76 67 70 82 78 87 82 80 84 80 76 76 76 76 75 76 76 74 72 70 68
46 49 49 48 46 43 37 36 35 38 39 44 44 46 50 54 56 56 49 47 78 93 91 89 86 83 90 96 98 89 85 87 82 80 80 79 77 74 72 70 68 68 70 74
44 42 38 35 31 29 28 29 33 36 41 45 48 50 54 56 61 62 57 52 68 94 92 90 92 94 92 95 90 94 95 91 86 82 80 77 75 73 73 73 75 77 77 71
30 27 27 27 25 24 25 27 33 42 51 63 68 69 68 70 74 74 72 67 67 90 85 82 84 92 92 89 87 84 92 95 90 86 82 80 81 81 80 76 68 60 55 50
23 24 26 29 30 30 34 40 43 47 65 83 88 88 85 86 87 86 80 76 89 82 88 82 74 84 84 76 74 72 69 72 73 71 72 72 70 62 54 51 49 46 44 45
21 25 29 32 38 43 48 62 64 54 65 89 98 98 95 92 91 94 87 90 97 94 88 87 78 74 81 80 68 65 65 66 65 64 63 60 59 55 49 46 46 47 48 50
25 29 33 36 45 52 62 76 81 72 62 76 92 98 97 91 95 96 96 97 97 96 88 85 75 70 65 66 75 74 71 66 63 61 61 58 53 49 48 48 48 49 50 51
31 31 38 42 49 55 69 80 87 88 77 66 79 93 96 93 97 98 98 98 97 97 85 80 76 65 64 63 62 61 60 63 63 60 55 52 48 48 50 51 52 52 52 53
38 41 42 47 48 56 65 82 79 84 84 75 68 80 92 97 98 98 97 92 94 97 87 76 70 64 62 58 57 56 59 57 55 54 54 50 49 47 47 50 53 54 54 53

GFSNGP_prec_cthk_069.txt.gz
RH
78 77 78 74 73 75 76 73 75 67 72 69 66 64 61 60 56 53 49 46 43 41 39 40 37 40 42 39 39 40 41 43 45 46 48 47 47 48 48 48 48 46 47 47
82 75 76 75 68 72 76 75 73 72 71 66 67 65 63 57 55 55 52 49 46 43 43 43 40 39 45 46 50 51 53 53 53 53 52 51 51 51 52 52 50 50 51 50
80 68 67 68 63 64 67 70 72 73 67 65 65 63 61 59 58 55 53 51 50 48 45 46 43 40 45 49 53 54 56 57 56 56 58 58 57 54 54 53 53 55 55 56
85 76 79 62 56 56 62 67 65 66 67 67 68 67 63 58 56 57 57 54 50 48 47 47 49 44 43 49 51 53 54 56 56 58 60 59 57 57 58 56 59 62 62 62
80 79 66 65 62 60 62 68 65 64 63 60 57 56 58 59 59 56 54 53 55 55 50 46 49 49 45 46 50 54 54 58 61 62 64 64 64 64 65 66 65 64 62 61
77 78 71 64 61 60 60 69 65 64 63 61 59 61 62 61 60 53 50 46 48 51 53 49 48 52 52 49 48 53 56 60 65 69 69 71 72 70 69 69 70 69 67 67
72 73 66 66 65 63 64 63 66 68 68 67 66 63 58 54 52 50 48 45 45 49 53 55 51 52 53 51 50 57 63 65 68 73 74 74 76 74 71 70 72 72 71 68
72 79 83 73 72 72 71 71 73 73 72 70 68 65 62 58 52 49 48 44 40 46 52 56 58 57 58 59 59 59 62 65 68 73 75 78 77 73 73 72 71 74 74 75
70 74 73 74 72 74 72 72 72 69 67 63 59 57 57 59 58 54 51 48 42 43 54 58 62 62 62 62 63 63 63 65 70 74 78 77 76 76 76 75 77 80 78 80
72 73 77 72 72 71 69 64 60 57 56 56 57 57 55 53 53 53 54 53 50 44 56 64 63 68 68 69 68 69 69 70 71 72 72 73 73 73 75 80 82 83 84 86
70 70 71 70 67 64 62 65 67 66 66 64 64 64 63 60 58 59 57 53 53 47 52 68 69 68 73 77 78 79 78 81 82 80 81 82 80 82 82 80 81 88 89 89
63 65 64 66 68 70 72 72 72 73 74 73 73 72 71 70 68 64 62 63 59 50 49 61 66 69 71 79 84 86 85 83 87 96 97 97 97 96 96 98 85 88 86 87
50 52 57 62 63 65 62 60 58 55 53 55 58 62 66 68 71 71 67 66 62 57 53 57 64 66 76 69 82 87 89 91 91 90 91 90 94 98 98 98 93 91 92 91
49 50 54 53 50 45 40 37 34 31 29 29 33 35 39 45 53 62 69 70 65 59 51 51 55 63 63 74 71 76 83 90 88 85 84 81 85 92 97 98 98 96 96 87
48 45 42 41 35 30 27 24 22 23 24 25 26 29 29 30 30 30 38 53 66 71 70 62 53 54 61 64 68 69 74 77 84 84 84 85 83 84 87 95 96 98 95 90
42 39 37 32 25 24 26 29 31 31 32 32 33 36 36 36 36 34 31 36 38 45 58 69 67 64 60 61 68 69 68 70 82 84 83 84 82 83 87 91 94 94 93 87
39 37 35 31 31 32 35 38 41 42 42 43 44 41 37 38 41 42 42 40 39 40 45 49 59 71 68 67 62 69 71 69 75 80 81 82 83 81 81 84 89 93 96 98
39 41 43 42 40 43 46 47 44 42 40 39 41 41 43 45 44 45 47 49 46 40 44 49 52 58 70 68 71 66 70 76 73 77 78 81 82 80 79 78 81 84 87 88
41 43 45 47 44 42 40 34 30 29 30 33 39 43 44 45 49 51 52 53 52 48 47 53 56 56 65 74 73 72 74 77 76 80 79 80 83 80 80 81 81 80 80 80
44 40 36 31 27 26 22 22 20 19 21 27 37 43 49 53 55 54 54 53 56 53 51 56 58 59 63 79 83 74 72 81 78 81 83 80 85 84 82 83 84 84 81 77
27 22 19 19 18 21 23 24 26 28 32 34 41 50 61 66 72 68 63 61 65 64 57 58 59 56 62 84 89 84 82 82 87 90 88 83 86 86 84 84 84 80 77 76
18 17 17 19 23 25 28 30 34 38 46 52 51 68 78 84 88 87 82 75 74 76 73 62 61 55 59 90 95 92 92 97 98 97 96 90 90 86 84 82 80 78 78 79
18 17 20 26 32 32 34 37 45 52 63 72 71 74 88 97 98 98 94 89 87 90 89 77 74 70 71 92 93 88 81 87 89 92 95 95 93 91 87 85 82 76 68 61
22 26 28 31 39 43 44 47 51 58 71 79 85 78 83 92 97 98 98 97 98 98 94 90 86 84 86 89 96 84 87 83 78 80 82 81 78 76 73 69 62 57 54 52
27 31 32 37 39 42 51 54 59 59 64 76 83 83 76 86 98 98 98 97 97 96 97 97 93 95 88 82 90 92 80 81 78 71 71 71 70 66 66 64 62 60 54 52
32 36 42 50 51 49 50 54 63 63 61 69 79 80 80 76 94 98 98 98 98 97 97 96 95 89 81 72 73 83 80 75 75 74 67 67 70 70 67 62 57 53 53 54
40 52 60 58 59 56 57 56 56 58 61 64 71 79 80 73 86 98 98 98 97 98 98 91 89 85 75 61 61 64 66 65 73 77 76 71 65 59 55 53 55 57 57 56

GFSNGP_prec_cthk_072.txt.gz
RH
70 69 68 68 70 71 72 73 76 71 71 73 71 71 68 64 63 61 58 55 52 45 39 36 35 34 33 35 38 39 39 38 38 38 39 40 43 45 47 47 49 49 49 48
76 68 68 70 67 68 74 74 74 74 75 73 74 73 73 72 70 69 64 59 54 47 42 40 40 40 40 39 42 43 43 45 47 50 50 51 52 52 52 53 53 52 52 50
79 71 66 70 64 64 68 74 74 79 78 79 79 77 76 75 71 66 62 57 51 47 45 44 43 42 42 39 42 48 49 50 53 55 56 57 56 56 57 56 57 57 55 53
77 68 73 61 59 59 66 69 69 75 79 80 78 76 73 68 63 58 53 48 46 44 44 46 45 43 45 47 41 47 50 53 55 56 57 56 58 59 57 56 56 55 55 55
76 78 70 69 61 61 65 72 69 70 69 69 68 71 67 62 58 57 55 50 46 43 43 46 49 45 43 48 48 45 52 55 57 55 58 60 61 61 61 61 61 61 63 65
77 78 75 64 60 61 62 69 65 64 64 64 62 63 62 61 60 58 56 53 48 44 42 43 46 48 46 48 52 52 51 57 60 60 60 65 67 68 68 70 69 70 70 69
68 71 61 55 56 55 60 55 58 60 62 61 61 59 60 60 58 55 52 47 43 42 39 42 48 48 50 50 53 55 55 57 59 62 64 70 72 73 74 76 74 74 73 69
68 73 68 54 60 62 63 65 65 66 66 66 65 65 64 62 59 57 53 51 46 42 42 40 48 50 49 55 55 57 60 62 63 66 69 73 76 78 77 78 78 77 72 72
62 62 58 60 62 64 65 66 67 66 64 63 60 55 53 51 49 48 49 51 53 50 47 44 49 54 54 57 59 62 66 66 67 67 70 72 75 78 77 77 77 76 76 79
63 61 65 68 69 70 70 68 68 64 61 61 61 61 59 58 59 59 57 53 50 49 51 47 51 60 64 65 65 65 67 70 71 74 76 77 78 79 76 76 77 76 78 79
62 64 65 67 68 67 67 63 63 65 66 69 71 70 71 72 73 72 70 66 63 60 56 53 51 61 67 71 72 74 75 76 78 80 81 82 81 79 80 81 79 82 82 83
61 58 59 60 62 62 57 54 58 60 59 58 58 60 60 59 60 62 66 71 73 71 65 58 56 57 63 69 72 73 79 83 82 82 83 85 86 97 95 96 98 97 96 97
51 50 51 53 54 49 46 47 46 46 45 43 40 39 39 39 41 45 51 53 59 69 74 70 63 60 65 66 74 74 79 81 90 89 90 93 94 92 91 92 94 97 98 96
50 49 52 53 50 50 49 45 44 39 35 33 31 31 31 31 31 31 32 32 36 45 58 71 74 68 62 67 73 74 76 78 82 83 91 92 90 88 83 83 91 94 98 97
48 46 46 46 45 44 40 38 35 31 32 34 36 37 38 39 38 36 35 34 35 33 35 47 60 74 74 67 66 66 68 76 76 73 76 84 88 85 87 84 84 90 96 97
45 44 43 42 40 39 41 40 36 34 35 37 40 43 48 52 51 49 48 46 45 40 37 34 36 43 56 68 72 70 69 68 69 69 72 69 75 84 85 86 85 90 91 94
37 38 39 37 38 38 40 42 43 42 39 38 40 39 36 33 35 38 41 48 51 50 48 44 41 41 46 52 56 66 71 74 71 71 71 69 72 79 81 84 83 85 92 91
36 37 36 37 38 37 34 31 30 27 24 20 18 18 22 27 30 34 37 40 42 47 51 52 48 49 51 53 53 54 55 64 71 72 72 71 71 78 78 80 83 83 86 89
36 37 36 32 28 24 20 19 17 16 19 22 25 26 29 34 40 46 52 50 48 46 46 54 54 53 56 60 59 57 57 56 64 75 74 72 74 73 76 76 82 83 83 85
30 26 23 19 17 17 16 20 24 27 29 29 30 31 37 48 59 61 67 66 66 61 54 53 56 57 62 62 64 63 64 60 62 69 78 79 81 77 80 77 81 84 84 83
18 16 16 16 15 16 22 30 36 38 38 41 43 45 55 61 71 79 85 80 85 79 68 63 60 56 57 57 60 64 64 65 66 70 77 80 83 79 80 81 82 85 86 85
17 18 18 18 18 20 28 37 42 43 51 55 51 53 65 73 77 81 96 97 94 91 86 77 72 69 65 64 57 59 63 65 70 76 85 85 85 82 86 86 84 86 86 84
19 21 21 22 24 27 32 37 43 50 56 65 58 55 68 74 82 81 89 98 98 98 97 91 88 85 80 73 62 59 65 67 74 83 91 87 91 94 97 95 87 87 86 84
22 23 25 27 30 35 40 46 46 47 55 68 69 62 67 72 80 82 87 98 98 98 98 98 98 98 87 81 72 74 73 73 79 94 94 97 97 98 98 98 95 91 87 83
25 27 29 35 41 51 60 58 50 48 54 61 70 66 69 82 80 80 85 98 98 98 98 98 97 98 95 93 88 83 84 87 93 88 86 86 94 93 94 95 92 82 68 60
27 31 36 44 55 62 62 56 54 59 61 57 62 61 65 78 82 81 83 98 97 97 97 98 98 98 98 94 89 90 97 91 95 96 92 89 83 79 76 74 69 67 67 69
30 38 45 56 63 64 64 63 66 67 69 66 61 58 60 76 80 81 82 97 97 98 98 98 98 98 93 85 81 82 87 79 82 85 78 77 79 75 71 74 78 71 65 61

GFSNGP_prec_cthk_078.txt.gz
RH
64 62 60 60 59 58 60 57 58 55 54 55 55 58 58 57 56 55 57 58 56 54 53 52 50 47 42 38 35 33 34 33 33 32 35 35 35 36 37 37 39 41 42 43
64 59 57 58 57 58 58 57 56 55 54 55 57 61 62 63 63 63 62 59 58 56 53 52 50 49 47 44 41 38 37 39 39 39 39 38 40 42 42 42 43 44 42 43
65 59 54 56 54 57 58 58 59 62 61 64 63 64 66 67 67 66 66 67 65 62 60 57 54 48 44 42 44 45 44 43 44 43 43 44 46 46 48 47 47 48 48 49
66 59 62 53 52 53 59 60 58 60 64 66 68 69 70 69 70 70 69 68 67 66 63 61 59 54 49 43 42 44 43 43 46 48 49 48 50 51 52 52 53 54 53 52
65 67 54 52 53 56 57 59 62 65 64 64 66 71 74 73 72 72 70 69 66 62 58 56 54 52 49 46 42 42 43 43 44 48 51 52 52 53 54 57 57 57 56 54
67 69 65 55 56 57 58 61 61 64 65 64 68 70 70 69 68 66 63 62 60 59 58 57 56 56 53 49 46 44 43 45 45 48 51 53 55 57 57 59 60 60 60 58
61 65 55 49 49 50 54 49 50 53 56 59 61 63 65 64 64 63 62 61 60 59 58 58 57 53 51 50 48 47 46 49 50 50 55 60 63 62 62 61 60 60 61 62
55 55 58 47 48 49 49 51 54 56 59 62 63 62 61 59 58 56 54 53 53 52 54 56 56 55 55 53 53 51 49 51 51 54 57 62 65 65 64 64 66 65 65 65
52 49 47 48 49 50 51 52 55 57 59 60 60 59 57 54 51 50 50 51 52 52 51 52 57 61 59 58 56 55 57 56 56 56 60 63 67 69 69 68 69 69 68 68
50 49 51 51 52 53 55 58 59 58 57 54 52 47 47 46 47 48 50 52 55 59 55 52 50 52 60 66 61 56 57 64 66 66 67 68 70 73 75 74 74 73 72 72
49 49 51 50 52 54 57 55 53 51 48 46 43 41 40 40 42 44 48 49 47 46 48 49 49 49 52 57 68 73 68 66 64 68 74 76 76 74 77 79 80 77 77 78
48 45 48 49 51 53 51 49 47 45 43 41 39 40 40 39 41 43 45 43 39 36 34 33 34 38 42 46 53 65 74 78 77 75 74 78 80 81 81 84 83 82 82 80
45 46 46 46 45 45 47 45 42 42 41 39 38 37 34 35 37 40 43 41 38 36 36 34 33 31 32 33 37 44 58 74 84 82 80 78 77 85 86 90 87 85 87 87
43 43 41 41 41 43 42 39 36 33 32 32 33 34 34 37 42 42 40 38 37 36 38 43 42 36 34 33 33 34 38 52 72 88 84 86 85 88 94 91 91 94 94 94
40 40 38 37 38 36 33 31 29 29 30 34 37 36 36 33 26 21 18 18 20 20 21 21 22 24 32 39 43 39 38 38 52 74 92 89 88 89 98 99 95 97 98 96
43 39 36 36 32 29 29 30 30 31 32 29 24 21 17 15 15 17 21 25 26 27 31 34 32 33 34 36 35 39 45 44 45 54 79 95 88 89 89 97 94 93 94 97
38 34 33 29 28 28 30 31 26 20 16 16 18 18 17 18 23 30 35 38 39 39 39 40 39 42 46 45 44 42 40 50 50 53 58 84 95 88 85 94 91 86 84 83
33 31 29 29 28 27 22 17 15 14 15 16 18 19 20 27 35 42 44 46 47 44 44 47 49 53 58 58 56 54 48 45 56 57 57 65 85 96 87 85 85 90 89 79
30 29 28 26 21 17 14 15 17 17 18 18 19 23 30 36 46 51 51 50 54 53 46 49 58 67 77 79 73 68 62 53 54 65 61 61 65 83 95 90 86 84 83 80
27 26 21 17 14 14 16 18 19 20 22 23 25 29 35 42 54 60 58 55 61 59 48 55 69 79 92 92 87 79 73 62 56 69 68 62 58 56 71 88 88 85 80 79
23 18 14 13 14 16 19 21 22 25 28 33 38 44 51 55 63 71 66 63 65 63 55 68 77 85 95 95 97 87 81 69 64 69 70 65 63 59 57 61 75 81 81 80
15 14 13 14 17 19 23 26 32 36 40 43 49 56 61 62 63 64 73 79 70 64 57 74 82 94 97 95 98 93 86 74 67 70 73 68 66 63 61 60 63 68 72 77
13 12 13 15 18 21 25 31 39 44 50 56 61 67 73 76 76 72 66 80 78 65 62 76 88 97 95 98 98 96 89 78 71 70 79 75 67 65 64 64 64 65 67 73
11 12 14 17 21 26 30 38 49 57 63 68 72 78 83 81 80 83 85 83 74 63 69 82 92 98 98 97 98 98 96 85 77 76 82 82 71 67 67 66 65 65 69 71
15 16 18 23 30 37 45 51 54 58 62 67 72 81 86 91 90 89 89 81 66 62 78 88 96 97 95 92 98 98 98 90 82 78 83 83 76 72 71 70 66 69 74 80
16 22 29 33 36 42 46 51 54 57 60 64 70 78 85 93 97 93 84 71 60 69 82 92 98 98 98 98 96 98 98 96 87 78 80 81 78 74 70 67 68 76 82 83
27 29 30 35 42 45 47 53 54 55 59 63 64 74 81 88 92 87 74 61 61 76 88 97 98 98 98 98 98 98 98 98 89 80 77 79 75 68 66 66 78 86 92 96

GFSNGP_prec_cthk_081.txt.gz
RH
64 64 63 63 63 60 58 56 55 50 52 55 56 59 60 60 60 59 58 58 60 59 56 53 53 52 49 45 43 41 37 34 33 34 32 32 32 31 32 32 34 34 35 38
63 59 58 60 60 60 58 58 58 57 57 60 64 67 70 68 65 63 63 62 61 62 62 61 57 54 51 49 46 43 41 40 37 36 37 36 36 38 38 38 39 40 38 39
62 55 53 55 55 58 60 59 57 58 58 62 63 67 68 70 71 70 69 68 67 66 64 63 62 60 58 55 49 45 42 42 42 41 42 44 43 44 43 44 44 45 44 44
59 52 57 49 49 50 52 58 60 58 59 62 65 67 67 67 68 69 69 68 68 67 65 63 62 60 59 57 54 51 48 46 46 44 45 48 52 53 52 52 51 52 53 53
58 59 48 49 49 51 50 51 55 58 59 61 64 65 66 68 69 70 70 69 68 66 64 63 60 58 58 58 55 52 51 50 48 48 48 48 52 54 56 57 57 56 59 58
56 60 54 49 49 49 48 50 51 54 56 59 63 66 66 65 64 63 61 61 60 59 58 57 56 55 54 54 54 53 52 53 53 51 52 52 53 57 61 61 64 61 62 62
52 58 50 44 43 43 46 41 44 44 46 48 49 50 52 52 51 51 51 50 49 48 48 49 49 49 50 51 51 51 51 52 54 56 54 55 55 61 67 68 68 66 66 66
49 52 52 42 42 42 42 43 45 47 49 48 49 49 50 49 49 46 44 41 39 39 40 41 41 41 41 43 49 52 52 53 54 59 60 58 59 65 70 73 75 73 72 72
45 43 41 43 44 43 44 45 46 47 48 49 49 49 46 42 39 36 35 36 37 38 39 41 43 44 44 42 41 48 56 61 58 63 65 70 69 69 72 74 77 77 75 73
45 42 43 44 45 46 46 47 48 49 49 48 46 43 39 38 38 35 35 36 37 41 50 49 45 41 39 38 39 39 44 56 66 69 69 71 73 76 72 74 76 77 77 77
45 43 44 46 47 47 48 48 47 46 45 44 41 40 39 36 35 34 37 44 51 53 48 46 44 42 40 40 39 34 35 45 56 67 81 81 77 77 77 80 80 79 81 81
46 43 45 45 46 47 47 47 44 43 41 38 36 34 33 35 37 39 44 46 43 42 42 42 42 41 40 39 38 35 33 33 38 49 66 84 89 81 82 80 83 83 81 82
42 43 44 44 44 44 44 43 41 37 35 33 31 31 31 32 35 42 44 37 32 26 23 22 21 21 23 25 30 39 42 35 35 34 41 62 84 93 88 90 83 87 85 87
40 41 42 42 41 41 40 36 33 30 28 28 28 30 34 36 30 21 17 16 16 15 15 17 19 20 22 23 23 24 28 32 42 38 37 45 63 85 93 96 88 82 92 92
40 40 39 37 36 34 31 28 26 27 27 29 31 28 22 18 16 15 15 17 17 20 26 30 30 30 31 29 29 31 35 32 31 38 43 41 51 68 89 95 96 89 94 95
42 40 38 35 32 29 26 26 27 27 25 19 15 15 16 17 17 16 18 22 28 34 38 39 39 41 39 40 40 40 41 43 43 37 37 47 46 55 78 95 94 95 97 99
41 39 34 30 27 26 27 27 22 15 13 13 14 15 15 17 18 21 23 32 39 42 45 47 45 44 47 48 50 48 52 51 50 49 42 41 51 53 63 84 97 92 97 98
38 32 29 27 26 25 20 15 13 13 15 16 17 18 19 20 22 25 31 38 47 50 56 58 54 53 54 54 53 58 63 66 64 58 52 47 53 58 59 73 91 98 96 99
31 28 26 24 21 15 13 13 15 16 17 20 23 26 29 30 33 37 41 46 56 62 63 64 63 64 64 56 61 69 81 80 77 71 66 55 54 62 62 65 82 96 96 95
28 25 22 18 13 12 13 15 17 19 22 27 33 37 41 44 46 51 58 60 67 78 73 69 69 72 66 60 74 85 90 91 88 84 75 65 58 65 70 67 73 90 98 92
24 21 16 13 12 12 14 17 20 23 29 37 44 50 54 58 62 66 70 75 78 87 90 89 83 79 64 70 83 94 94 94 96 92 80 70 63 63 71 69 69 80 92 97
18 13 12 12 12 13 16 19 24 32 40 46 54 60 64 64 67 72 82 88 85 88 90 91 86 73 69 81 95 96 96 98 96 88 81 71 66 67 73 72 71 74 76 88
13 11 11 13 14 17 21 28 36 44 48 54 58 63 67 69 73 76 78 91 93 96 97 90 76 69 83 95 99 98 98 98 98 91 82 73 68 74 77 74 72 69 70 75
11 13 13 16 21 26 29 34 39 43 47 52 56 61 65 67 72 82 89 95 98 97 90 72 66 85 97 96 95 95 95 98 98 93 82 77 74 79 78 77 74 71 68 67
13 15 20 23 24 29 33 36 36 41 46 47 51 56 61 66 70 75 88 96 94 85 67 66 84 97 99 98 98 99 96 98 98 95 81 79 77 80 80 77 75 72 71 68
18 22 22 25 30 33 34 36 41 44 45 47 51 56 63 70 73 77 86 86 77 63 67 86 96 99 98 98 98 98 98 98 98 91 85 81 78 83 81 77 75 72 70 68
21 23 25 29 32 33 36 39 41 43 46 49 52 61 68 74 77 79 82 73 64 77 90 97 99 98 98 98 98 98 98 98 98 90 87 81 81 88 81 76 73 73 72 69

GFSNGP_prec_cthk_087.txt.gz
RH
53 53 56 53 53 49 49 42 43 43 46 51 54 58 59 59 58 58 58 62 60 57 57 56 53 53 53 52 51 50 48 47 45 43 41 41 41 42 43 42 39 39 39 38
53 44 46 45 44 45 46 44 40 42 44 45 47 51 54 55 57 58 56 57 58 58 55 56 54 53 52 52 51 51 51 49 48 46 43 42 41 41 44 45 46 43 41 40
49 41 41 44 41 42 44 44 46 45 46 45 48 50 52 52 53 54 55 54 53 54 53 54 51 51 51 51 49 49 48 49 49 48 47 46 44 44 45 47 49 49 48 47
50 40 51 39 39 41 42 45 45 46 46 46 46 49 48 48 49 50 50 52 55 53 51 49 48 50 47 44 44 43 43 43 44 44 45 47 48 48 47 47 50 52 52 52
47 38 35 36 37 40 40 39 40 42 43 46 47 46 46 47 49 50 51 50 49 49 48 45 42 39 36 33 33 34 36 37 39 41 41 43 46 47 47 47 48 52 56 58
39 46 39 38 37 38 36 36 35 38 39 41 43 43 45 44 46 45 44 42 41 40 39 38 37 32 30 31 31 31 31 30 32 35 41 43 45 46 45 47 50 52 56 62
40 41 36 36 37 36 37 39 33 35 36 38 39 39 41 41 39 39 39 37 34 33 34 32 31 29 29 31 31 32 32 32 34 35 36 40 45 47 49 50 52 54 56 62
34 35 35 33 34 34 35 33 34 35 36 38 39 40 40 39 40 38 36 34 33 30 29 29 30 30 30 32 34 33 33 33 34 32 32 34 39 44 52 57 58 58 59 62
32 33 30 31 33 34 35 35 36 36 38 40 39 39 41 40 38 37 35 31 29 28 30 33 34 32 31 31 32 32 32 33 35 34 32 32 31 37 45 55 67 68 68 69
35 32 31 32 34 35 36 37 39 40 40 41 42 41 39 37 34 31 28 28 28 27 29 28 28 28 28 29 28 28 27 27 29 30 33 32 32 32 39 47 59 73 79 76
35 32 33 33 34 36 38 39 41 41 41 41 40 38 34 30 28 27 26 26 26 26 26 24 25 24 24 24 25 23 22 22 23 26 29 32 37 36 34 35 50 62 80 88
30 34 33 35 36 38 39 41 42 41 39 37 32 30 27 25 24 25 26 25 23 20 17 14 14 13 13 16 20 21 21 21 21 20 19 20 24 30 37 36 34 49 64 86
32 33 35 37 38 39 41 41 39 36 34 29 26 24 24 24 24 23 18 16 15 14 15 16 18 19 19 23 25 25 26 28 29 30 26 25 25 26 25 27 39 40 51 66
34 35 37 37 39 38 38 37 34 28 24 22 21 22 21 18 15 14 15 15 16 18 18 20 23 24 26 31 31 31 34 38 37 37 39 38 37 35 31 29 29 41 41 52
33 35 35 36 37 36 34 30 26 23 22 22 22 17 13 13 12 14 16 17 21 24 25 28 30 30 34 39 38 39 42 46 48 47 46 46 44 43 42 37 33 30 40 44
33 35 35 35 35 33 29 25 22 22 21 18 14 12 13 14 15 17 21 26 33 36 38 41 41 37 40 47 49 50 54 57 58 59 56 51 52 51 50 49 44 38 33 45
35 37 37 36 33 29 25 23 22 18 14 12 12 13 15 17 20 24 31 38 43 46 48 52 53 54 53 55 62 66 74 74 74 72 65 58 56 58 59 58 54 46 40 37
36 39 37 33 29 24 23 20 16 12 12 12 13 15 18 24 30 35 41 46 50 53 58 63 66 69 73 78 84 88 91 90 91 86 75 72 68 66 67 65 61 59 50 43
43 39 33 29 25 22 18 14 11 11 12 15 17 22 28 34 39 44 50 53 56 59 60 69 74 78 82 86 94 96 97 98 98 92 82 79 75 72 73 70 68 67 60 52
40 33 29 25 22 17 13 11 12 14 17 23 28 30 34 39 41 43 48 51 56 62 64 69 78 87 92 96 98 99 99 99 98 92 86 79 75 80 82 83 79 73 69 59
35 29 25 22 16 13 12 13 17 21 23 26 28 31 33 35 40 44 50 55 62 68 70 76 84 93 99 99 99 99 99 97 88 80 80 84 93 90 87 88 87 81 76 62
32 26 21 15 13 13 16 19 21 23 24 24 27 31 32 37 42 47 56 62 65 70 76 86 94 96 96 94 88 80 74 80 91 96 96 96 93 93 94 96 93 82 76 65
27 20 16 15 16 19 19 21 22 23 22 24 26 30 34 39 46 49 53 62 68 75 79 78 75 71 70 72 81 92 98 97 94 94 92 93 93 96 98 98 92 82 73 66
20 18 16 19 20 20 21 22 23 22 23 25 27 31 35 41 47 52 56 60 62 64 65 67 74 86 94 98 99 99 99 98 98 98 99 99 98 98 98 95 85 79 71 67
20 19 22 21 21 22 22 23 22 23 24 26 30 34 38 43 46 49 58 66 73 80 85 89 95 98 98 99 99 99 99 99 99 99 98 98 98 98 92 84 80 76 74 70
22 23 23 22 22 23 24 23 23 24 26 28 31 33 37 45 52 58 66 72 77 82 89 94 95 97 98 98 99 99 98 98 98 98 98 98 95 88 87 81 80 80 81 84
25 24 24 23 23 24 25 24 24 26 28 30 29 32 42 48 51 55 63 68 71 84 93 94 95 97 98 98 98 98 98 98 98 98 96 91 89 88 82 83 85 88 93 89

GFSNGP_prec_cthk_090.txt.gz
RH
51 49 51 48 49 45 46 44 53 57 58 60 59 58 57 58 60 62 62 65 64 66 67 65 62 59 57 56 54 53 52 50 48 44 42 40 39 40 40 41 40 41 42 43
52 41 43 43 41 43 45 46 46 52 56 55 54 55 54 54 54 54 55 56 56 57 57 56 54 53 52 52 50 49 48 46 45 43 43 43 43 43 41 42 43 45 45 47
53 40 40 50 42 42 43 43 48 56 53 53 56 55 55 54 54 54 53 53 54 52 49 50 51 50 49 45 44 41 42 40 40 40 41 41 42 43 42 43 46 47 48 51
51 42 56 39 36 39 41 41 44 48 48 48 50 53 54 52 52 52 53 51 52 49 51 49 47 43 39 35 34 31 30 28 30 31 34 35 36 38 40 42 45 48 49 52
50 51 38 39 38 40 41 42 39 41 43 46 48 50 49 52 53 54 54 56 53 50 46 40 37 34 31 30 29 27 27 28 27 25 25 26 28 32 37 42 45 47 51 52
45 49 41 42 36 35 34 41 37 37 38 39 39 44 45 46 47 46 43 42 39 36 35 35 35 34 31 29 28 27 26 24 24 23 23 23 26 28 31 37 41 44 51 56
41 43 36 34 32 32 36 41 34 34 34 35 37 37 39 40 40 39 38 37 34 33 33 31 28 26 26 26 24 23 24 23 22 23 24 24 24 25 26 32 38 46 49 53
35 37 41 30 30 32 34 31 31 31 32 34 35 37 37 38 37 36 35 34 31 28 26 26 26 26 24 22 21 22 21 22 25 27 28 29 28 27 28 33 35 37 43 56
34 36 32 28 30 31 31 31 31 32 33 34 36 37 37 37 35 33 30 26 24 24 22 20 20 20 20 20 22 23 21 19 19 19 21 25 28 31 32 33 37 38 42 51
32 29 29 29 29 30 31 32 33 34 35 35 36 36 34 33 30 25 23 22 21 19 19 18 18 18 17 17 17 16 15 14 14 15 17 21 25 30 35 36 37 39 40 44
31 29 29 29 30 30 32 34 35 36 37 36 35 33 30 26 23 21 20 19 19 17 15 13 11 9 10 11 13 16 19 18 18 18 18 17 17 17 21 31 39 44 48 45
34 29 30 31 31 31 33 34 36 37 36 33 30 27 23 20 19 19 19 17 14 11 10 9 10 11 12 13 17 20 24 26 27 27 25 24 22 18 20 22 23 29 37 48
29 30 31 32 32 33 35 37 36 35 32 29 23 21 19 19 18 15 13 11 11 11 12 14 15 18 20 22 25 28 31 35 35 35 33 32 31 32 29 25 28 26 26 29
30 33 34 33 34 35 35 35 34 32 27 22 20 19 19 16 13 11 11 12 14 16 19 23 26 29 32 36 36 36 41 43 44 44 43 41 42 42 41 39 36 30 29 29
33 35 34 35 36 36 35 33 30 26 23 21 20 17 14 14 13 12 14 17 21 26 30 35 38 40 43 47 50 54 52 52 54 58 56 54 53 52 51 48 46 43 39 35
31 32 35 35 36 36 34 31 27 23 22 19 16 14 14 15 16 18 22 26 32 37 41 46 49 52 55 59 64 68 70 69 72 75 73 72 70 67 63 60 53 50 48 44
30 32 34 37 39 38 32 27 24 22 18 14 13 13 14 16 19 23 27 31 38 43 46 50 52 57 62 68 74 76 81 84 90 91 92 93 93 88 80 72 65 57 53 53
31 32 37 41 40 33 27 24 21 16 13 12 14 18 21 22 24 28 29 31 35 39 44 51 57 62 65 71 77 83 88 92 95 96 97 98 98 95 88 83 78 69 59 59
30 35 41 40 35 30 24 19 14 13 14 17 21 22 22 22 23 25 28 31 36 40 46 53 58 64 71 79 87 93 96 98 99 99 99 99 98 96 90 85 80 75 71 70
33 37 40 37 32 25 18 14 13 16 19 21 20 19 19 20 22 27 30 34 40 46 53 60 67 74 80 86 91 95 97 98 98 98 99 99 97 93 89 86 81 78 75 72
32 33 37 34 28 19 15 15 19 20 21 20 19 19 20 21 24 28 31 36 42 51 58 63 68 71 74 76 78 80 82 82 80 80 81 84 88 89 87 86 88 84 80 80
29 31 35 30 22 17 17 20 21 21 21 19 19 20 21 23 26 30 37 42 48 58 64 68 73 77 80 84 86 89 94 97 99 99 99 96 97 98 95 93 91 89 89 87
33 32 33 26 21 20 20 21 22 21 21 20 20 21 22 26 30 35 40 48 57 66 73 79 84 88 94 97 98 99 99 99 99 98 98 98 95 91 90 90 92 94 95 93
33 34 31 26 24 22 22 22 22 22 22 22 22 23 23 26 34 41 45 48 51 64 75 83 89 92 96 97 98 99 99 99 99 99 99 99 99 98 96 97 96 95 94 86
34 38 31 29 25 23 22 23 23 22 23 24 23 24 24 30 37 40 44 47 51 63 79 89 91 94 97 98 98 98 99 99 99 99 99 99 99 98 98 98 94 88 84 79
43 38 33 29 27 23 23 23 23 22 23 24 24 23 24 32 37 41 45 48 54 62 83 92 94 97 98 99 98 98 99 99 98 98 99 98 96 93 90 88 86 83 80 79
47 39 32 30 26 24 24 25 24 23 24 25 25 24 26 32 36 40 42 45 53 62 76 93 96 98 98 99 99 99 99 98 98 98 94 92 90 89 87 84 85 86 85 83

GFSNGP_prec_cthk_093.txt.gz
RH
47 44 46 46 49 48 49 46 53 60 63 62 62 64 67 69 70 71 72 71 71 70 69 69 69 67 61 57 53 50 48 47 45 43 42 42 40 38 37 36 38 39 41 42
51 39 41 43 43 45 47 47 49 49 52 53 55 54 53 54 55 56 57 58 58 56 56 55 53 50 49 46 45 43 41 40 38 37 37 37 36 36 37 37 36 35 36 38
48 41 38 48 38 42 45 49 51 52 48 48 50 49 49 48 49 49 49 50 50 49 47 46 43 42 39 37 35 33 31 29 27 28 27 27 29 29 31 32 32 34 36 36
48 42 52 37 33 37 41 45 48 49 48 47 46 46 47 47 46 46 47 48 47 45 43 41 38 33 31 28 25 25 24 24 23 21 21 21 21 22 23 25 28 30 32 35
47 50 39 40 37 38 40 43 42 45 48 48 48 49 47 45 45 45 46 43 40 38 35 31 29 28 28 26 23 22 19 18 19 18 18 17 17 18 18 19 22 26 30 33
44 48 41 39 35 34 34 41 38 37 40 42 43 46 45 44 45 43 41 38 36 34 32 30 29 26 24 23 20 18 16 16 16 16 16 15 16 16 16 16 16 18 25 32
44 47 37 34 33 34 38 35 34 34 35 36 38 39 37 38 38 38 37 36 34 32 29 26 24 23 21 21 23 24 24 23 21 21 21 21 22 22 22 22 21 22 21 28
39 40 36 31 31 32 32 31 32 33 34 35 36 37 38 39 39 38 35 33 29 26 24 23 22 21 19 17 17 16 17 17 17 18 18 19 20 21 23 26 27 28 29 28
33 31 30 30 28 28 29 30 32 33 35 36 37 38 38 37 37 35 32 28 25 23 22 21 21 20 20 18 17 16 16 12 10 10 11 13 15 18 20 23 26 29 34 38
30 25 27 28 29 30 31 32 34 35 37 38 38 39 37 35 32 27 23 21 20 20 19 17 14 12 11 11 11 13 14 14 15 15 15 16 19 21 22 22 21 23 27 32
33 29 29 29 29 31 32 33 34 36 37 38 38 37 33 29 24 21 21 20 18 16 14 12 12 12 12 13 15 16 18 19 22 24 27 27 27 29 28 25 25 26 25 26
33 29 29 31 32 34 33 34 35 37 38 38 35 31 26 22 21 20 17 14 13 13 12 13 15 16 18 21 25 28 30 30 31 34 38 39 37 33 34 32 30 29 31 29
28 29 32 33 34 34 35 36 37 37 36 34 29 24 22 21 17 13 13 13 14 15 16 19 21 23 26 30 34 38 40 42 44 47 48 49 48 43 37 35 38 36 38 37
31 32 33 35 36 36 38 39 38 37 33 28 25 22 19 15 13 14 15 16 19 20 21 23 26 29 33 36 40 44 48 51 59 64 64 63 61 56 53 46 41 39 42 42
33 33 34 35 37 38 37 37 37 35 31 26 22 18 14 13 15 17 18 19 20 21 23 25 28 31 34 38 44 48 53 58 64 72 75 76 77 73 71 66 59 52 52 51
30 33 34 34 35 36 36 39 39 34 28 23 17 13 13 15 19 20 19 19 19 21 23 26 28 33 39 45 49 52 56 64 73 77 80 84 88 90 88 86 79 71 64 60
29 30 30 31 32 34 39 41 36 30 24 16 13 14 18 20 19 17 16 17 19 22 25 29 34 41 47 54 59 63 68 73 81 88 90 93 94 94 95 96 94 90 80 73
31 31 31 31 33 37 39 37 33 25 18 15 17 19 20 19 18 17 18 20 21 24 30 35 41 50 56 60 65 69 73 77 81 87 93 96 98 97 98 98 97 95 88 84
34 33 33 32 34 36 34 32 26 21 19 19 20 19 19 19 18 18 20 21 24 28 33 40 49 57 62 67 69 73 76 79 82 84 86 91 97 98 98 98 97 94 90 85
32 32 32 35 36 33 27 23 24 25 22 21 21 19 19 19 19 19 22 26 31 36 41 46 56 64 70 74 76 80 82 83 84 86 88 90 88 87 87 91 93 91 91 88
32 32 35 36 35 26 21 22 27 27 26 23 21 20 20 19 20 22 24 29 33 35 39 47 60 70 75 79 86 90 93 96 98 98 98 99 99 99 98 96 93 89 86 85
31 30 31 35 31 26 26 33 30 28 27 25 23 22 21 20 20 25 29 32 34 37 39 51 67 78 82 86 87 90 93 96 98 99 99 99 99 98 97 94 93 93 92 88
38 37 37 32 30 33 38 36 30 29 28 25 23 23 21 20 21 25 27 33 36 41 44 55 77 83 86 88 90 92 95 97 98 98 98 98 98 98 98 97 92 89 88 89
42 41 39 37 39 45 41 37 32 29 27 24 24 23 20 20 24 28 31 34 37 42 45 58 81 86 89 90 92 95 97 98 98 98 99 99 98 98 98 98 97 96 96 94
46 41 35 44 48 49 42 39 32 29 28 26 25 23 22 23 25 26 30 33 35 39 44 59 79 87 89 90 90 93 97 98 98 98 98 98 97 97 98 98 98 96 93 90
45 37 43 53 56 49 43 40 33 31 29 27 25 24 24 24 26 28 31 32 34 36 42 57 74 85 88 87 87 90 92 94 97 98 98 97 93 92 91 90 90 87 85 82
42 42 54 57 57 49 43 38 34 32 28 25 24 24 25 25 26 28 30 31 32 33 40 54 69 79 85 86 86 88 90 91 92 90 90 89 88 87 89 90 89 89 82 80

GFSNGP_prec_cthk_096.txt.gz
RH
46 46 44 44 41 45 49 48 53 59 63 64 65 65 68 71 72 72 70 69 69 68 68 67 64 60 57 55 51 46 43 41 39 38 37 37 37 37 37 37 37 37 37 38
46 38 39 41 38 41 44 45 47 49 50 51 52 53 53 54 55 55 55 54 52 51 50 48 46 44 42 39 36 35 34 32 29 29 29 28 27 26 26 27 30 31 33 33
41 39 39 43 35 39 40 43 45 47 45 45 46 47 48 48 48 48 48 48 47 46 44 41 39 37 34 30 28 25 24 23 21 20 18 18 18 17 18 20 21 22 26 29
46 39 44 38 33 34 38 41 42 43 45 45 45 45 45 46 48 48 47 45 44 41 37 33 30 28 26 25 23 21 19 18 17 16 16 15 14 14 14 14 14 14 15 17
46 49 34 34 36 36 37 36 36 39 42 42 44 44 44 43 42 42 42 42 37 33 30 29 27 26 23 21 19 17 16 16 16 15 14 13 13 12 12 12 12 12 12 13
47 50 40 33 34 31 33 35 31 34 35 37 39 42 39 38 39 40 37 36 33 30 28 26 24 21 19 17 17 16 15 14 13 13 13 13 13 14 14 15 15 15 15 16
44 50 38 31 34 32 36 26 32 32 33 34 36 36 35 35 37 36 36 35 33 32 30 26 22 20 18 16 15 15 15 15 15 16 18 17 17 16 17 17 18 19 19 20
42 45 40 31 32 32 27 30 30 31 33 35 36 36 37 37 38 37 35 33 29 24 21 18 16 15 14 12 12 11 9 9 8 8 9 10 11 11 12 13 14 15 16 18
34 31 28 31 29 28 28 28 30 32 33 36 37 38 39 39 38 36 32 27 23 20 18 17 17 16 14 13 13 13 13 13 12 10 10 12 15 16 17 19 18 17 16 14
33 25 27 27 29 31 31 32 32 34 35 37 38 39 40 39 37 32 27 23 22 20 18 16 14 13 14 15 16 17 18 18 18 19 19 19 22 27 28 28 28 27 25 22
35 30 30 29 29 32 33 34 35 36 37 39 40 40 39 35 29 24 22 20 17 15 15 14 15 16 17 17 19 21 22 23 23 25 26 27 30 35 41 43 44 38 33 35
33 29 31 30 31 33 36 38 37 37 38 39 40 38 34 29 25 22 17 14 14 15 17 19 20 20 21 21 22 24 27 27 30 33 36 40 43 44 51 53 54 48 44 43
30 31 31 31 33 36 37 39 40 41 42 42 40 36 32 28 21 16 14 15 17 21 22 22 21 21 21 23 24 26 29 33 38 43 47 50 58 61 61 64 65 64 58 52
30 33 36 36 35 37 39 41 42 42 41 38 38 36 30 21 16 14 16 19 21 22 20 19 19 20 21 24 28 31 38 44 50 54 57 59 64 70 76 76 77 72 72 64
30 31 33 36 38 40 41 41 40 36 36 40 39 32 23 18 17 19 20 19 19 19 18 18 20 22 26 30 35 40 45 53 58 62 66 73 76 76 82 84 88 86 81 75
33 34 34 37 38 40 40 37 34 34 39 39 32 24 22 25 23 21 20 20 20 19 19 20 23 26 30 35 39 46 53 60 65 68 73 78 82 85 91 95 93 90 92 93
36 36 36 34 34 36 35 34 34 36 36 29 25 25 28 27 24 21 22 24 23 21 22 24 26 29 34 39 46 55 60 62 69 72 77 82 86 89 90 93 94 96 94 94
36 36 33 33 35 36 34 33 33 31 24 23 30 31 29 25 24 23 24 24 22 24 25 26 28 32 38 46 55 60 61 67 73 78 83 84 88 90 90 88 94 94 93 93
42 39 38 37 36 34 32 30 27 21 20 30 32 34 31 26 26 26 26 25 23 23 24 25 26 32 43 55 61 64 69 74 81 87 93 96 95 94 94 93 88 89 94 93
46 42 37 35 33 31 29 23 19 22 31 34 39 38 31 28 28 26 26 25 25 25 26 29 30 36 50 63 66 72 76 81 87 92 95 97 98 99 99 98 99 96 93 91
44 43 40 38 33 29 21 19 21 27 40 48 41 35 32 29 28 26 23 23 24 25 27 31 34 39 61 66 71 75 77 83 90 96 96 98 99 98 98 98 97 96 93 90
47 44 42 40 36 29 26 28 34 47 49 46 40 38 32 29 29 26 25 23 23 25 28 31 35 43 62 70 74 77 79 83 90 96 98 99 99 98 98 99 98 96 91 91
51 50 47 45 40 32 33 44 52 53 52 44 40 35 32 32 28 23 22 22 24 26 29 30 33 46 63 73 76 77 81 86 91 95 96 97 98 98 97 98 98 98 92 88
51 53 52 48 40 37 45 60 58 53 51 44 40 37 33 31 30 26 22 22 24 26 28 30 33 47 63 74 76 78 82 87 92 94 97 98 96 94 94 95 96 97 97 95
53 54 54 50 43 43 55 63 56 54 50 42 40 38 34 32 30 25 21 23 25 26 27 29 34 48 64 73 76 78 80 83 84 86 88 90 91 92 92 91 92 94 94 92
49 53 55 50 41 45 59 64 53 51 47 45 43 40 35 34 30 23 23 24 26 26 27 28 34 47 65 73 74 77 77 79 80 85 91 93 93 93 93 92 91 89 85 85
46 49 44 42 45 60 68 66 55 49 51 49 44 37 37 35 28 24 25 27 28 28 28 28 34 47 63 71 72 76 77 75 79 88 95 95 93 91 90 90 87 82 81 77

GFSNGP_prec_cthk_099.txt.gz
RH
41 41 42 42 42 40 48 48 51 52 58 56 60 66 70 73 72 72 71 69 69 70 69 67 66 65 62 59 56 50 45 42 39 35 32 31 30 29 29 29 30 31 34 37
40 35 38 39 38 38 43 43 46 50 49 48 51 52 53 54 55 55 56 56 56 55 52 50 47 45 42 40 37 34 31 27 25 23 21 20 19 19 19 20 21 20 22 23
41 38 39 41 33 34 37 39 39 45 41 42 45 45 46 47 48 49 50 51 50 49 47 45 40 35 32 30 28 26 24 22 20 18 17 16 14 14 13 13 13 13 13 14
48 37 38 31 30 32 35 36 38 39 39 41 42 42 44 46 47 48 48 46 46 43 38 34 32 30 29 26 22 19 17 16 15 14 13 13 13 13 13 13 13 12 12 13
50 51 31 28 30 34 36 32 34 36 38 39 41 41 42 43 43 44 44 45 41 37 35 33 31 27 24 21 18 17 15 14 13 12 12 12 12 12 12 12 12 13 14 14
48 51 38 26 32 31 30 32 30 33 37 37 39 43 41 39 40 40 40 37 35 34 32 29 25 21 19 17 15 14 13 13 12 11 11 10 10 10 10 11 11 11 12 13
48 53 38 29 31 32 30 24 31 30 32 34 36 35 35 35 36 37 36 35 33 31 28 23 20 18 16 14 13 11 10 9 9 9 9 9 10 10 10 10 10 11 13 13
45 49 43 29 34 31 25 26 26 28 30 31 33 34 35 35 35 36 36 35 32 28 22 19 17 15 14 13 12 12 12 12 12 11 11 11 11 11 13 14 15 15 15 14
35 33 26 29 29 29 29 29 30 29 30 31 32 34 36 37 38 37 35 31 25 20 18 17 15 13 12 13 14 14 14 15 16 17 17 16 16 15 16 17 20 22 24 24
34 25 27 26 28 29 31 31 32 32 33 34 35 36 37 38 38 37 33 26 22 18 15 11 12 13 17 20 21 20 20 20 19 19 19 19 20 21 23 25 30 32 34 35
38 29 32 30 29 30 32 33 35 37 38 38 38 38 39 40 38 33 28 24 19 14 13 15 17 19 21 23 24 21 20 19 19 19 20 22 24 27 31 35 44 46 45 45
35 29 32 28 28 29 32 33 36 37 38 39 39 41 41 39 36 34 28 21 17 17 18 19 20 21 22 24 24 22 21 21 22 24 25 29 33 33 39 47 51 53 56 60
35 34 35 33 33 32 31 35 37 38 38 40 40 40 36 36 37 31 23 21 21 22 22 20 20 21 24 25 24 24 23 24 26 29 33 37 41 45 47 49 59 63 65 71
43 40 38 36 37 39 39 37 38 40 41 41 36 33 33 35 29 23 24 27 26 24 22 22 23 27 28 27 25 24 26 30 34 38 42 45 49 51 58 61 66 70 81 82
45 44 42 38 39 41 44 44 42 42 42 35 31 32 33 26 21 23 31 32 29 25 25 26 30 29 27 26 25 28 31 35 41 46 48 53 58 60 65 70 77 79 82 88
41 46 47 45 40 42 45 46 45 39 34 32 32 30 23 19 22 27 35 36 32 28 30 30 29 27 26 24 28 32 36 44 50 51 54 57 61 66 74 80 83 85 84 84
49 48 50 49 44 44 43 41 39 35 33 33 29 20 19 21 25 28 41 38 32 34 31 30 29 29 24 25 32 38 47 54 57 59 64 70 74 78 83 87 88 89 86 88
45 51 56 52 49 44 44 44 39 35 33 26 18 20 21 23 32 47 40 33 36 32 32 32 31 28 26 29 35 47 57 60 60 64 69 74 78 88 95 96 96 95 93 92
42 47 55 53 53 51 52 47 41 34 26 18 20 23 29 43 46 41 36 37 30 32 32 30 28 25 27 31 40 58 62 62 64 70 76 79 82 89 96 97 97 98 99 98
40 40 46 54 54 51 42 35 29 23 22 27 33 41 49 47 47 42 39 32 34 32 29 27 23 24 28 32 48 63 65 65 68 74 78 82 85 89 94 97 97 98 98 97
36 39 41 44 48 46 42 36 29 26 31 37 51 56 51 50 46 42 36 37 33 31 31 26 23 25 29 36 56 66 67 66 70 75 79 84 89 92 93 94 95 97 99 97
35 38 37 38 42 45 39 33 32 36 46 62 59 53 49 48 46 41 38 32 33 32 27 23 24 25 32 40 60 67 66 67 70 72 77 81 85 89 92 91 93 97 99 95
36 37 36 38 39 39 40 38 41 49 60 63 59 54 51 48 43 42 40 33 32 31 25 23 24 25 30 46 62 64 66 64 69 77 81 85 87 88 88 89 90 94 95 94
35 37 40 40 37 37 36 37 48 57 63 62 59 52 48 48 52 45 36 35 31 28 25 24 24 25 29 47 60 62 62 65 73 79 84 89 91 91 92 91 90 91 90 92
33 38 42 39 39 39 35 34 48 53 59 66 62 52 50 51 48 43 43 36 31 24 24 25 25 24 30 46 58 62 62 65 70 80 84 88 90 90 90 90 89 87 86 86
36 37 40 40 39 36 32 34 43 54 66 67 60 55 54 53 47 45 44 35 29 24 26 25 25 25 33 45 57 62 64 64 70 79 83 86 86 82 81 82 82 83 81 78
39 40 43 43 44 38 33 36 46 54 61 62 65 61 57 53 47 46 41 35 27 26 27 27 27 26 35 45 58 63 67 67 70 75 82 87 85 84 80 86 90 88 86 84

GFSNGP_prec_cthk_102.txt.gz
RH
41 37 38 37 37 41 47 48 50 42 50 47 50 54 57 60 59 59 59 61 65 66 65 64 65 67 67 63 63 62 58 50 42 38 34 30 28 26 25 24 24 25 26 26
41 34 38 39 36 36 39 42 46 46 47 43 45 46 48 49 50 51 51 52 53 54 53 49 45 42 38 34 31 28 24 22 20 18 17 16 15 14 14 14 14 14 13 13
44 36 37 38 32 32 33 37 40 46 40 42 43 45 45 45 46 48 48 48 48 47 45 41 35 32 30 28 25 22 20 17 15 14 13 12 12 11 11 11 11 10 10 10
50 40 39 25 29 29 33 34 37 38 38 40 42 43 43 44 44 45 45 45 44 43 39 34 32 30 28 24 20 18 16 14 13 12 11 10 9 9 8 8 8 8 8 9
50 53 32 24 29 31 33 29 30 33 36 38 40 41 41 41 40 40 41 42 43 39 36 34 32 29 24 20 18 16 14 13 11 10 9 9 9 9 9 9 9 8 8 8
52 53 35 21 30 32 32 32 25 31 37 38 38 41 37 34 36 37 39 40 39 37 35 33 28 23 20 18 17 14 11 11 12 12 12 12 11 11 11 11 11 11 10 10
54 57 41 28 31 32 34 22 28 29 31 34 36 35 34 35 36 39 40 39 38 36 34 28 24 21 19 16 12 12 13 13 14 15 15 14 13 13 13 14 14 13 13 13
49 54 47 28 31 31 25 24 26 28 29 32 33 35 36 37 38 39 39 39 38 36 30 25 21 18 14 11 12 14 15 14 15 16 18 19 19 18 18 18 18 18 18 18
36 33 28 30 30 29 29 29 29 28 29 31 33 35 36 38 39 40 41 40 37 32 27 23 17 13 12 14 15 15 16 17 18 19 22 22 22 21 21 20 20 22 24 27
36 27 29 30 30 30 34 34 33 32 32 32 33 35 38 39 40 40 40 39 35 32 26 18 16 17 18 18 18 18 18 19 23 25 26 27 27 27 27 27 27 29 32 35
44 37 32 30 32 34 35 35 36 37 37 37 38 38 40 40 40 40 37 35 35 30 22 21 23 24 24 24 24 24 25 28 29 29 28 27 27 28 29 29 33 37 40 43
41 37 39 38 34 35 35 36 36 38 40 41 41 42 41 41 40 35 32 33 29 21 21 23 28 30 30 30 30 31 31 31 30 30 30 30 31 28 29 31 35 40 44 51
40 40 43 41 40 38 33 36 39 41 43 44 42 42 44 41 34 32 31 24 20 21 22 28 32 34 33 33 33 31 32 32 31 32 32 33 32 34 35 32 38 42 48 55
35 37 38 38 42 44 44 40 37 41 45 43 43 45 43 35 33 31 22 19 22 21 27 31 36 34 34 33 28 31 31 33 34 33 34 37 39 42 43 43 44 47 55 65
32 30 32 39 42 43 47 47 46 45 47 49 48 43 35 33 30 21 18 22 20 27 34 36 36 37 34 30 33 30 30 32 33 37 41 44 46 47 50 55 60 63 65 73
32 27 28 30 37 40 45 51 52 55 51 50 45 36 33 28 19 18 21 22 30 41 36 38 38 35 31 35 31 31 30 33 39 43 45 48 52 56 60 66 70 76 81 87
28 30 31 32 35 39 41 46 52 52 53 47 38 34 28 17 18 24 29 39 45 43 41 40 36 34 37 33 34 32 28 36 44 48 50 55 60 66 69 76 80 82 86 92
27 29 31 35 36 35 37 43 46 49 46 40 39 34 26 27 33 35 48 54 47 44 41 39 39 35 34 36 34 31 30 45 50 52 54 58 63 68 75 80 87 87 89 94
27 27 33 33 34 34 36 41 45 39 42 37 28 22 24 35 46 58 55 45 43 41 42 42 36 35 34 33 34 28 41 52 54 53 57 64 70 75 78 80 87 89 88 91
32 31 31 34 36 37 38 36 36 34 32 33 30 34 45 59 60 53 50 47 45 42 44 42 39 35 32 32 26 31 48 55 54 58 63 70 77 83 85 85 85 87 87 90
29 31 32 31 34 37 35 32 28 28 24 26 36 45 52 58 63 53 48 44 46 51 43 42 42 34 32 24 24 36 51 52 57 63 68 77 83 87 90 90 86 84 85 92
30 31 32 32 30 31 32 31 28 24 25 29 39 52 60 60 58 53 53 51 52 44 46 43 36 32 30 25 23 38 50 53 61 66 73 80 81 83 88 89 89 86 83 89
32 33 32 32 33 34 35 34 28 24 28 36 44 49 58 58 57 55 53 51 44 50 47 39 33 34 26 22 25 40 51 56 62 68 75 78 79 80 81 82 84 85 83 83
33 36 36 35 34 34 35 35 31 27 29 39 47 48 54 57 59 58 55 52 52 48 43 37 35 34 25 23 28 40 50 57 63 70 75 78 79 81 80 78 78 79 79 80
37 38 40 39 37 37 36 36 32 27 30 39 47 52 60 57 63 63 58 52 50 45 42 37 37 30 26 24 31 41 53 61 65 71 75 78 84 92 96 95 91 88 77 75
42 40 40 42 42 43 41 39 37 30 32 40 48 53 56 63 66 63 56 53 53 45 39 38 37 28 27 25 33 43 56 63 66 69 72 77 83 88 92 98 98 95 87 84
48 44 44 46 47 47 44 41 42 34 34 46 52 55 60 68 67 64 56 55 53 46 41 40 33 29 28 26 34 44 57 65 66 68 70 75 80 85 89 91 97 98 98 96

GFSNGP_prec_cthk_105.txt.gz
RH
44 40 40 39 38 41 46 44 50 39 45 43 45 47 48 50 52 50 50 50 51 54 54 57 63 70 72 67 68 66 64 57 50 37 33 32 29 24 27 19 17 16 17 15
45 36 38 41 38 39 40 39 43 43 39 36 39 41 45 44 45 45 47 48 47 45 43 40 36 33 32 32 30 29 26 21 18 16 15 13 12 10 9 8 7 7 7 7
48 38 38 33 30 34 33 34 35 42 35 38 41 42 42 43 43 44 45 46 45 45 44 40 35 33 31 29 26 21 18 16 14 12 10 8 7 7 8 8 8 8 8 8
52 39 28 21 27 30 32 32 35 36 36 39 41 41 42 42 42 43 43 44 44 43 42 36 33 32 30 26 22 18 16 14 10 9 9 10 10 11 11 11 11 11 11 11
51 52 30 21 28 30 31 29 29 29 32 37 40 41 41 41 41 41 41 42 43 43 40 36 34 32 29 23 19 16 13 10 10 12 13 13 13 14 14 14 14 14 14 13
55 54 35 20 29 30 30 31 26 29 31 35 38 40 36 37 39 39 40 40 41 41 39 38 36 32 25 20 17 12 11 13 14 15 15 14 14 15 15 17 17 17 17 18
56 59 43 30 32 33 32 22 25 28 30 32 33 33 33 33 34 36 38 41 42 41 41 39 35 28 23 18 14 14 16 17 17 17 16 16 16 17 18 19 20 21 21 21
57 62 51 29 32 33 31 30 31 32 32 31 33 34 35 36 37 38 41 42 43 43 41 37 32 29 21 17 18 19 19 18 18 19 20 22 23 24 25 27 27 27 27 26
42 39 34 36 34 31 29 29 29 31 33 34 35 36 37 37 39 41 42 44 44 43 39 35 33 26 24 24 24 28 31 31 30 29 31 32 30 30 29 29 30 31 32 32
40 35 40 40 40 41 41 38 31 32 33 33 33 35 38 40 41 42 43 44 44 40 35 33 26 25 26 23 24 30 32 34 34 32 30 30 32 33 33 34 33 32 33 34
40 40 40 38 35 38 40 44 44 39 34 34 37 37 37 39 41 43 45 45 39 34 31 23 23 23 20 22 30 35 33 32 32 32 31 33 33 34 34 34 39 40 41 43
38 37 36 33 36 39 41 42 45 45 43 42 41 40 40 41 40 40 41 37 33 29 23 22 21 20 23 32 37 34 29 29 30 30 33 35 37 36 37 41 42 41 41 44
34 36 34 33 34 35 39 39 42 45 46 48 51 53 52 46 44 43 35 32 28 20 21 20 20 24 33 37 32 31 32 31 30 32 37 43 43 45 44 33 35 40 44 48
32 31 31 31 31 28 33 39 42 43 46 48 51 54 55 54 49 40 34 28 19 20 19 23 29 33 39 38 41 37 35 37 34 39 46 47 47 43 41 42 42 41 46 55
28 29 27 26 26 24 24 33 37 41 48 51 53 57 60 60 51 42 31 20 20 21 28 37 42 46 46 42 36 38 36 35 38 40 48 47 40 41 44 47 48 49 51 56
22 22 23 21 21 23 26 32 38 40 45 51 52 52 52 45 42 33 21 23 26 30 48 53 47 43 42 38 40 35 38 36 38 47 46 39 41 47 51 54 57 57 56 61
22 21 22 26 25 27 29 32 37 40 43 48 49 44 37 39 32 21 24 29 43 57 53 47 43 43 40 43 38 39 37 37 42 45 42 42 50 55 61 65 65 65 65 68
21 23 25 26 30 30 29 30 34 38 40 42 41 39 35 28 26 35 49 58 55 54 50 47 46 44 46 42 42 36 35 36 40 44 43 49 56 61 66 68 70 72 72 70
25 26 27 29 30 31 31 34 34 39 42 37 31 28 25 22 31 47 51 57 56 50 49 49 52 46 46 47 35 33 35 31 42 45 49 53 59 63 62 64 71 75 76 72
28 28 30 31 31 31 33 35 36 36 34 32 27 22 20 27 40 50 55 55 55 55 54 53 44 47 47 34 32 34 29 33 44 49 53 58 62 65 67 69 70 74 75 74
30 31 32 33 34 33 34 36 35 32 31 28 24 19 22 30 40 49 53 55 55 55 51 46 51 50 40 33 36 30 25 35 46 53 58 62 68 74 80 79 76 71 73 74
32 34 35 37 38 37 37 36 36 34 31 26 22 25 32 37 41 47 53 55 55 55 54 53 53 44 36 38 33 25 26 36 47 57 61 65 68 76 84 90 86 76 71 73
33 35 38 39 40 40 41 39 36 35 34 27 24 26 33 40 43 47 53 57 60 60 53 54 53 42 39 36 27 25 27 38 49 59 64 67 70 80 84 88 94 85 78 73
39 42 42 43 44 44 45 45 42 40 39 32 26 28 31 38 42 47 51 56 59 58 54 56 49 44 42 32 26 25 29 40 52 61 65 66 74 83 84 91 96 97 83 86
54 53 50 49 48 47 50 52 51 48 44 41 32 31 33 38 44 44 49 55 61 57 54 55 49 46 40 29 27 26 31 42 55 62 66 65 74 81 85 89 97 97 94 85
66 64 60 57 52 51 53 56 56 55 51 46 38 35 38 41 44 45 51 59 62 55 52 54 48 46 37 28 27 26 32 44 58 63 65 64 70 76 82 87 95 97 98 97
73 73 71 63 58 56 56 59 58 56 55 51 46 38 41 43 46 50 57 60 59 51 53 52 49 42 33 28 28 27 33 47 61 65 67 65 69 71 79 85 92 97 98 97

GFSNGP_prec_cthk_108.txt.gz
RH
36 33 35 36 35 37 44 35 39 26 32 30 35 41 44 45 48 49 48 48 49 49 48 45 43 44 51 55 54 61 61 59 53 46 38 35 32 28 22 19 22 21 19 15
42 31 34 37 33 34 34 34 36 34 30 29 32 36 42 45 46 45 44 45 46 45 44 42 38 34 32 31 29 26 24 22 22 18 17 14 7 7 6 9 8 7 8 8
42 35 35 30 26 29 31 29 31 36 27 29 34 37 39 42 44 44 44 44 44 43 42 42 38 34 33 31 28 23 19 16 13 9 7 7 8 9 10 10 10 10 10 10
51 40 30 21 25 27 31 29 30 29 29 32 35 36 38 39 41 42 42 43 43 43 43 43 39 35 34 31 26 20 17 14 10 9 10 11 12 12 12 13 13 13 13 14
54 45 26 22 29 31 33 27 28 29 28 31 33 34 33 35 37 39 40 41 42 43 44 44 40 39 37 32 26 21 16 11 12 13 13 13 13 14 14 14 14 15 16 17
51 56 36 24 29 31 31 28 24 26 27 28 32 35 31 31 33 34 37 38 40 42 43 42 41 40 38 32 26 19 14 15 16 15 15 16 17 19 21 23 23 24 24 24
54 57 41 32 33 36 33 25 27 29 32 34 34 32 33 33 33 35 37 39 40 41 41 41 42 41 36 32 24 19 20 19 19 21 27 34 34 33 32 30 28 27 26 28
51 56 52 29 34 35 33 35 38 36 34 36 36 35 36 36 36 36 38 39 42 43 43 42 42 37 34 26 24 25 24 25 27 30 37 35 33 32 32 29 28 28 27 27
33 29 27 29 30 35 37 38 40 41 42 41 38 37 39 39 40 41 42 42 44 44 44 44 41 37 30 27 29 26 23 25 29 33 33 33 31 28 26 28 31 34 37 37
32 24 26 28 33 35 36 35 35 37 38 39 42 44 44 46 47 47 48 49 48 46 45 40 34 25 23 29 27 26 31 35 34 33 32 30 27 29 31 35 41 42 42 43
30 28 29 31 31 30 32 33 34 36 38 39 40 40 43 49 54 56 55 52 50 49 43 35 25 21 23 21 21 27 30 31 33 33 29 28 32 36 39 43 45 44 42 42
25 24 27 30 28 28 30 31 31 33 34 37 37 38 42 45 47 51 55 56 54 45 38 28 22 22 20 24 32 32 33 38 40 37 37 38 38 41 46 44 41 39 43 45
25 26 27 26 27 29 29 29 25 29 31 34 35 36 40 45 48 49 48 49 48 42 31 23 23 22 27 35 39 42 47 45 40 37 35 38 47 49 46 36 39 41 43 42
28 29 28 27 27 27 27 24 22 23 31 34 37 39 42 45 47 50 52 47 40 31 24 24 24 30 44 52 53 49 46 41 40 38 40 50 53 49 45 43 42 41 45 48
29 28 26 26 27 27 26 22 20 24 30 32 36 40 43 46 47 47 43 36 26 21 24 29 42 50 54 52 50 47 45 47 45 47 47 48 49 42 44 46 50 52 52 53
27 25 25 25 25 24 25 25 26 31 32 34 36 39 42 44 43 38 35 24 20 25 43 53 52 52 52 49 52 51 48 51 48 44 44 48 44 46 48 53 56 58 58 60
31 28 25 25 27 28 31 31 32 33 35 37 40 43 45 44 38 33 20 18 33 41 43 47 50 47 49 55 51 49 51 42 38 40 40 43 46 48 56 62 65 67 64 64
33 30 29 31 31 32 32 33 35 36 37 38 40 42 41 37 32 23 19 31 37 43 47 47 49 52 53 44 46 51 43 41 42 35 37 46 49 56 63 67 72 73 67 64
35 32 35 36 37 35 35 35 38 40 41 41 41 39 35 32 27 22 27 35 41 45 48 51 51 50 50 50 52 43 42 44 36 27 38 50 55 62 67 72 79 82 72 65
39 35 34 37 39 36 37 39 41 42 43 44 41 36 33 28 24 26 33 37 42 46 50 53 54 54 50 53 48 42 44 38 25 27 40 55 59 64 69 78 86 90 78 67
39 37 36 36 38 38 40 43 46 47 48 45 43 37 31 27 28 34 36 37 42 45 48 52 53 48 49 51 44 44 40 27 23 29 44 56 61 66 73 81 91 93 84 76
44 43 39 37 38 39 42 45 49 51 50 47 44 40 33 30 31 35 37 38 39 40 46 49 50 48 52 48 44 44 34 24 23 31 48 57 62 66 75 82 92 95 91 80
47 48 43 40 40 41 44 47 50 52 53 52 47 42 37 34 34 36 38 39 38 41 46 50 50 49 50 46 43 39 28 25 24 34 51 58 60 65 73 82 92 95 93 85
55 52 53 46 47 54 52 51 52 55 59 59 54 49 43 37 36 38 40 40 40 42 48 52 51 47 50 45 43 35 26 25 26 37 53 58 58 63 70 82 93 95 93 87
61 60 60 62 65 72 67 61 57 56 61 63 61 56 50 41 39 41 44 45 43 47 54 56 47 46 49 45 42 31 25 25 27 41 56 59 58 62 67 80 91 96 93 90
64 65 64 65 72 81 81 74 64 59 62 64 65 61 58 50 43 44 48 47 46 51 56 55 46 47 49 45 41 29 25 25 29 44 58 61 59 62 64 77 89 95 95 93
80 83 84 85 77 84 88 81 72 64 66 68 69 65 62 58 49 46 48 48 48 54 57 56 49 49 50 45 41 28 25 26 30 46 59 63 59 60 60 73 87 94 95 95

GFSNGP_prec_cthk_111.txt.gz
RH
33 30 30 31 35 35 38 40 48 29 28 24 28 32 34 38 40 41 43 44 46 45 45 43 42 39 34 32 31 29 30 33 36 39 36 29 21 21 19 19 19 18 18 23
41 29 30 31 31 32 34 34 34 33 31 29 26 28 30 33 40 40 42 43 42 42 43 43 42 40 36 33 32 29 26 21 17 14 10 7 8 9 9 8 9 8 10 13
41 30 34 31 23 25 26 26 27 32 26 27 29 32 33 36 41 40 42 44 43 43 43 43 42 41 36 34 33 30 25 20 16 10 9 10 11 11 12 11 11 11 11 12
48 40 43 25 24 23 25 25 27 29 28 28 29 32 33 36 38 41 43 45 45 45 45 45 45 44 41 39 37 33 26 22 16 12 13 13 12 12 12 13 13 14 15 15
53 45 29 25 26 29 30 25 25 26 26 26 27 31 29 30 34 38 42 44 45 47 46 47 46 45 43 42 40 36 30 23 17 17 16 14 14 15 16 18 22 26 28 30
44 52 36 21 25 28 30 30 24 25 27 29 31 30 34 37 37 34 37 38 40 43 45 47 47 46 45 44 42 36 31 22 24 23 21 21 22 24 28 36 40 41 39 38
51 51 36 25 28 30 30 25 28 31 35 37 39 35 33 29 30 33 35 36 37 39 41 43 43 44 44 42 36 33 27 28 26 25 28 28 31 35 36 40 41 40 38 36
46 49 46 26 30 27 24 27 30 33 35 36 36 37 36 38 38 39 40 40 39 40 41 42 41 42 41 36 30 22 22 22 22 26 28 30 34 38 42 42 39 37 35 32
31 29 25 26 22 26 27 29 32 34 33 33 34 35 37 39 41 41 43 45 48 50 49 47 46 44 38 32 22 20 20 20 21 25 28 30 34 35 38 39 40 39 37 36
27 22 23 25 26 27 29 30 30 30 31 33 34 35 36 37 39 42 45 46 47 48 47 47 48 45 38 28 22 20 20 22 25 29 33 34 34 35 37 40 41 42 44 42
29 25 26 24 25 27 28 28 27 28 29 29 32 33 37 38 38 40 43 46 49 51 50 49 46 37 26 21 23 22 25 30 36 38 37 41 43 42 43 45 49 50 49 49
29 25 26 25 28 28 28 28 29 29 27 24 27 30 35 37 38 41 43 46 48 50 51 48 39 27 20 19 21 30 40 46 50 48 48 45 43 45 53 56 54 52 51 50
28 29 29 30 31 30 29 30 30 29 27 23 26 31 35 37 39 41 44 45 48 49 47 39 25 18 19 24 38 46 48 49 50 50 46 52 55 53 50 51 49 49 50 48
33 35 33 34 32 31 29 28 28 28 26 22 28 33 35 38 39 42 45 48 50 45 36 25 18 23 35 41 42 46 48 48 56 53 55 52 47 47 53 49 43 45 51 54
36 36 35 35 33 32 29 29 28 25 25 26 33 35 37 39 41 44 46 49 44 38 23 19 30 34 36 41 44 49 50 52 46 51 46 47 48 49 51 46 47 51 52 57
38 37 36 33 33 32 30 29 31 30 31 34 36 37 38 41 42 44 44 40 36 23 22 34 33 35 38 43 49 50 47 43 48 43 46 50 44 45 45 48 54 58 61 68
44 38 35 34 34 33 34 36 38 37 37 39 40 40 41 43 44 44 39 35 25 23 34 38 35 37 41 41 44 44 46 46 43 44 44 40 34 42 48 52 58 62 71 80
42 40 37 36 37 38 36 39 40 40 40 43 46 47 48 47 46 41 36 28 23 29 37 38 37 40 41 41 42 43 47 43 42 44 38 27 31 46 53 57 62 70 80 83
43 40 39 43 43 40 40 40 40 41 44 48 51 51 52 50 46 40 34 27 27 34 37 38 37 38 41 42 40 43 45 41 41 40 27 24 36 51 57 61 69 77 87 86
40 43 44 44 44 44 44 42 42 43 46 51 55 56 55 52 48 39 33 30 32 37 37 39 37 38 42 43 41 45 44 41 40 31 23 24 40 55 59 62 72 84 90 90
46 45 44 43 45 48 47 43 44 45 48 52 55 56 57 54 47 40 37 36 36 37 38 38 37 39 41 45 44 45 43 42 38 27 22 25 42 56 59 63 73 87 90 86
45 41 42 46 49 48 50 46 45 47 50 54 55 54 59 57 48 41 41 40 39 39 40 39 39 40 43 48 45 44 43 41 37 26 23 28 46 56 55 62 73 88 90 85
49 53 58 59 60 56 51 53 49 49 58 60 58 55 60 61 53 47 44 42 41 41 43 43 43 44 47 49 44 45 44 41 36 25 23 30 50 55 55 62 74 89 90 87
57 57 59 61 63 64 64 62 64 68 74 73 66 62 66 69 60 55 48 46 45 43 46 47 46 48 50 44 45 46 44 41 36 26 24 34 53 57 56 60 73 89 90 91
60 58 60 63 63 64 68 70 71 78 85 79 72 69 68 73 71 64 56 51 50 48 49 49 49 51 51 46 47 48 44 42 37 26 25 37 54 58 55 58 72 88 91 92
71 74 68 65 66 70 74 78 80 87 92 88 79 76 74 76 77 71 65 60 54 52 52 52 51 54 53 49 49 49 45 44 38 27 26 40 55 60 54 56 70 86 90 93
73 77 75 71 69 77 85 92 96 97 95 96 89 84 81 82 83 75 72 67 59 55 52 54 53 55 55 53 51 50 47 45 39 29 28 42 56 60 54 54 69 84 90 92

GFSNGP_prec_cthk_114.txt.gz
RH
35 32 33 33 32 32 36 36 47 28 33 25 27 28 31 34 35 35 38 40 42 44 45 44 43 42 41 37 34 34 32 28 23 19 16 13 11 10 14 21 19 13 16 22
39 30 32 36 29 30 31 30 34 33 29 26 27 29 29 28 31 35 37 40 43 46 46 47 46 45 44 41 37 35 33 29 24 19 13 9 10 10 9 8 8 8 9 9
48 38 39 40 27 27 28 28 29 34 25 27 29 30 30 31 31 35 35 36 39 42 42 43 44 44 44 44 41 39 37 33 26 20 13 13 13 12 11 11 11 12 12 13
50 44 53 29 22 22 25 26 26 25 27 27 26 24 24 26 28 31 36 39 41 42 41 41 42 44 44 44 42 41 39 35 32 26 23 22 18 16 16 16 16 16 18 21
58 57 38 28 24 25 26 24 21 23 23 24 23 25 27 30 28 31 32 35 38 38 39 40 41 42 42 41 40 40 40 37 33 28 28 26 24 23 23 24 25 26 29 31
49 59 49 26 25 24 26 31 21 23 25 25 29 35 32 33 34 33 32 32 34 36 38 40 40 41 42 41 39 38 33 28 20 20 20 21 23 28 33 35 38 42 42 43
52 56 43 26 28 28 31 24 24 24 26 29 33 32 31 31 30 31 32 34 37 39 41 41 41 43 44 43 42 40 34 25 21 19 19 19 20 22 23 28 33 38 43 47
52 56 51 29 30 30 23 22 23 25 27 30 32 31 31 32 34 33 34 36 38 40 42 44 45 46 45 44 42 36 29 21 20 20 21 22 22 24 29 33 34 35 37 39
36 34 26 27 25 25 25 25 27 28 29 29 30 29 30 31 34 35 36 36 39 41 42 44 46 46 46 44 41 33 23 19 18 21 24 30 37 39 38 39 42 44 46 47
29 23 26 28 28 27 27 28 27 29 30 29 28 29 28 30 33 35 36 36 39 41 43 44 45 46 46 42 34 23 18 18 21 32 41 43 42 43 44 46 51 52 53 52
33 29 29 28 26 28 28 29 29 30 29 29 31 28 26 27 30 34 36 37 40 42 44 46 47 48 45 36 22 17 19 31 38 42 46 46 45 48 51 53 53 55 55 56
37 29 33 33 32 34 31 32 32 30 30 31 31 28 26 29 32 35 37 39 41 44 46 48 50 48 37 22 20 28 33 34 38 41 44 48 44 47 47 45 50 56 56 52
37 35 38 37 35 36 35 35 35 34 32 31 30 30 27 33 36 37 38 40 43 46 48 51 49 38 22 28 31 30 31 33 36 40 40 38 42 42 43 44 49 49 47 48
42 40 40 37 38 37 38 37 36 33 33 33 32 30 30 37 39 39 40 43 45 48 50 47 37 24 31 35 30 31 32 36 37 35 39 42 37 40 41 36 37 40 45 52
46 44 42 43 41 40 39 36 35 33 33 32 33 32 38 40 42 43 45 47 48 51 47 38 25 31 36 35 31 32 32 35 36 39 39 37 40 39 29 27 40 44 49 55
49 47 43 43 43 40 37 36 35 35 36 35 37 39 41 43 46 48 50 50 51 47 40 28 28 35 38 35 34 33 36 35 36 39 36 37 39 29 23 32 44 49 54 61
44 45 43 44 40 35 36 35 37 41 41 41 43 44 44 46 53 56 56 54 49 43 33 27 34 38 37 38 35 34 35 35 38 39 37 38 35 25 25 39 50 54 59 68
43 45 45 44 41 37 36 41 45 45 44 45 46 47 49 51 57 58 58 54 49 42 31 33 38 40 40 41 38 35 36 38 41 40 37 36 32 24 29 45 53 54 62 76
42 46 47 45 44 41 44 44 45 45 46 47 50 52 53 55 58 60 63 57 49 40 35 39 42 41 41 41 40 37 40 40 42 40 39 34 29 22 31 50 54 55 66 80
54 56 56 51 48 46 45 45 46 49 51 50 50 51 52 55 58 61 62 59 51 40 40 43 44 42 42 43 43 40 42 41 42 41 39 35 27 22 35 52 53 57 72 82
53 55 55 53 49 48 46 51 58 55 50 54 52 50 53 56 62 62 60 64 51 45 46 45 46 46 44 46 48 45 45 40 43 43 40 35 26 23 41 52 52 59 76 83
65 64 62 52 52 55 58 62 64 68 62 55 61 59 62 72 70 61 60 66 56 50 50 48 47 49 48 49 52 50 43 40 45 44 41 35 25 25 46 53 52 60 79 84
76 76 70 56 53 57 58 60 62 66 68 66 62 76 82 82 77 68 62 68 64 57 54 52 49 50 52 51 55 52 44 42 47 45 42 36 25 29 49 54 52 62 80 86
75 75 79 70 56 53 53 57 62 66 68 70 77 83 89 85 78 74 72 74 72 64 59 57 52 53 55 53 57 55 47 44 49 47 43 36 26 33 52 56 52 62 82 87
68 71 72 73 68 55 57 63 64 68 70 73 78 86 92 94 82 81 80 80 80 73 67 63 58 57 57 55 58 57 50 46 49 48 44 36 28 36 54 57 52 62 82 87
69 70 69 72 68 69 74 76 78 73 73 78 84 90 96 98 92 87 85 84 85 80 74 70 63 60 59 57 60 59 53 47 51 50 46 38 30 37 55 57 52 60 80 85
56 67 70 72 75 75 76 77 81 78 75 80 91 98 98 98 98 92 89 89 90 84 80 75 68 62 59 59 61 60 54 48 53 52 47 40 32 39 56 57 53 58 75 83

GFSNGP_prec_cthk_117.txt.gz
RH
34 33 34 34 34 34 37 33 44 25 31 23 26 27 27 28 28 28 29 33 35 36 38 38 38 39 41 40 38 37 35 34 32 27 22 16 12 11 10 9 8 8 8 8
43 34 36 37 33 33 33 33 34 31 29 22 24 26 27 27 28 28 30 31 36 38 39 42 42 43 44 44 43 41 40 40 39 35 30 23 21 19 16 15 14 13 12 12
46 38 37 37 26 26 27 26 28 35 23 22 23 26 26 24 24 26 28 31 36 36 37 40 42 42 43 44 43 42 41 39 38 32 26 24 27 28 28 27 24 22 21 20
52 43 50 21 23 23 25 23 23 23 22 23 24 24 23 22 26 30 31 33 35 36 37 39 40 41 44 45 45 44 42 41 38 32 24 21 19 20 21 22 25 30 33 34
52 56 36 28 22 23 23 22 20 21 22 23 24 24 23 24 29 30 32 33 34 36 39 39 38 41 43 44 43 42 40 39 34 27 21 18 17 18 18 20 21 22 25 30
52 59 51 26 25 25 23 27 19 20 21 24 26 28 25 26 28 29 28 28 29 32 35 37 40 42 44 44 43 42 41 39 33 25 20 18 18 17 18 21 23 27 32 36
51 53 42 28 28 30 32 23 20 21 22 25 27 26 27 29 28 30 29 30 32 33 35 37 39 42 43 44 44 43 42 38 30 23 18 18 18 20 26 32 34 36 38 40
55 55 51 28 32 31 27 25 25 25 24 24 27 28 29 30 29 29 30 31 32 35 36 38 39 42 44 46 46 45 43 36 26 19 18 21 27 31 34 37 39 40 41 45
42 38 26 29 27 28 29 29 31 30 30 30 31 30 30 29 29 29 29 32 34 34 36 39 41 43 44 47 48 47 40 28 19 19 25 27 29 30 34 38 36 38 44 49
48 43 40 36 32 32 34 35 35 35 34 33 33 33 31 30 29 28 29 32 35 35 37 40 42 44 46 47 49 43 31 20 27 29 27 28 30 32 35 34 37 41 41 44
48 50 46 43 36 34 36 34 34 36 36 34 36 34 33 31 31 29 30 33 37 38 39 41 44 47 48 50 45 32 25 31 30 27 27 29 32 33 33 37 38 40 46 49
50 47 43 43 43 41 41 38 36 37 38 37 37 36 35 32 31 31 33 36 40 41 42 44 47 49 52 48 34 30 33 31 30 27 28 30 32 34 36 34 35 34 32 35
44 45 42 39 37 40 43 42 43 42 41 39 37 36 35 34 34 34 39 41 43 44 46 48 51 54 52 37 32 35 34 32 32 28 28 30 33 35 32 34 30 21 28 38
46 46 45 48 45 43 41 42 45 45 43 39 36 36 37 36 35 36 42 44 47 49 51 53 54 53 40 31 37 37 35 35 34 30 28 31 35 33 34 31 23 19 34 42
44 43 42 43 48 49 44 43 43 43 40 37 37 39 39 37 38 45 46 47 50 55 59 60 54 46 33 34 40 38 37 37 36 31 28 32 35 35 34 28 22 24 39 45
42 41 42 42 43 46 47 44 44 39 36 35 38 41 43 44 46 51 51 52 55 61 64 62 52 43 31 40 43 39 40 40 39 34 31 34 35 35 33 28 21 30 43 46
42 42 43 44 47 47 45 43 40 37 37 41 45 47 48 49 52 53 56 56 59 64 68 63 50 38 38 46 47 43 43 42 41 40 34 35 36 36 34 27 22 35 47 48
42 42 42 42 44 47 45 44 40 42 44 45 45 47 51 55 55 58 60 58 61 62 69 63 49 40 41 48 50 47 45 45 44 43 38 35 35 37 35 26 24 40 47 51
37 37 38 43 47 49 50 48 44 44 46 52 53 54 60 63 60 60 61 60 63 61 67 67 49 46 45 48 49 50 49 49 47 46 39 36 36 38 35 25 27 44 46 54
49 46 52 66 69 68 65 62 55 58 62 65 72 71 61 66 71 65 65 66 67 68 64 69 55 50 51 51 50 51 53 53 51 46 39 37 37 38 35 26 32 46 46 58
76 74 74 73 75 71 63 57 60 63 64 69 72 76 75 69 73 73 70 76 77 71 62 67 63 56 54 53 52 53 55 56 54 47 41 38 39 39 34 26 37 47 47 61
73 74 75 75 75 78 76 65 55 59 63 64 63 65 70 75 75 83 87 89 85 77 67 70 67 62 58 57 55 56 58 59 57 50 43 40 39 39 34 28 40 48 47 63
55 60 61 65 72 71 72 75 75 70 62 59 57 61 64 74 82 91 95 89 83 80 73 77 75 68 62 61 57 59 60 61 58 53 46 41 41 40 35 30 43 50 47 66
43 40 42 43 49 54 65 67 73 76 69 64 61 62 64 73 79 88 94 96 86 84 82 82 81 73 69 67 61 62 62 63 60 56 49 42 42 41 37 32 45 52 48 67
34 38 42 43 39 38 45 65 68 67 67 67 72 74 73 76 79 84 92 97 94 89 89 90 89 79 76 70 65 65 64 64 62 59 50 44 44 43 38 34 47 52 48 66
45 48 46 44 41 36 36 56 66 70 76 79 76 75 76 78 80 87 94 97 97 95 94 91 94 86 80 75 69 66 65 66 64 60 50 45 46 45 40 35 47 53 49 63
51 53 54 52 45 42 45 54 58 73 82 83 79 75 79 83 87 92 97 98 98 97 97 94 96 90 86 79 73 67 66 67 65 61 50 47 51 46 42 36 48 54 50 59

GFSNGP_prec_cthk_120.txt.gz
RH
34 32 34 33 34 33 38 37 44 23 28 18 22 22 23 23 24 25 26 28 29 31 35 37 37 38 40 40 40 39 38 38 37 36 34 29 23 21 21 22 24 25 24 22
46 35 37 40 35 35 35 35 35 32 31 22 21 23 23 21 22 23 23 24 26 28 33 36 36 38 40 39 40 40 40 39 38 36 34 28 21 18 17 16 17 18 19 21
46 39 40 38 26 27 31 31 31 36 23 21 22 22 21 22 23 20 20 26 29 30 34 37 37 38 40 40 42 43 43 41 39 37 34 27 21 18 17 17 16 16 16 17
53 44 40 22 25 25 27 25 26 25 23 22 23 24 23 23 22 21 24 29 30 31 32 34 37 39 41 41 42 44 44 43 41 40 37 29 23 20 19 18 18 19 19 20
54 56 34 27 24 24 26 24 22 22 20 21 24 25 25 24 23 23 27 28 28 29 29 32 35 39 41 42 45 46 46 45 44 43 38 28 22 20 19 18 19 21 24 27
52 58 40 22 25 26 27 29 21 23 23 22 24 28 24 25 26 28 29 29 29 28 28 31 34 39 41 43 45 46 48 49 48 44 36 26 20 18 19 22 25 26 28 30
54 57 43 27 28 30 33 24 25 26 27 27 29 25 24 25 27 28 28 28 29 29 29 31 35 38 40 42 46 49 51 51 50 44 31 21 19 23 26 26 24 25 29 31
72 74 66 41 43 41 34 31 29 31 32 31 31 30 29 30 30 29 28 27 28 29 31 33 35 38 41 43 47 49 50 50 49 38 24 24 29 29 26 25 25 29 29 31
59 56 49 47 48 45 43 41 36 35 37 36 34 35 34 34 34 34 32 30 30 32 34 36 38 40 42 45 47 48 50 51 42 28 31 33 31 28 26 26 27 28 31 34
51 47 45 46 45 42 41 39 36 36 39 41 38 37 37 38 37 37 36 35 34 36 39 43 44 45 46 48 50 50 53 46 32 34 35 33 30 29 28 26 28 31 31 32
44 42 42 42 43 41 39 39 37 35 35 38 40 40 41 39 38 37 37 36 35 36 41 47 48 49 50 52 53 52 50 36 34 36 36 34 32 31 28 28 29 28 31 33
47 42 43 43 43 44 43 41 39 35 35 36 38 39 41 41 39 38 37 36 35 41 44 50 50 53 54 55 55 55 41 35 38 38 38 37 34 32 31 30 28 28 30 29
47 45 45 44 43 43 43 44 44 46 44 40 39 41 41 38 38 38 38 39 37 46 53 52 52 55 58 63 62 49 37 39 40 39 40 39 36 34 33 31 27 28 28 29
49 45 43 43 41 42 43 43 43 45 48 45 44 43 42 40 38 38 38 40 46 49 52 57 55 59 67 68 61 45 41 44 43 42 42 42 39 37 36 31 28 28 28 29
42 45 44 42 42 42 43 44 44 46 48 48 45 42 41 40 39 38 39 48 54 50 57 60 62 69 76 71 54 40 45 47 47 46 44 44 43 40 39 33 30 30 28 30
44 44 44 44 42 42 44 47 48 50 50 45 43 39 39 41 41 45 50 54 55 56 61 69 66 68 81 66 49 44 48 50 51 49 48 48 46 44 40 34 32 30 29 32
42 38 35 36 39 40 44 47 45 48 45 43 41 40 43 45 48 54 56 60 62 66 72 71 67 70 77 64 46 47 50 52 52 51 52 52 49 45 41 35 34 32 30 35
49 50 47 45 42 41 43 44 44 46 44 41 41 43 49 62 67 71 76 76 74 72 75 73 74 67 74 63 50 50 52 54 53 53 55 56 53 46 42 37 35 32 32 37
56 60 62 59 54 58 70 66 61 56 57 52 57 61 71 85 85 76 77 86 83 78 76 75 72 65 73 67 57 55 55 54 54 55 57 59 54 47 43 39 37 33 34 40
48 48 49 56 67 69 66 70 82 79 70 66 69 68 75 76 81 84 82 77 83 79 76 79 80 77 65 70 63 60 59 58 56 57 60 61 56 48 45 40 37 34 37 42
38 35 34 47 49 55 68 70 67 71 79 77 72 67 67 67 69 78 81 80 81 88 91 91 88 79 66 72 70 63 63 61 58 60 62 62 59 52 47 41 38 36 38 43
27 30 27 27 30 40 50 54 55 56 63 70 78 80 72 67 68 73 77 73 85 98 95 91 89 83 71 75 75 69 65 63 61 64 64 63 61 55 48 43 38 38 39 45
20 22 24 27 31 32 37 42 41 44 47 52 56 61 70 75 66 67 70 75 84 93 93 94 87 88 76 82 83 73 70 66 63 65 65 65 63 57 49 43 40 39 40 47
27 28 28 26 27 30 34 38 43 44 40 34 34 44 52 62 64 68 74 78 82 89 93 94 95 90 83 90 86 77 76 69 66 67 66 66 64 58 51 44 43 41 41 48
33 33 33 31 36 42 48 47 47 46 43 39 39 45 50 55 61 73 77 79 80 84 93 97 97 95 93 95 91 83 79 72 71 68 68 67 65 59 52 46 45 43 42 48
35 38 43 47 54 60 61 59 55 56 57 42 40 47 62 71 77 84 80 79 80 84 93 98 97 97 97 97 97 87 82 76 74 69 69 69 66 60 52 48 49 46 42 49
40 50 56 57 65 68 67 67 63 61 68 59 50 56 63 72 82 81 79 77 80 86 93 98 98 97 97 97 97 91 85 80 75 70 70 70 66 60 51 50 51 48 43 49

GFSNGP_prec_cthk_123.txt.gz
RH
35 33 34 33 34 36 44 40 46 22 29 20 21 23 21 22 21 22 21 20 21 22 24 28 31 34 36 37 38 39 39 39 38 37 36 34 31 25 20 17 17 17 17 16
45 36 40 42 37 38 38 37 38 35 34 23 22 23 23 23 23 22 21 20 18 19 25 26 30 35 38 38 41 40 41 42 41 41 39 37 34 27 22 19 18 17 16 16
46 40 40 38 29 32 34 34 33 39 25 20 21 22 22 22 22 21 21 19 20 23 27 27 30 36 38 39 41 41 41 43 43 43 42 41 38 31 26 22 19 16 16 17
51 42 32 20 24 25 28 27 29 29 25 23 22 21 22 23 23 23 23 21 22 25 27 27 29 33 37 40 40 39 41 42 43 45 45 45 43 34 26 21 18 18 21 23
50 54 31 22 22 26 27 24 24 27 26 27 26 27 24 24 25 25 24 25 27 28 27 27 27 29 35 38 39 40 42 44 45 47 48 46 42 32 24 21 22 25 26 24
56 57 44 29 31 34 38 37 27 30 33 31 33 35 30 27 28 29 29 29 30 29 28 29 28 31 35 38 40 41 43 46 47 49 48 48 39 28 24 28 28 27 25 24
69 74 62 49 44 49 49 42 43 44 42 39 37 36 35 32 32 33 34 34 33 31 30 30 30 33 37 41 43 46 47 48 49 49 48 46 33 26 32 32 29 26 25 26
74 82 74 50 51 49 46 47 46 44 43 39 35 34 35 38 38 40 40 38 37 34 33 33 34 37 41 44 48 51 50 51 52 52 50 39 28 34 34 33 30 28 27 27
62 58 51 48 49 47 47 47 47 44 41 39 39 37 35 35 37 38 38 38 39 39 37 36 37 39 44 48 51 56 52 54 54 54 46 31 34 35 35 34 32 29 29 29
52 46 47 45 44 45 46 46 45 44 42 39 38 36 35 37 38 39 41 40 39 40 39 38 38 41 47 53 56 59 55 57 57 55 38 35 36 37 37 36 34 32 32 30
50 43 42 42 45 45 46 46 44 45 45 44 42 41 40 39 38 39 42 42 41 40 39 39 41 45 50 56 61 58 60 60 62 51 35 41 39 41 40 37 35 35 34 30
49 46 49 48 47 45 44 43 41 40 41 44 44 43 44 43 43 41 42 44 43 43 42 40 43 50 55 60 66 63 62 70 66 43 43 46 44 46 44 39 38 38 37 32
48 48 49 43 40 40 40 40 41 41 43 44 45 45 45 46 48 46 43 44 44 45 46 43 48 55 65 60 68 67 70 83 65 41 49 50 50 50 48 44 42 40 39 32
46 43 39 38 41 42 43 43 45 45 47 47 48 48 47 47 44 44 43 43 44 42 42 45 54 61 70 68 71 72 88 83 54 45 55 53 54 54 52 50 46 43 40 34
46 48 50 50 49 45 43 42 42 41 41 40 38 39 40 40 39 41 44 45 44 44 50 56 61 75 75 77 75 83 91 75 47 51 57 56 57 56 56 55 50 45 41 35
54 53 53 53 52 49 43 40 36 35 36 36 36 34 35 37 41 42 47 52 53 54 60 67 76 81 79 82 86 85 81 66 49 56 58 59 59 58 59 59 53 46 42 35
45 47 50 50 47 46 46 49 47 45 41 39 35 33 35 40 48 56 60 60 63 68 76 85 87 88 89 88 81 75 83 63 56 57 58 60 60 60 62 61 53 47 43 37
48 45 42 40 42 45 45 48 52 57 58 58 62 66 65 66 65 72 79 82 77 82 88 87 85 86 85 83 79 75 75 69 59 61 61 61 62 62 65 62 54 49 45 37
52 51 51 55 51 45 38 39 41 47 52 57 58 64 71 71 68 69 78 81 89 82 81 85 86 83 80 81 77 75 72 80 66 63 65 66 63 65 67 64 57 51 46 37
48 47 45 50 52 46 35 28 29 31 33 35 42 51 56 64 65 71 67 66 74 79 83 84 86 83 81 83 86 86 68 70 75 63 69 67 65 66 68 65 59 52 47 37
38 39 40 36 28 26 22 24 24 23 26 31 31 32 39 45 53 60 60 63 66 73 80 85 87 92 90 93 89 82 71 71 79 72 73 70 66 67 69 67 61 53 48 38
18 15 16 16 15 16 18 22 25 24 25 26 32 36 38 37 39 37 45 50 60 70 72 78 85 91 91 88 88 83 76 73 80 76 74 70 67 69 70 68 62 54 49 41
20 21 19 18 18 17 20 25 32 34 34 34 40 42 42 43 43 39 33 39 57 63 61 66 79 91 95 90 87 88 81 81 88 81 77 73 69 70 70 69 63 55 50 43
19 20 22 21 19 20 22 25 38 41 46 47 47 51 53 51 48 42 41 38 49 58 55 64 85 93 96 94 88 92 88 94 90 84 83 75 73 72 71 70 63 56 52 47
26 30 28 26 25 26 31 39 48 52 54 52 54 57 58 60 57 47 42 46 60 66 63 80 86 92 96 98 95 96 93 98 92 88 83 78 75 73 72 70 63 57 53 50
31 32 31 32 32 33 45 61 69 68 71 64 58 63 63 64 66 59 54 54 68 76 82 90 88 88 92 98 97 98 98 97 95 89 86 81 76 74 73 70 63 57 53 54
35 36 38 36 34 51 70 82 83 79 83 79 71 76 74 73 75 72 66 62 66 77 80 76 81 87 91 98 98 98 98 97 96 91 87 82 76 74 74 70 63 58 54 56

GFSNGP_prec_cthk_126.txt.gz
RH
32 31 32 31 32 38 44 39 43 22 29 20 22 23 22 21 22 23 21 20 21 22 21 20 22 26 30 33 37 39 38 39 40 39 40 40 39 37 36 32 27 24 21 19
44 37 41 43 39 38 38 38 40 37 38 27 25 24 23 22 22 23 23 21 22 22 21 21 25 27 29 32 36 39 39 40 41 40 42 42 41 40 40 35 30 25 22 20
46 40 40 36 30 33 37 36 35 40 28 28 28 28 27 26 25 26 26 27 25 24 23 25 29 30 32 35 40 41 42 44 43 42 43 42 42 42 42 37 30 25 23 25
51 40 33 20 24 26 31 32 34 34 31 31 32 32 31 31 28 27 30 31 29 29 30 30 30 30 32 38 42 44 45 46 45 43 44 44 43 42 41 36 28 25 28 31
50 55 36 21 27 32 34 38 36 36 37 37 41 40 36 33 32 30 33 34 34 35 36 34 32 31 32 33 38 45 45 47 48 47 49 49 47 45 43 34 25 31 34 32
58 60 46 37 46 44 43 47 43 47 50 51 47 44 41 36 32 32 32 32 34 36 37 37 34 32 32 33 36 43 49 51 54 52 56 55 48 47 43 27 31 35 34 32
77 75 61 53 49 52 51 46 46 46 50 49 48 44 40 37 35 34 34 34 36 37 37 38 37 34 33 34 36 45 52 56 56 57 64 59 56 51 37 30 35 36 35 33
77 80 72 51 54 53 49 49 48 47 48 47 47 45 43 41 38 35 33 33 35 36 39 41 40 37 36 36 40 46 51 55 58 60 65 64 56 50 36 38 37 38 37 35
64 58 52 50 48 48 49 49 48 47 47 47 46 44 44 43 42 41 40 39 37 37 37 41 43 43 42 40 42 46 51 56 60 62 69 63 62 48 41 44 42 41 39 36
53 47 50 47 46 47 48 47 46 46 45 44 41 39 40 42 42 42 42 43 42 41 42 40 43 44 45 47 47 49 54 59 63 63 70 63 68 48 46 48 48 47 45 39
53 47 46 46 47 48 45 43 42 43 43 43 42 43 44 45 45 46 46 46 47 46 43 42 42 45 48 50 53 56 59 61 64 67 74 73 68 47 49 54 52 51 49 45
55 52 54 54 47 41 41 42 43 43 42 44 45 46 47 46 46 47 47 48 46 43 39 40 43 46 48 49 52 57 61 63 70 75 79 82 64 46 57 58 56 56 53 51
55 56 49 43 48 48 47 47 48 49 48 46 43 42 41 39 37 36 37 36 36 36 39 40 41 47 51 54 58 61 66 71 80 83 88 85 55 50 63 62 59 59 56 55
57 53 56 60 59 59 60 59 55 50 48 45 40 36 34 34 35 36 35 36 38 40 41 42 44 50 57 66 69 72 79 85 87 91 92 75 50 56 66 63 63 61 60 57
57 56 53 50 49 48 46 44 45 47 45 46 47 46 44 39 36 36 42 44 46 47 46 50 57 60 62 67 73 81 90 92 93 96 88 62 52 61 67 64 65 63 64 58
43 44 47 46 42 41 43 43 40 35 37 41 42 42 44 47 50 52 59 61 62 68 75 75 73 78 80 82 86 90 92 93 97 90 78 64 61 67 67 65 66 65 66 58
46 45 46 46 45 41 38 39 40 39 38 36 36 38 39 38 40 46 50 58 74 80 84 89 87 88 91 92 92 93 96 94 87 83 84 70 63 66 66 67 67 67 69 60
45 46 46 43 38 31 28 27 29 29 35 37 36 30 24 24 28 34 40 52 59 66 79 82 85 85 86 85 86 86 86 87 81 75 76 79 65 65 66 68 68 69 70 61
45 44 40 40 40 34 27 24 22 23 30 33 30 24 19 19 20 22 24 28 35 51 62 70 77 84 85 85 85 80 81 78 76 73 78 82 74 68 70 75 69 72 71 64
38 36 35 35 38 36 24 20 17 15 15 16 19 19 20 19 20 21 25 26 28 31 37 55 55 63 75 82 86 85 83 80 81 80 67 68 76 71 74 76 71 73 72 65
34 30 29 27 27 29 29 24 19 16 13 15 19 21 26 26 27 32 32 31 30 41 39 38 58 55 64 75 79 86 89 84 89 79 64 67 78 78 80 77 72 74 72 66
23 24 23 22 21 17 17 17 18 17 17 19 21 27 32 33 36 39 42 45 42 46 45 40 42 57 69 74 79 89 92 91 91 85 76 69 83 83 82 76 73 75 72 66
17 17 18 18 17 16 16 16 18 23 23 26 28 33 43 46 50 52 43 49 51 51 51 46 42 47 63 79 83 86 97 98 94 93 86 81 88 86 83 76 75 75 72 67
19 20 21 20 20 22 21 19 24 27 31 34 41 54 64 64 56 64 63 59 59 58 57 51 50 49 59 72 79 91 97 98 97 97 93 92 95 88 88 78 79 75 73 67
24 26 26 28 32 30 29 32 35 33 40 53 65 74 83 84 79 71 74 72 70 68 66 63 54 63 66 68 85 93 98 98 98 96 96 97 94 93 86 82 80 75 74 66
32 41 49 50 49 45 45 47 46 43 62 78 79 84 82 86 90 83 80 83 85 85 80 75 65 67 76 84 96 97 98 98 98 97 97 97 97 95 88 84 77 75 73 66
50 63 67 66 63 65 58 57 58 62 88 93 82 82 82 84 88 89 86 85 89 88 92 90 72 71 81 86 85 84 91 98 98 98 97 97 97 95 90 82 77 76 72 66

GFSNGP_prec_cthk_132.txt.gz
RH
22 22 22 22 22 31 34 28 28 19 22 20 22 26 26 27 28 30 37 36 31 28 29 30 29 28 29 30 31 32 33 33 33 36 39 42 42 44 48 49 49 48 43 39
34 25 29 33 30 31 31 32 31 29 28 26 25 28 30 29 32 41 44 40 36 31 31 31 29 29 30 30 31 31 32 33 36 39 41 45 47 47 49 49 52 52 48 44
31 30 32 26 23 27 30 29 29 33 30 29 33 35 40 43 49 51 49 46 42 36 32 31 30 30 29 30 31 31 32 32 34 40 46 49 53 54 54 52 56 56 52 46
38 30 29 20 23 25 28 28 30 30 34 40 44 49 53 54 53 53 51 46 44 40 37 35 33 33 33 32 33 34 35 35 34 37 43 50 54 58 60 56 59 59 55 50
38 36 25 28 32 30 32 35 41 49 50 53 54 55 55 53 50 47 45 41 39 40 40 39 38 37 38 39 40 41 40 40 41 39 41 47 54 61 67 60 61 62 60 53
51 53 45 38 45 48 52 52 54 56 57 57 56 52 48 51 48 44 42 40 41 40 41 40 40 39 39 40 41 42 44 44 44 44 44 45 53 62 70 63 65 64 63 61
66 66 55 54 53 53 54 53 56 56 54 53 52 50 46 42 40 40 41 40 40 40 41 42 43 44 45 46 46 48 49 48 48 47 47 48 58 65 69 71 76 76 71 62
72 74 71 58 55 52 53 53 53 53 51 49 46 44 43 42 41 40 39 39 41 42 43 44 46 46 46 47 47 46 45 45 44 43 46 52 60 67 70 73 74 78 78 67
56 59 56 57 56 55 56 55 54 53 50 47 47 45 44 42 39 38 38 37 38 39 40 39 37 36 34 33 33 34 34 35 37 41 45 51 61 68 74 82 85 82 78 66
56 55 58 61 61 62 60 58 55 53 52 52 53 56 57 57 58 57 54 51 48 44 39 38 36 34 31 29 28 29 30 32 37 42 46 53 62 73 79 82 84 87 82 65
58 59 63 66 67 65 65 64 63 61 60 62 64 64 60 52 44 38 36 34 31 30 32 32 33 35 37 40 41 40 39 41 44 46 51 60 68 76 84 89 89 91 83 70
64 65 66 67 65 65 64 60 57 55 56 53 48 43 36 33 32 31 29 27 28 30 31 30 30 33 33 37 41 45 47 51 55 61 67 75 76 83 91 92 94 96 86 74
69 70 70 67 65 58 55 52 49 46 43 43 41 39 39 37 32 27 25 25 26 26 26 32 35 34 33 31 36 44 49 59 67 77 87 90 92 94 94 95 98 96 78 69
57 58 58 52 49 46 44 42 40 39 40 42 43 45 43 32 26 25 23 20 17 16 16 18 21 29 32 28 30 39 47 59 71 83 88 95 95 96 95 98 98 90 78 67
46 44 42 41 41 41 40 39 41 42 43 45 46 44 34 25 21 17 16 15 17 17 15 15 14 14 18 21 26 32 39 49 62 77 88 94 97 97 98 98 96 84 77 73
43 43 43 43 46 48 45 44 44 42 38 34 32 29 26 23 19 16 14 14 15 12 11 10 11 13 17 23 25 26 34 48 54 65 83 93 96 96 97 97 93 88 83 75
45 45 44 45 47 46 45 43 38 32 30 29 26 23 22 21 19 16 14 13 14 13 13 13 13 18 23 24 24 26 28 41 53 56 71 87 91 97 97 95 93 90 82 71
41 42 43 45 46 46 43 40 34 30 26 24 22 21 20 20 18 16 14 15 16 15 15 16 19 25 28 30 34 36 34 36 46 50 59 75 82 92 95 94 86 78 89 81
43 44 45 45 47 46 43 36 30 27 22 20 22 22 22 23 23 22 20 21 20 21 18 28 32 34 36 38 43 44 42 41 45 51 54 65 81 83 82 87 86 84 87 75
44 41 42 43 44 38 30 24 20 18 19 26 29 30 34 33 34 32 29 28 24 32 37 40 43 45 48 49 51 49 48 48 50 55 60 61 76 90 89 88 85 86 87 78
39 41 39 33 27 23 20 18 17 18 23 29 33 40 44 43 41 34 33 36 27 44 54 61 62 63 65 64 60 57 55 55 56 58 63 67 76 91 98 94 89 89 80 77
35 32 29 27 22 19 16 15 16 24 31 34 41 49 56 53 46 40 42 53 42 61 79 83 86 88 88 82 75 70 65 62 62 64 64 66 70 86 98 95 95 90 81 79
32 31 28 24 22 21 17 16 23 28 34 41 53 62 64 56 56 55 45 61 81 97 98 97 95 87 91 88 87 83 76 73 71 64 63 66 71 98 98 98 97 91 84 83
30 29 27 25 26 26 20 20 25 27 40 47 68 71 70 60 55 70 81 89 94 88 84 84 82 83 89 89 90 88 89 85 78 72 63 65 84 96 98 98 94 96 86 89
37 37 34 33 32 26 23 23 25 32 43 54 67 72 70 71 83 89 98 95 89 93 93 95 94 92 90 88 86 87 92 93 90 76 67 79 89 96 97 94 95 97 94 97
44 40 39 38 34 27 23 24 28 37 53 57 64 72 69 80 88 95 97 93 94 96 96 97 97 97 97 96 93 90 93 94 95 83 77 89 97 97 95 93 95 98 97 97
41 40 41 38 33 27 22 25 30 43 57 64 73 88 86 88 95 96 92 89 93 96 97 98 98 98 97 97 97 94 92 94 98 90 73 83 90 91 90 94 97 98 97 97